Date StartTime U_cm/s V_cm/s W_cm/s Ustd_cm/s Vstd_cm/s Wstd_cm/s Uvar_(cm/s)^2 Vvar_(cm/s)^2 Wvar_(cm/s)^2 KE_(m/s)^2 TurbulentKE_(m/s)^2 HorizWindSpeed_cm/s FrictionSpeec_cm/s DragCoef SpeedOfSound_m/s SonicTemperature_C Pressure_mb 
08/14/2014  00:00:00     -101.922      -32.999        3.997       60.353       56.749       37.051     3642.446     3220.482     1372.745        0.986        0.412      107.131       30.093        0.079      343.081       18.941      861.894
08/14/2014  00:01:00     -149.101      -34.318        8.539       64.925       59.639       36.803     4215.250     3556.795     1354.495        1.630        0.456      152.999       37.623        0.060      343.053       18.894      861.889
08/14/2014  00:02:00     -254.267      -83.401       -2.057      121.034       77.414       49.925    14649.168     5992.957     2492.465        4.737        1.157      267.596       51.206        0.037      343.113       18.992      861.897
08/14/2014  00:03:00     -254.564      -14.398      -11.742       93.209       75.571       43.673     8687.889     5711.022     1907.362        4.072        0.815      254.971       39.685        0.024      343.116       18.997      861.904
08/14/2014  00:04:00     -352.255      -20.198      -26.300      118.483      105.884       58.850    14038.259    11211.415     3463.329        7.694        1.436      352.834       54.970        0.024      343.186       19.115      861.912
08/14/2014  00:05:00     -248.773       -6.566      -14.947      114.127       94.425       45.044    13024.882     8916.014     2028.972        4.306        1.198      248.859       56.749        0.052      343.150       19.055      861.910
08/14/2014  00:06:00     -317.875      -74.857      -13.961      112.302       92.348       50.626    12611.765     8528.172     2562.966        6.527        1.185      326.570       50.333        0.024      343.210       19.157      861.905
08/14/2014  00:07:00     -200.663      -47.954       -9.984      122.983       86.207       48.892    15124.725     7431.597     2390.466        3.380        1.247      206.313       46.784        0.051      343.163       19.079      861.896
08/14/2014  00:08:00     -290.033      -64.777       -7.774      150.095      102.964       55.170    22528.574    10601.654     3043.687        6.227        1.809      297.179       63.087        0.045      343.247       19.221      861.897
08/14/2014  00:09:00     -220.312      -51.107      -12.131      108.687      109.280       57.621    11812.782    11942.022     3320.219        3.918        1.354      226.162       57.075        0.064      343.190       19.124      861.913
08/14/2014  00:10:00     -172.504      -16.825        0.890       57.237       77.853       37.553     3276.100     6061.117     1410.217        2.039        0.537      173.323       30.388        0.031      343.157       19.070      861.921
08/14/2014  00:11:00     -280.003      -15.148      -19.553       98.807       88.641       47.632     9762.908     7857.252     2268.808        4.945        0.994      280.413       49.496        0.031      343.216       19.166      861.923
08/14/2014  00:12:00     -225.450      -11.898      -13.935       75.265       75.986       44.602     5664.893     5773.915     1989.296        3.229        0.671      225.764       36.015        0.025      343.206       19.150      861.929
08/14/2014  00:13:00     -233.765      -81.324      -22.277       62.347       67.548       39.066     3887.098     4562.797     1526.169        3.586        0.499      247.507       32.062        0.017      343.211       19.158      861.935
08/14/2014  00:14:00     -271.344       -5.641      -16.493      120.083       67.511       61.840    14419.976     4557.754     3824.244        4.836        1.140      271.402       64.890        0.057      343.208       19.154      861.927
08/14/2014  00:15:00     -252.255      -25.460      -14.531      120.062       82.080       50.863    14414.779     6737.191     2587.060        4.411        1.187      253.537       60.131        0.056      343.189       19.123      861.930
08/14/2014  00:16:00     -237.876      -75.648       -1.438       87.385       74.322       44.593     7636.162     5523.783     1988.563        3.873        0.757      249.615       40.569        0.026      343.161       19.073      861.941
08/14/2014  00:17:00     -254.594      -70.126      -15.666       93.466       67.037       40.017     8735.892     4493.911     1601.366        4.240        0.742      264.075       36.152        0.019      343.184       19.113      861.957
08/14/2014  00:18:00     -233.856      -74.839       -9.190       96.502       74.377       42.558     9312.665     5531.901     1811.194        3.851        0.833      245.539       43.885        0.032      343.206       19.151      861.961
08/14/2014  00:19:00     -125.695      -27.004        2.069       83.039       63.086       45.136     6895.494     3979.902     2037.283        1.472        0.646      128.563       45.429        0.125      343.151       19.059      861.970
08/14/2014  00:20:00     -134.328      -46.671        7.367       60.485       58.397       32.783     3658.456     3410.237     1074.729        1.421        0.407      142.204       38.513        0.073      343.160       19.077      861.977
08/14/2014  00:21:00     -132.630      -25.971       -6.233       51.143       46.386       28.080     2615.568     2151.666      788.461        1.193        0.278      135.149       27.376        0.041      343.216       19.171      861.985
08/14/2014  00:22:00      -96.184      -29.887        5.931       82.911       70.399       43.538     6874.175     4956.021     1895.518        1.195        0.686      100.720       55.973        0.309      343.158       19.071      861.996
08/14/2014  00:23:00      -88.568      -29.359        1.496       72.370       63.133       29.627     5237.452     3985.830      877.772        0.940        0.505       93.308       24.535        0.069      343.189       19.126      862.005
08/14/2014  00:24:00      -90.322      -77.466        0.777       56.927       37.783       24.357     3240.689     1427.571      593.279        0.971        0.263      118.992       24.164        0.041      343.215       19.171      862.016
08/14/2014  00:25:00      -97.510      -59.154       -4.213       83.916       41.338       26.149     7041.872     1708.817      683.763        1.123        0.472      114.050       28.555        0.063      343.214       19.167      862.031
08/14/2014  00:26:00      -61.372      -92.208       10.259       48.123       41.252       26.587     2315.858     1701.710      706.882        0.855        0.236      110.765       20.879        0.036      343.172       19.097      862.054
08/14/2014  00:27:00      -46.084      -85.004       -0.750       37.993       49.096       26.449     1443.460     2410.418      699.573        0.695        0.228       96.692       25.579        0.070      343.135       19.034      862.077
08/14/2014  00:28:00      -42.326       -6.393        9.269       46.848       45.169       25.264     2194.762     2040.254      638.282        0.339        0.244       42.806       32.942        0.592      343.021       18.839      862.067
08/14/2014  00:29:00      -36.064      -45.073       -2.251       24.037       36.631       13.588      577.761     1341.812      184.634        0.272        0.105       57.725       12.960        0.050      342.988       18.782      862.086
08/14/2014  00:30:00      -23.297      -49.178        3.723       35.967       23.954       17.662     1293.602      573.785      311.941        0.258        0.109       54.417       11.262        0.043      343.020       18.836      862.094
08/14/2014  00:31:00      -12.500       -2.072       19.741       50.478       34.360       26.890     2547.991     1180.618      723.096        0.250        0.223       12.671       29.985        5.600      342.929       18.681      862.087
08/14/2014  00:32:00       -1.783       22.036       54.431       17.906       40.076       20.737      320.624     1606.123      430.008        0.290        0.118       22.108       10.744        0.236      342.952       18.722      862.078
08/14/2014  00:33:00       -1.461       20.747       71.058       21.478       44.347       26.487      461.317     1966.674      701.569        0.431        0.156       20.798       27.072        1.694      342.992       18.789      862.077
08/14/2014  00:34:00        1.971      -19.443       24.757       16.857       28.044       30.471      284.164      786.454      928.453        0.150        0.100       19.543       11.388        0.340      342.883       18.605      862.091
08/14/2014  00:35:00      -17.401      -20.535       15.812       24.812       30.266       22.369      615.633      916.003      500.373        0.150        0.102       26.916       24.137        0.804      342.950       18.717      862.108
08/14/2014  00:36:00       12.585      -10.643       10.218       18.968       10.811       14.239      359.790      116.868      202.746        0.053        0.034       16.482       13.285        0.650      342.948       18.716      862.132
08/14/2014  00:37:00      -66.089      -35.257       -6.856       37.414       18.076       17.498     1399.770      326.759      306.172        0.384        0.102       74.905       19.124        0.065      342.957       18.730      862.161
08/14/2014  00:38:00      -27.476      -15.257        8.022       13.354       24.373       10.456      178.325      594.025      109.326        0.097        0.044       31.428        6.456        0.042      342.928       18.683      862.187
08/14/2014  00:39:00        0.238       11.748       22.012       16.046       14.599       11.161      257.478      213.145      124.579        0.061        0.030       11.751        9.611        0.669      342.807       18.475      862.205
08/14/2014  00:40:00       -1.411       -0.453       14.862        9.224       21.448       13.355       85.090      460.020      178.368        0.047        0.036        1.482       10.162       47.032      342.768       18.409      862.220
08/14/2014  00:41:00       49.367       39.473       25.977       33.986       17.275       22.574     1155.036      298.442      509.582        0.332        0.098       63.208        7.611        0.014      342.815       18.489      862.232
08/14/2014  00:42:00       53.406       43.031       33.411       26.581       19.074       25.439      706.548      363.822      647.136        0.377        0.086       68.584       15.579        0.052      342.768       18.409      862.231
08/14/2014  00:43:00       83.552       42.767        8.392       20.675       16.886       17.030      427.454      285.142      290.029        0.494        0.050       93.861       10.057        0.011      342.789       18.446      862.232
08/14/2014  00:44:00       37.791       27.229       37.161       43.810       18.554       20.400     1919.323      344.242      416.160        0.311        0.134       46.579       19.201        0.170      342.767       18.406      862.233
08/14/2014  00:45:00       -5.870       16.353       41.619        7.994       12.907        8.712       63.907      166.587       75.905        0.117        0.015       17.375        7.562        0.189      342.875       18.591      862.244
08/14/2014  00:46:00       20.735       26.178       25.553       22.828       13.045       16.766      521.134      170.173      281.105        0.137        0.049       33.395       15.911        0.227      342.888       18.615      862.252
08/14/2014  00:47:00       30.600       21.257        7.552       15.743       14.352       12.404      247.831      205.981      153.866        0.103        0.030       37.259        9.110        0.060      342.793       18.451      862.250
08/14/2014  00:48:00       63.018       26.379        9.393       18.985       15.151       12.996      360.447      229.565      168.901        0.276        0.038       68.316        8.180        0.014      342.780       18.429      862.235
08/14/2014  00:49:00       41.018       24.124       15.695       40.681       24.885       16.722     1654.946      619.266      279.631        0.253        0.128       47.586       18.310        0.148      342.797       18.457      862.221
08/14/2014  00:50:00        4.766       -7.537        7.254       16.433       11.264        9.948      270.044      126.882       98.969        0.031        0.025        8.918        7.088        0.632      342.699       18.291      862.218
08/14/2014  00:51:00       28.082       15.865       13.425       18.722       11.601       11.638      350.505      134.580      135.437        0.092        0.031       32.254        9.167        0.081      342.769       18.410      862.219
08/14/2014  00:52:00       20.437       10.110       11.557       18.918       14.528       12.118      357.907      211.070      146.852        0.068        0.036       22.800        9.426        0.171      342.731       18.347      862.213
08/14/2014  00:53:00       -1.256       -4.425        0.059        7.575        7.203        5.311       57.386       51.876       28.204        0.008        0.007        4.600        2.888        0.394      342.710       18.310      862.209
08/14/2014  00:54:00        2.353        0.240        5.630        4.667        6.172        5.624       21.779       38.091       31.625        0.006        0.005        2.365        4.103        3.010      342.717       18.322      862.197
08/14/2014  00:55:00       11.504        7.825        3.827       10.176        7.225        6.692      103.545       52.207       44.788        0.020        0.010       13.913        5.292        0.145      342.781       18.430      862.186
08/14/2014  00:56:00       28.890       27.353       27.464       16.485       11.350       13.533      271.742      128.825      183.137        0.146        0.029       39.784        7.194        0.033      342.752       18.381      862.165
08/14/2014  00:57:00       44.344       28.444       13.771       12.874        7.185        9.631      165.734       51.630       92.753        0.164        0.016       52.683        1.970        0.001      342.891       18.618      862.159
08/14/2014  00:58:00        7.358       12.886       17.607       14.939       14.609        8.470      223.182      213.422       71.736        0.052        0.025       14.839        8.810        0.352      342.782       18.432      862.160
08/14/2014  00:59:00      -14.302      -18.466        0.751       13.842       14.080        7.654      191.602      198.258       58.580        0.050        0.022       23.357        6.003        0.066      342.823       18.502      862.155
08/14/2014  01:00:00      -46.411      -26.702       -1.288       19.998       12.610       13.611      399.907      159.017      185.249        0.181        0.037       53.544       13.092        0.060      342.665       18.233      862.143
08/14/2014  01:01:00       -5.429       -5.488        8.354       16.515       14.759       12.770      272.744      217.814      163.067        0.039        0.033        7.720        8.516        1.217      342.585       18.099      862.139
08/14/2014  01:02:00      -20.952       -3.546       -0.210       18.176       12.907        6.650      330.376      166.601       44.227        0.050        0.027       21.250        7.172        0.114      342.549       18.037      862.127
08/14/2014  01:03:00      -43.220        8.360        1.718        7.981       10.251        6.961       63.692      105.088       48.461        0.108        0.011       44.021        3.817        0.008      342.542       18.023      862.120
08/14/2014  01:04:00      -38.504       19.549       -2.880        9.985        7.000        6.510       99.693       48.994       42.384        0.103        0.010       43.182        4.093        0.009      342.602       18.126      862.112
08/14/2014  01:05:00      -17.814       19.939       -2.461        3.681        5.210        2.826       13.548       27.142        7.984        0.038        0.002       26.738        1.439        0.003      342.696       18.286      862.109
08/14/2014  01:06:00      -29.980       15.332       -3.755        6.784        6.303        3.256       46.018       39.731       10.602        0.062        0.005       33.673        2.365        0.005      342.740       18.360      862.116
08/14/2014  01:07:00      -44.366       -6.440       -6.539        7.353        9.337        5.671       54.070       87.186       32.166        0.111        0.009       44.831        3.623        0.007      342.747       18.372      862.129
08/14/2014  01:08:00      -16.080        0.600       -3.173       16.677       12.277        5.995      278.136      150.729       35.938        0.037        0.023       16.091        7.137        0.197      342.623       18.161      862.142
08/14/2014  01:09:00        9.217        7.055        0.253        5.257        5.120        3.776       27.634       26.218       14.261        0.010        0.003       11.607        3.144        0.073      342.682       18.264      862.140
08/14/2014  01:10:00       19.021       -2.936       -0.469        6.717        6.206        4.183       45.114       38.517       17.500        0.024        0.005       19.246        3.387        0.031      342.686       18.269      862.145
08/14/2014  01:11:00       14.659        4.941        0.241        5.426        4.955        4.732       29.437       24.552       22.390        0.016        0.004       15.469        1.869        0.015      342.689       18.275      862.150
08/14/2014  01:12:00       47.092       23.692        2.051       11.430        9.363        9.589      130.645       87.672       91.946        0.155        0.016       52.716        7.110        0.018      342.643       18.196      862.151
08/14/2014  01:13:00       64.023       22.060        4.608       20.745       10.469        9.580      430.364      109.598       91.769        0.262        0.032       67.717        1.943        0.001      342.571       18.075      862.148
08/14/2014  01:14:00       46.336       29.322        6.473       27.571       18.848       17.024      760.173      355.232      289.823        0.223        0.070       54.834        4.371        0.006      342.404       17.790      862.153
08/14/2014  01:15:00       35.619       43.218       -7.757       23.021       29.791       16.064      529.983      887.477      258.046        0.244        0.084       56.004       17.165        0.094      342.408       17.796      862.160
08/14/2014  01:16:00        1.926       86.610      -14.231       22.714       24.727       15.395      515.925      611.412      237.006        0.454        0.068       86.631       11.430        0.017      342.522       17.992      862.168
08/14/2014  01:17:00      -20.997       63.094       -7.891       18.517       27.104       15.916      342.886      734.629      253.312        0.291        0.067       66.496       11.847        0.032      342.438       17.847      862.171
08/14/2014  01:18:00      -41.701       73.267      -12.405       22.157       25.765       14.426      490.925      663.844      208.096        0.431        0.068       84.303       11.088        0.017      342.546       18.033      862.169
08/14/2014  01:19:00      -34.449      132.638      -25.158       32.814       46.859       18.631     1076.755     2195.812      347.124        1.152        0.181      137.038       20.418        0.022      342.542       18.025      862.164
08/14/2014  01:20:00      -51.365      120.426      -22.569       23.027       41.060       15.884      530.246     1685.933      252.305        1.006        0.123      130.922       17.905        0.019      342.561       18.056      862.167
08/14/2014  01:21:00      -76.407       47.135      -12.300       24.972       23.494       14.163      623.615      551.957      200.582        0.479        0.069       89.776       13.917        0.024      342.535       18.012      862.164
08/14/2014  01:22:00      -71.417       33.201       -6.676       23.286       16.400       13.180      542.238      268.965      173.716        0.362        0.049       78.757        6.489        0.007      342.479       17.917      862.164
08/14/2014  01:23:00      -86.280       36.461      -11.281       21.626       19.071       18.785      467.666      363.721      352.861        0.504        0.059       93.668       15.054        0.026      342.508       17.967      862.157
08/14/2014  01:24:00     -100.309       52.996      -19.579       21.738       23.717       15.420      472.531      562.480      237.786        0.726        0.064      113.448       12.545        0.012      342.532       18.007      862.150
08/14/2014  01:25:00      -84.945       48.360       -8.803       35.138       19.823       21.696     1234.659      392.941      470.718        0.586        0.105       97.746       19.744        0.041      342.609       18.140      862.149
08/14/2014  01:26:00      -47.618       54.131       -9.465       17.069       20.095       14.263      291.352      403.801      203.444        0.309        0.045       72.095       11.458        0.025      342.583       18.093      862.131
08/14/2014  01:27:00       -7.593       78.162       -9.466       19.149       28.192       15.552      366.677      794.776      241.865        0.383        0.070       78.530       17.317        0.049      342.521       17.989      862.113
08/14/2014  01:28:00      -27.808       76.182       -9.122       26.574       32.595       17.056      706.152     1062.451      290.903        0.436        0.103       81.099       14.282        0.031      342.448       17.865      862.093
08/14/2014  01:29:00      -70.396      157.855      -20.119       49.936       62.827       33.163     2493.587     3947.191     1099.789        1.891        0.377      172.840       30.242        0.031      342.413       17.804      862.081
08/14/2014  01:30:00      -82.810      198.662      -23.812       51.471       58.368       25.385     2649.270     3406.851      644.394        2.679        0.335      215.231       29.023        0.018      342.422       17.819      862.068
08/14/2014  01:31:00     -188.634      148.926      -40.832       74.100       78.493       41.939     5490.875     6161.177     1758.860        3.642        0.671      240.337       49.677        0.043      342.429       17.830      862.068
08/14/2014  01:32:00     -113.362       81.969      -22.913       44.241       54.572       31.192     1957.258     2978.154      972.951        1.300        0.295      139.893       26.597        0.036      342.314       17.637      862.046
08/14/2014  01:33:00      -75.097       90.992      -11.169       48.721       64.271       31.381     2373.760     4130.792      984.748        1.077        0.374      117.979       28.223        0.057      342.327       17.657      862.040
08/14/2014  01:34:00      -99.828      193.253      -26.775       67.413       74.770       37.702     4544.528     5590.532     1421.465        2.979        0.578      217.514       38.138        0.031      342.343       17.683      862.030
08/14/2014  01:35:00      -95.203      109.679      -23.200       45.309       54.553       30.407     2052.926     2976.042      924.583        1.379        0.298      145.234       24.613        0.029      342.360       17.714      862.029
08/14/2014  01:36:00      -96.517      135.272      -24.510       67.942       83.212       31.217     4616.147     6924.244      974.501        2.036        0.626      166.175       28.149        0.029      342.404       17.788      862.025
08/14/2014  01:37:00     -122.245      139.246      -33.801       40.301       47.912       31.514     1624.209     2295.581      993.116        2.019        0.246      185.293       27.297        0.022      342.368       17.726      862.024
08/14/2014  01:38:00     -111.011       89.227      -23.912       50.230       38.907       23.289     2523.016     1513.790      542.383        1.272        0.229      142.425       19.991        0.020      342.377       17.744      862.011
08/14/2014  01:39:00      -62.467       74.629      -22.198       46.566       60.215       30.224     2168.378     3625.896      913.505        0.833        0.335       97.322       37.273        0.147      342.383       17.754      861.982
08/14/2014  01:40:00      -13.896      -11.473        2.414       35.858       25.827       20.005     1285.796      667.040      400.194        0.134        0.118       18.020        9.823        0.297      342.372       17.733      861.972
08/14/2014  01:41:00      -85.337      -42.643        0.723       56.022       51.965       36.320     3138.422     2700.330     1319.126        0.813        0.358       95.398       32.677        0.117      342.383       17.753      861.961
08/14/2014  01:42:00     -136.939      118.926      -39.054       55.687       69.404       43.538     3101.072     4816.876     1895.521        2.212        0.491      181.371       42.079        0.054      342.518       17.981      861.969
08/14/2014  01:43:00      -94.541      104.818       -5.627       51.165       82.007       42.555     2617.832     6725.099     1810.934        1.555        0.558      141.155       40.930        0.084      342.537       18.014      861.961
08/14/2014  01:44:00     -100.075      132.136      -24.795       45.553       44.879       34.226     2075.034     2014.147     1171.440        1.667        0.263      165.756       35.274        0.045      342.454       17.874      861.944
08/14/2014  01:45:00      -46.374       83.247       -1.403       56.869       89.843       35.312     3234.065     8071.725     1246.963        1.082        0.628       95.292       41.989        0.194      342.370       17.732      861.945
08/14/2014  01:46:00       -5.070       36.775       18.152       28.057       40.517       35.630      787.198     1641.633     1269.518        0.270        0.185       37.123       28.839        0.603      342.339       17.679      861.937
08/14/2014  01:47:00      -32.962      -67.072        4.708       41.841       24.305       21.526     1750.646      590.745      463.356        0.421        0.140       74.734       13.562        0.033      342.488       17.933      861.921
08/14/2014  01:48:00      -49.103      -24.229      -12.867       17.415       14.352       14.936      303.272      205.969      223.073        0.195        0.037       54.755        6.258        0.013      342.526       17.996      861.913
08/14/2014  01:49:00      -13.388      -48.854       -3.547       23.071       27.821       11.624      532.256      774.033      135.126        0.201        0.072       50.655        7.688        0.023      342.563       18.059      861.924
08/14/2014  01:50:00       -4.868      -62.697       -0.151       13.307       22.220       16.425      177.069      493.709      269.767        0.245        0.047       62.886       14.314        0.052      342.477       17.912      861.935
08/14/2014  01:51:00      -19.602      -59.673        5.550       20.624       19.508       18.129      425.362      380.543      328.652        0.255        0.057       62.810       10.041        0.026      342.453       17.873      861.917
08/14/2014  01:52:00      -19.730       -9.744       13.462       17.852       22.017       11.916      318.689      484.739      141.979        0.081        0.047       22.005        9.800        0.198      342.282       17.582      861.891
08/14/2014  01:53:00        4.289       29.952       43.062       19.514       19.131       16.403      380.778      365.977      269.074        0.189        0.051       30.257       13.076        0.187      342.359       17.714      861.877
08/14/2014  01:54:00       -1.735       21.007       28.989       14.575       28.822       11.865      212.440      830.725      140.775        0.123        0.059       21.079        6.460        0.094      342.317       17.641      861.880
08/14/2014  01:55:00       19.752       29.843       33.344       32.687       18.458       15.909     1068.417      340.690      253.092        0.203        0.083       35.788       19.112        0.285      342.312       17.633      861.883
08/14/2014  01:56:00       37.896        9.237        6.601       27.997       22.130       17.560      783.829      489.734      308.358        0.157        0.079       39.006        7.502        0.037      342.306       17.622      861.882
08/14/2014  01:57:00       51.488       11.529        3.452       24.987       22.320       16.611      624.346      498.201      275.912        0.210        0.070       52.763        9.906        0.035      342.273       17.567      861.897
08/14/2014  01:58:00       30.899       24.209       20.799       30.380       20.700       16.640      922.971      428.482      276.905        0.180        0.081       39.253       14.353        0.134      342.276       17.572      861.918
08/14/2014  01:59:00       64.836       25.120       32.479       28.526       31.436       28.889      813.709      988.212      834.578        0.426        0.132       69.533       24.005        0.119      342.193       17.430      861.921
08/14/2014  02:00:00       76.861       51.663       22.165       25.499       20.313       31.483      650.221      412.600      991.173        0.556        0.103       92.611       19.810        0.046      342.429       17.831      861.921
08/14/2014  02:01:00       58.517       57.187       52.519       29.696       30.528       25.485      881.839      931.953      649.464        0.596        0.123       81.821        4.581        0.003      342.285       17.587      861.920
08/14/2014  02:02:00       82.021       70.404       20.931       40.605       26.732       37.809     1648.769      714.576     1429.546        0.796        0.190      108.094       27.738        0.066      342.118       17.303      861.927
08/14/2014  02:03:00       99.821       50.086        7.286       31.216       27.851       24.051      974.435      775.675      578.474        0.743        0.116      111.682       12.380        0.012      341.971       17.054      861.934
08/14/2014  02:04:00       98.182       47.752        9.010       28.821       19.492       23.159      830.644      379.949      536.332        0.687        0.087      109.179       17.408        0.025      341.912       16.953      861.949
08/14/2014  02:05:00       73.359       54.287       28.627       27.918       15.031       25.297      779.403      225.933      639.950        0.540        0.082       91.262       22.823        0.063      341.949       17.017      861.969
08/14/2014  02:06:00       80.809       47.437       29.526       30.637       23.161       23.710      938.619      536.441      562.167        0.584        0.102       93.704       14.546        0.024      342.042       17.175      861.988
08/14/2014  02:07:00       81.336       34.694       23.919       17.141       18.611       24.607      293.814      346.360      605.492        0.482        0.062       88.426       12.277        0.019      341.993       17.092      862.008
08/14/2014  02:08:00       87.796       35.697        2.751       35.207       24.108       18.312     1239.560      581.183      335.346        0.557        0.108       94.776       15.111        0.025      342.052       17.192      862.017
08/14/2014  02:09:00      100.302       62.766        3.481       26.719       26.944       23.979      713.901      725.967      574.999        0.801        0.101      118.322       16.523        0.020      342.045       17.181      862.001
08/14/2014  02:10:00      108.800       53.976        9.825       26.058       25.556       21.012      679.016      653.122      441.495        0.831        0.089      121.453       11.979        0.010      341.946       17.012      861.996
08/14/2014  02:11:00       98.524       59.232        5.221       57.105       33.949       29.808     3260.927     1152.537      888.508        0.927        0.265      114.959       18.709        0.026      341.920       16.968      861.996
08/14/2014  02:12:00      112.429       80.273       21.832       47.123       31.244       29.828     2220.535      976.197      889.706        1.182        0.204      138.145       11.220        0.007      342.072       17.225      862.015
08/14/2014  02:13:00      113.832       42.976        4.849       48.350       33.388       21.141     2337.721     1114.760      446.953        0.936        0.195      121.674       20.216        0.028      342.149       17.355      862.028
08/14/2014  02:14:00       98.086       82.825       25.751       49.973       29.564       32.258     2497.330      874.014     1040.575        1.078        0.221      128.378       22.912        0.032      342.094       17.263      862.030
08/14/2014  02:15:00      130.875       67.231        1.928       31.247       38.974       24.724      976.359     1519.010      611.291        1.238        0.155      147.134       20.274        0.019      342.177       17.403      862.023
08/14/2014  02:16:00       87.436       66.001       21.351       35.815       31.554       29.988     1282.741      995.662      899.289        0.782        0.159      109.549       18.317        0.028      342.230       17.495      862.009
08/14/2014  02:17:00       66.010       77.326       59.735       51.542       36.438       40.889     2656.609     1327.703     1671.876        0.978        0.283      101.669       40.416        0.158      342.139       17.342      862.000
08/14/2014  02:18:00       26.396      103.090       98.137       35.532       39.339       23.848     1262.540     1547.563      568.736        1.217        0.169      106.415       18.252        0.029      342.286       17.590      861.998
08/14/2014  02:19:00      110.755       87.020       53.104       49.841       31.891       39.416     2484.115     1017.018     1553.659        1.386        0.253      140.852       31.698        0.051      342.241       17.514      862.009
08/14/2014  02:20:00       92.365       64.384       42.049       35.499       27.991       30.359     1260.186      783.508      921.665        0.870        0.148      112.590       18.554        0.027      342.148       17.355      862.007
08/14/2014  02:21:00       85.598       54.232       52.764       41.862       31.798       39.573     1752.398     1011.096     1566.007        0.869        0.216      101.331       26.846        0.070      342.057       17.200      862.010
08/14/2014  02:22:00      167.100       82.182       24.123       51.754       42.798       40.708     2678.458     1831.679     1657.101        2.071        0.308      186.216       24.636        0.018      342.033       17.157      862.011
08/14/2014  02:23:00      134.171       40.101       11.534       65.311       61.868       42.344     4265.534     3827.649     1792.997        1.481        0.494      140.036       33.530        0.057      342.186       17.421      862.006
08/14/2014  02:24:00       91.509       53.300       17.235       45.989       45.111       38.122     2115.016     2034.996     1453.276        0.856        0.280      105.900       26.415        0.062      342.096       17.266      862.010
08/14/2014  02:25:00       87.478       64.753       15.061       46.404       28.340       25.920     2153.373      803.154      671.869        0.785        0.181      108.836       16.571        0.023      342.010       17.120      862.029
08/14/2014  02:26:00       47.325       33.387        9.312       19.065       26.784       19.245      363.470      717.404      370.358        0.245        0.073       57.917        8.984        0.024      341.971       17.053      862.050
08/14/2014  02:27:00       48.155       78.634       -3.245       31.907       39.603       23.186     1018.078     1568.384      537.583        0.582        0.156       92.208       19.490        0.045      342.008       17.117      862.060
08/14/2014  02:28:00       39.298       64.927       -5.761       32.414       29.574       21.068     1050.677      874.617      443.846        0.408        0.118       75.893       15.125        0.040      341.969       17.051      862.062
08/14/2014  02:29:00       16.061      163.067      -20.243       57.431       73.597       38.388     3298.363     5416.456     1473.621        1.872        0.509      163.856       44.868        0.075      342.078       17.235      862.071
08/14/2014  02:30:00       32.247      212.424      -39.990       35.842       42.921       27.061     1284.640     1842.223      732.315        2.581        0.193      214.858       23.681        0.012      342.222       17.478      862.082
08/14/2014  02:31:00       35.719      165.790      -30.499       26.187       32.913       20.242      685.750     1083.233      409.758        1.594        0.109      169.594       16.393        0.009      342.228       17.490      862.098
08/14/2014  02:32:00       37.155      120.623      -21.863       54.377       51.691       24.754     2956.878     2671.971      612.749        1.132        0.312      126.216       23.999        0.036      342.165       17.385      862.118
08/14/2014  02:33:00       42.236       69.667       -6.856       27.125       48.011       26.575      735.749     2305.082      706.249        0.521        0.187       81.470       27.702        0.116      342.108       17.288      862.123
08/14/2014  02:34:00       40.832       55.981       -4.073       29.521       24.561       18.292      871.494      603.260      334.585        0.331        0.090       69.290       17.582        0.064      342.119       17.307      862.125
08/14/2014  02:35:00       20.967       51.681       -1.459       19.054       23.403       17.062      363.043      547.690      291.117        0.216        0.060       55.772       15.011        0.072      342.064       17.212      862.123
08/14/2014  02:36:00       19.543       25.264        9.782       31.382       21.628       19.753      984.813      467.752      390.191        0.148        0.092       31.940       14.413        0.204      342.029       17.154      862.136
08/14/2014  02:37:00       46.180       23.967       -1.345       29.237       27.890       19.623      854.803      777.833      385.046        0.236        0.101       52.028       16.108        0.096      342.101       17.276      862.141
08/14/2014  02:38:00       34.301       23.908        2.010       16.124       21.153       15.917      259.980      447.432      253.354        0.136        0.048       41.811        6.156        0.022      342.116       17.302      862.151
08/14/2014  02:39:00       11.877       62.057      -10.373       21.174       28.032       16.355      448.348      785.797      267.475        0.280        0.075       63.183       15.519        0.060      342.140       17.340      862.160
08/14/2014  02:40:00       41.700       36.371        0.324       21.660       19.973       13.849      469.151      398.922      191.787        0.206        0.053       55.333       10.198        0.034      342.107       17.287      862.158
08/14/2014  02:41:00       31.236       28.095        0.377       12.731       17.099        9.686      162.083      292.361       93.824        0.116        0.027       42.012        9.064        0.047      342.070       17.221      862.153
08/14/2014  02:42:00       36.525        9.036        7.984        8.235       14.579       12.567       67.813      212.550      157.929        0.096        0.022       37.626        5.785        0.024      342.033       17.159      862.156
08/14/2014  02:43:00       16.831       16.565       23.098       23.661       16.583       16.859      559.849      275.000      284.215        0.110        0.056       23.615       15.189        0.414      342.137       17.336      862.170
08/14/2014  02:44:00        3.513        0.251       15.341       12.890       18.085       10.131      166.154      327.060      102.640        0.042        0.030        3.522        9.198        6.822      342.112       17.293      862.180
08/14/2014  02:45:00        7.660      -17.489        3.252        9.916       19.120       10.763       98.331      365.565      115.839        0.048        0.029       19.093        6.498        0.116      342.152       17.362      862.185
08/14/2014  02:46:00       15.386       12.893       12.328       17.574       20.672       18.215      308.851      427.325      331.789        0.081        0.053       20.074       18.470        0.847      342.139       17.340      862.182
08/14/2014  02:47:00       65.747       33.172       17.511       12.511       21.945       13.454      156.514      481.591      181.010        0.327        0.041       73.641       14.958        0.041      342.175       17.399      862.187
08/14/2014  02:48:00       32.010       17.421       18.904       19.523       16.289       13.233      381.141      265.345      175.109        0.125        0.041       36.444       11.728        0.104      342.109       17.288      862.187
08/14/2014  02:49:00       -3.012       15.620       16.299        6.485       11.164        7.503       42.055      124.626       56.293        0.037        0.011       15.908        5.407        0.116      342.027       17.149      862.190
08/14/2014  02:50:00      -17.973       10.957       -3.549       11.835       14.970       13.170      140.057      224.106      173.438        0.050        0.027       21.050       10.460        0.247      342.158       17.373      862.192
08/14/2014  02:51:00       21.209       16.461       11.614       21.391       19.670       14.500      457.595      386.916      210.260        0.096        0.053       26.847       10.944        0.166      342.096       17.267      862.194
08/14/2014  02:52:00       41.906       64.887       -6.699       22.216       30.292       19.582      493.551      917.623      383.465        0.390        0.090       77.242       17.214        0.050      342.058       17.202      862.185
08/14/2014  02:53:00       49.408       74.301       -3.736       29.046       57.210       26.012      843.673     3272.933      676.604        0.638        0.240       89.229       28.059        0.099      341.990       17.086      862.179
08/14/2014  02:54:00       -6.175      105.162       -8.989       39.018       40.871       25.014     1522.408     1670.456      625.702        0.750        0.191      105.343       21.646        0.042      341.992       17.090      862.193
08/14/2014  02:55:00        0.656       69.385       -8.224       24.065       26.782       15.392      579.136      717.258      236.911        0.321        0.077       69.389        9.043        0.017      342.030       17.156      862.193
08/14/2014  02:56:00      -15.359       55.563       -6.737       29.021       25.071       17.985      842.229      628.576      323.477        0.258        0.090       57.647       12.813        0.049      341.983       17.073      862.185
08/14/2014  02:57:00        5.342       82.116      -11.983       19.857       21.735       16.989      394.303      472.430      288.616        0.404        0.058       82.290       10.055        0.015      342.009       17.119      862.180
08/14/2014  02:58:00       -1.425       25.028       -6.475       15.782        9.380       10.082      249.064       87.990      101.651        0.055        0.022       25.068        6.583        0.069      341.937       16.996      862.179
08/14/2014  02:59:00       18.814       56.895       -4.565       20.683       29.057       20.557      427.792      844.319      422.592        0.265        0.085       59.925       19.111        0.102      341.970       17.051      862.167
08/14/2014  03:00:00      -27.067       35.955       -4.688       25.838       38.308       13.005      667.618     1467.494      169.136        0.218        0.115       45.005        6.439        0.020      341.980       17.069      862.144
08/14/2014  03:01:00      -46.725       -6.677      -11.409       21.222       21.899       18.707      450.390      479.551      349.964        0.182        0.064       47.199       14.853        0.099      342.001       17.105      862.127
08/14/2014  03:02:00      -55.328        2.686       -8.126       28.218       24.342       11.378      796.257      592.542      129.456        0.233        0.076       55.393       10.385        0.035      342.002       17.107      862.133
08/14/2014  03:03:00      -28.617        2.670       -4.095       10.988       13.649        8.432      120.736      186.293       71.107        0.061        0.019       28.741        5.545        0.037      341.955       17.026      862.137
08/14/2014  03:04:00      -49.675        0.265       -8.132       19.164       11.908        8.242      367.278      141.803       67.927        0.156        0.029       49.676        5.574        0.013      341.949       17.018      862.156
08/14/2014  03:05:00     -119.247      -37.918      -10.375       25.390       23.707       13.201      644.654      562.029      174.268        0.857        0.069      125.130        8.370        0.004      341.903       16.936      862.165
08/14/2014  03:06:00     -151.366      -20.875      -12.550       19.493       22.740       15.838      379.985      517.116      250.839        1.233        0.057      152.799       12.232        0.006      341.825       16.806      862.170
08/14/2014  03:07:00      -96.968      -14.875      -19.582       37.414        9.344       10.987     1399.812       87.314      120.706        0.581        0.080       98.103       15.974        0.027      341.864       16.873      862.171
08/14/2014  03:08:00        0.697      -23.510       -0.566       15.237        9.263        8.049      232.156       85.802       64.781        0.047        0.019       23.521        8.287        0.124      341.834       16.821      862.171
08/14/2014  03:09:00       -3.644       -3.734        3.399        5.114        7.251        6.036       26.155       52.572       36.434        0.008        0.006        5.218        2.767        0.281      341.777       16.725      862.168
08/14/2014  03:10:00      -17.927      -37.911       -3.709       24.745       23.010       13.453      612.328      529.466      180.970        0.155        0.066       41.936       12.895        0.095      341.924       16.975      862.175
08/14/2014  03:11:00       33.173      -63.082      -10.135       23.789       13.037       10.890      565.918      169.970      118.589        0.302        0.043       71.272        7.856        0.012      341.959       17.034      862.192
08/14/2014  03:12:00       -0.956      -65.718        4.952       15.843       28.053       11.410      250.992      786.949      130.189        0.276        0.058       65.725        6.876        0.011      342.025       17.145      862.210
08/14/2014  03:13:00      -23.498      -29.792       -1.100       13.553       20.045       10.068      183.687      401.804      101.369        0.106        0.034       37.944        7.839        0.043      341.992       17.093      862.216
08/14/2014  03:14:00       -1.036       -7.039        5.681        7.727       10.486        7.687       59.703      109.946       59.091        0.016        0.011        7.115        6.725        0.893      341.887       16.911      862.233
08/14/2014  03:15:00      -37.489       -2.958        4.662       22.950       22.489       18.286      526.716      505.772      334.365        0.140        0.068       37.606       15.204        0.163      341.641       16.493      862.246
08/14/2014  03:16:00      -49.839       42.184       -9.319       13.212       21.112       10.439      174.556      445.697      108.976        0.254        0.036       65.295        7.730        0.014      341.421       16.122      862.258
08/14/2014  03:17:00      -39.018       17.867       -0.070       17.188       22.321       14.640      295.433      498.220      214.338        0.142        0.050       42.915        9.847        0.053      341.378       16.049      862.281
08/14/2014  03:18:00      -68.869       20.972       -2.520       19.137       15.094       15.986      366.206      227.818      255.547        0.302        0.042       71.991        9.365        0.017      341.492       16.241      862.301
08/14/2014  03:19:00      -96.886      -21.026      -10.711       13.768       17.704       10.533      189.547      313.426      110.951        0.528        0.031       99.142        8.675        0.008      341.536       16.316      862.315
08/14/2014  03:20:00      -99.359      -38.343        1.086       25.355       23.791       15.035      642.892      566.012      226.058        0.639        0.072      106.501       14.766        0.019      341.445       16.163      862.310
08/14/2014  03:21:00      -68.215       -9.912       -1.805       19.368       25.632       15.327      375.126      656.983      234.911        0.301        0.063       68.931       13.160        0.036      341.358       16.017      862.300
08/14/2014  03:22:00      -96.967      -12.936       -4.420       30.666       27.535       13.847      940.404      758.180      191.726        0.574        0.095       97.826       15.475        0.025      341.340       15.986      862.283
08/14/2014  03:23:00     -113.578      -48.261       -4.463       29.691       20.911       15.918      881.576      437.260      253.379        0.841        0.079      123.407       14.134        0.013      341.405       16.094      862.274
08/14/2014  03:24:00      -88.989      -50.067       -1.909       32.114       27.438       18.802     1031.341      752.818      353.520        0.628        0.107      102.107       16.386        0.026      341.397       16.081      862.275
08/14/2014  03:25:00     -102.038      -38.955       -3.094       40.840       27.372       22.965     1667.929      749.239      527.374        0.744        0.147      109.221       23.822        0.048      341.340       15.985      862.281
08/14/2014  03:26:00      -94.419        9.552       -8.837       33.144       24.113       17.807     1098.517      581.427      317.084        0.554        0.100       94.901       13.986        0.022      341.245       15.823      862.280
08/14/2014  03:27:00      -73.794        0.164       -4.483       26.251       20.243       13.282      689.115      409.773      176.420        0.337        0.064       73.794       13.241        0.032      341.185       15.723      862.278
08/14/2014  03:28:00      -89.806       -8.774       -7.000       18.889       16.630       11.381      356.782      276.548      129.519        0.448        0.038       90.233        7.419        0.007      341.249       15.831      862.266
08/14/2014  03:29:00      -82.607      -13.713       -8.882       18.880       17.255       13.192      356.459      297.733      174.021        0.396        0.041       83.737        9.465        0.013      341.314       15.942      862.264
08/14/2014  03:30:00      -99.333      -27.157       -5.973       16.007       18.951       12.234      256.235      359.131      149.679        0.570        0.038      102.979        7.105        0.005      341.350       16.002      862.261
08/14/2014  03:31:00      -90.624        0.627       -1.298       34.538       19.921       20.416     1192.846      396.846      416.799        0.511        0.100       90.626       19.985        0.049      341.218       15.778      862.260
08/14/2014  03:32:00      -96.844        6.793      -10.546       28.988       31.742       17.751      840.325     1007.582      315.113        0.585        0.108       97.082       14.616        0.023      341.149       15.663      862.251
08/14/2014  03:33:00      -86.487       17.533       -1.931       29.762       25.438       19.532      885.786      647.071      381.491        0.485        0.096       88.247       15.918        0.033      341.106       15.589      862.251
08/14/2014  03:34:00      -86.318       13.219       -7.641       29.095       17.584       11.416      846.530      309.197      130.319        0.448        0.064       87.324        4.638        0.003      341.113       15.600      862.235
08/14/2014  03:35:00      -60.183       16.200      -11.344       18.426       23.200       11.509      339.503      538.238      132.450        0.251        0.051       62.325       11.224        0.032      341.171       15.697      862.227
08/14/2014  03:36:00      -74.840        1.727      -13.085       12.952       19.626       11.431      167.764      385.178      130.671        0.323        0.034       74.860        7.517        0.010      341.283       15.889      862.223
08/14/2014  03:37:00      -94.590      -53.749      -11.669       16.585       11.703       11.463      275.066      136.962      131.391        0.626        0.027      108.794        8.192        0.006      341.291       15.901      862.234
08/14/2014  03:38:00     -106.228      -59.099        0.077       26.616       15.633       16.561      708.399      244.390      274.259        0.800        0.061      121.561       14.001        0.013      341.250       15.833      862.248
08/14/2014  03:39:00     -105.742      -42.208       -6.494       27.112       22.752       13.398      735.051      517.668      179.505        0.722        0.072      113.855       13.322        0.014      341.280       15.885      862.254
08/14/2014  03:40:00      -61.626      -18.028       -3.300       22.360       18.875       10.777      499.954      356.250      116.133        0.255        0.049       64.208        8.584        0.018      341.184       15.721      862.257
08/14/2014  03:41:00      -47.682      -11.743       -3.674       17.788       13.647        9.727      316.427      186.232       94.611        0.151        0.030       49.107       10.453        0.045      341.127       15.625      862.249
08/14/2014  03:42:00      -28.863        0.522       -0.771       20.660       12.101        9.945      426.830      146.431       98.908        0.075        0.034       28.868        8.752        0.092      341.061       15.513      862.245
08/14/2014  03:43:00      -51.488      -12.234       -6.482       14.616       12.878        9.151      213.628      165.850       83.737        0.165        0.023       52.922        6.490        0.015      341.281       15.885      862.244
08/14/2014  03:44:00      -53.050      -29.225       -2.130       22.415       12.319       10.310      502.444      151.770      106.286        0.222        0.038       60.567       10.301        0.029      341.229       15.796      862.255
08/14/2014  03:45:00      -72.533      -48.320       -7.130       19.509       12.322       10.558      380.584      151.841      111.480        0.415        0.032       87.154        9.910        0.013      341.162       15.682      862.264
08/14/2014  03:46:00      -90.172      -48.644       -9.917       19.415       12.319        9.898      376.943      151.765       97.970        0.561        0.031      102.455        5.971        0.003      341.089       15.561      862.259
08/14/2014  03:47:00      -58.320      -24.780        4.886       29.186       24.686       17.832      851.804      609.376      317.964        0.291        0.089       63.366       16.928        0.071      340.963       15.346      862.239
08/14/2014  03:48:00     -113.122      -13.238      -14.790       23.749       12.295       12.544      563.999      151.163      157.358        0.703        0.044      113.894       11.726        0.011      340.947       15.318      862.217
08/14/2014  03:49:00     -117.131        3.389      -18.957       29.646       15.485       12.111      878.886      239.789      146.676        0.768        0.063      117.180        9.874        0.007      340.857       15.168      862.205
08/14/2014  03:50:00      -76.020       23.185      -18.010       24.981       33.633       17.270      624.073     1131.175      298.253        0.435        0.103       79.477       16.096        0.041      340.894       15.229      862.178
08/14/2014  03:51:00      -89.605       33.756      -12.531       28.475       26.964       18.407      810.828      727.077      338.830        0.560        0.094       95.752       13.796        0.021      341.098       15.575      862.153
08/14/2014  03:52:00     -116.126       53.160      -18.548       33.689       38.425       29.118     1134.941     1476.479      847.853        1.006        0.173      127.715       25.944        0.041      341.274       15.874      862.149
08/14/2014  03:53:00     -108.487      -18.766      -11.038       29.400       28.243       22.378      864.338      797.670      500.758        0.720        0.108      110.098       12.459        0.013      341.082       15.549      862.150
08/14/2014  03:54:00     -107.081      -26.535       -6.162       26.211       26.874       14.133      687.003      722.197      199.733        0.691        0.080      110.320       10.238        0.009      340.856       15.167      862.171
08/14/2014  03:55:00     -109.175      -30.104       -6.956       29.940       24.731       13.928      896.417      611.641      193.985        0.729        0.085      113.249       11.149        0.010      340.766       15.014      862.183
08/14/2014  03:56:00     -125.095       -4.938      -10.355       44.550       26.340       23.423     1984.717      693.817      548.634        0.950        0.161      125.192       24.605        0.039      340.745       14.978      862.189
08/14/2014  03:57:00     -112.998       13.975      -12.045       31.535       26.789       16.151      994.439      717.655      260.851        0.754        0.099      113.859       14.591        0.016      340.804       15.077      862.198
08/14/2014  03:58:00     -108.008       12.308      -13.883       16.598       18.649       12.002      275.480      347.797      144.044        0.639        0.038      108.707        9.221        0.007      340.910       15.256      862.194
08/14/2014  03:59:00      -91.741       22.448      -10.736       27.126       18.589       15.160      735.825      345.535      229.840        0.517        0.066       94.447       10.372        0.012      341.124       15.619      862.191
08/14/2014  04:00:00      -97.406       61.953      -20.304       30.616       30.709       20.001      937.365      943.026      400.027        0.801        0.114      115.438       21.794        0.036      341.207       15.759      862.203
08/14/2014  04:01:00      -79.464       61.416      -11.821       33.638       36.965       21.729     1131.490     1366.418      472.138        0.660        0.149      100.431       25.169        0.063      341.219       15.780      862.223
08/14/2014  04:02:00      -71.937       55.966      -17.305       24.562       24.802       16.721      603.312      615.151      279.595        0.505        0.075       91.143       16.304        0.032      341.187       15.727      862.222
08/14/2014  04:03:00      -77.829       72.903      -23.224       17.410       19.171       10.127      303.117      367.524      102.554        0.634        0.039      106.640        8.380        0.006      341.186       15.724      862.210
08/14/2014  04:04:00      -67.331       37.347      -15.426       21.281       23.876       13.666      452.862      570.079      186.769        0.369        0.060       76.995        8.925        0.013      341.139       15.644      862.208
08/14/2014  04:05:00      -57.657      -15.764      -10.908       14.230       16.084       13.024      202.491      258.699      169.615        0.216        0.032       59.773       10.416        0.030      340.912       15.260      862.198
08/14/2014  04:06:00      -90.045      -17.984      -15.868       14.076       19.300       10.895      198.136      372.507      118.700        0.469        0.034       91.823        5.182        0.003      340.883       15.211      862.196
08/14/2014  04:07:00      -97.147      -19.875       -7.137       39.749       26.423       15.152     1579.962      698.172      229.581        0.620        0.125       99.159       14.239        0.021      340.822       15.107      862.196
08/14/2014  04:08:00     -116.691       -5.798       -8.827       50.185       21.676       20.332     2518.515      469.845      413.395        0.856        0.170      116.835       22.798        0.038      340.775       15.027      862.198
08/14/2014  04:09:00     -134.422       10.410      -11.218       31.417       25.841       19.314      987.007      667.759      373.013        1.017        0.101      134.825       15.286        0.013      340.846       15.150      862.185
08/14/2014  04:10:00     -142.686       24.383      -16.079       14.993       21.431       14.461      224.793      459.287      209.118        1.105        0.045      144.755        7.480        0.003      340.921       15.275      862.177
08/14/2014  04:11:00     -135.554       -4.256      -16.598       24.879       17.745       15.593      618.958      314.884      243.146        0.992        0.059      135.620       12.617        0.009      340.817       15.100      862.191
08/14/2014  04:12:00     -123.076       -5.839      -17.217       31.580       23.899       13.439      997.271      571.180      180.606        0.861        0.087      123.215        8.583        0.005      340.806       15.082      862.202
08/14/2014  04:13:00     -100.995        0.772      -14.072       16.065       22.502       11.818      258.089      506.330      139.668        0.565        0.045      100.998        5.832        0.003      340.796       15.064      862.209
08/14/2014  04:14:00     -113.288       -3.276       -9.788       24.030       22.579       15.344      577.421      509.803      235.442        0.713        0.066      113.335       10.750        0.009      340.834       15.128      862.216
08/14/2014  04:15:00     -113.640      -17.359       -6.753       40.076       25.410       15.466     1606.099      645.677      239.189        0.788        0.125      114.958       14.338        0.016      340.793       15.058      862.231
08/14/2014  04:16:00     -123.376        0.714      -19.966       30.901       25.324       19.570      954.855      641.315      382.998        0.880        0.099      123.379       16.515        0.018      340.826       15.115      862.223
08/14/2014  04:17:00     -107.433        5.764      -16.833       22.602       20.298       14.073      510.864      411.989      198.062        0.649        0.056      107.588       10.591        0.010      340.801       15.073      862.216
08/14/2014  04:18:00     -123.016       -3.423      -11.369       30.099       25.632       19.216      905.956      656.979      369.244        0.860        0.097      123.063       15.458        0.016      340.863       15.178      862.209
08/14/2014  04:19:00     -105.516       11.102       -4.109       32.813       29.995       22.239     1076.718      899.674      494.584        0.687        0.124      106.099       20.470        0.037      340.836       15.131      862.195
08/14/2014  04:20:00     -121.567      -11.028      -11.041       27.762       30.302       18.515      770.739      918.241      342.824        0.853        0.102      122.066       17.167        0.020      340.901       15.241      862.186
08/14/2014  04:21:00     -113.965      -18.031      -11.213       24.213       33.381       16.579      586.281     1114.298      274.848        0.771        0.099      115.383       10.757        0.009      340.836       15.133      862.186
08/14/2014  04:22:00     -114.456        2.048       -9.449       32.503       31.351       24.663     1056.477      982.913      608.271        0.792        0.132      114.474       16.144        0.020      340.817       15.100      862.193
08/14/2014  04:23:00     -106.121       -7.441       -3.481       30.854       24.373       18.104      951.965      594.034      327.739        0.660        0.094      106.381       16.401        0.024      340.789       15.052      862.189
08/14/2014  04:24:00     -121.770       -3.604      -12.841       25.188       16.783       13.634      634.414      281.679      185.897        0.805        0.055      121.823       12.485        0.011      340.767       15.015      862.192
08/14/2014  04:25:00      -80.283      -17.084       -7.056       31.051       25.825       21.793      964.159      666.927      474.941        0.445        0.105       82.081       21.461        0.068      340.813       15.094      862.202
08/14/2014  04:26:00      -76.465      -45.031       -6.206       32.292       28.576       21.135     1042.797      816.595      446.708        0.511        0.115       88.739       12.485        0.020      340.860       15.171      862.203
08/14/2014  04:27:00     -105.429      -22.012      -11.615       25.944       28.196       14.608      673.096      795.013      213.382        0.671        0.084      107.703        9.144        0.007      340.810       15.089      862.203
08/14/2014  04:28:00     -107.282      -10.793      -14.660       18.476       21.299       13.220      341.351      453.655      174.765        0.641        0.048      107.824        7.457        0.005      340.810       15.086      862.203
08/14/2014  04:29:00     -104.752      -23.106       -6.061       22.229       31.736       19.280      494.113     1007.202      371.724        0.671        0.094      107.270       11.054        0.011      340.787       15.049      862.194
08/14/2014  04:30:00     -120.494      -20.129      -12.532       25.469       21.279       17.208      648.683      452.797      296.112        0.824        0.070      122.164        9.880        0.007      340.831       15.123      862.187
08/14/2014  04:31:00     -103.535      -21.017       -3.069       30.995       26.626       20.011      960.694      708.936      400.430        0.662        0.104      105.646       20.225        0.037      340.786       15.047      862.194
08/14/2014  04:32:00     -123.004       -8.040      -13.424       20.627       17.697       14.689      425.456      313.181      215.781        0.816        0.048      123.267        9.746        0.006      340.809       15.088      862.204
08/14/2014  04:33:00      -90.181      -27.640       -6.099       17.703       23.054       11.255      313.399      531.475      126.679        0.495        0.049       94.321        6.397        0.005      340.833       15.127      862.212
08/14/2014  04:34:00      -76.611      -34.831       -2.430       30.363       33.509       13.465      921.907     1122.835      181.300        0.466        0.111       84.158       13.542        0.026      340.806       15.080      862.215
08/14/2014  04:35:00      -83.211      -39.804      -11.291       14.607       17.441       13.930      213.376      304.177      194.041        0.467        0.036       92.241        8.315        0.008      340.843       15.143      862.215
08/14/2014  04:36:00      -85.232       -7.899       -1.322       41.176       27.334       18.399     1695.442      747.136      338.512        0.505        0.139       85.598       18.272        0.046      340.772       15.025      862.220
08/14/2014  04:37:00     -122.786        5.458      -12.290       44.448       29.452       19.853     1975.627      867.415      394.154        0.925        0.162      122.908       24.265        0.039      340.771       15.022      862.213
08/14/2014  04:38:00     -105.259      -13.389       -4.394       39.806       26.694       20.378     1584.499      712.595      415.269        0.699        0.136      106.107       22.068        0.043      340.742       14.973      862.204
08/14/2014  04:39:00     -105.704      -17.211      -14.042       32.207       25.768       14.535     1037.317      663.970      211.278        0.679        0.096      107.096       13.820        0.017      340.738       14.965      862.199
08/14/2014  04:40:00      -75.584      -40.001       -3.908       26.267       19.195       13.795      689.964      368.453      190.289        0.429        0.062       85.516       12.794        0.022      340.710       14.920      862.197
08/14/2014  04:41:00     -129.881      -38.947       -7.285       21.426       21.709       17.719      459.089      471.289      313.951        0.984        0.062      135.595       11.095        0.007      340.770       15.020      862.196
08/14/2014  04:42:00     -110.634      -24.814       -7.841       30.778       28.616       16.568      947.308      818.871      274.491        0.748        0.102      113.383       13.848        0.015      340.779       15.036      862.188
08/14/2014  04:43:00     -106.597      -28.840       -8.183       16.870       13.899        9.918      284.610      193.177       98.361        0.642        0.029      110.429        4.820        0.002      340.743       14.975      862.174
08/14/2014  04:44:00     -111.115      -26.118       -9.212       19.262       25.332       13.498      371.033      641.733      182.209        0.715        0.060      114.143        7.593        0.004      340.786       15.047      862.158
08/14/2014  04:45:00     -106.831      -20.175      -21.880       20.888       16.739       14.421      436.318      280.206      207.978        0.661        0.046      108.719        7.501        0.005      340.776       15.030      862.156
08/14/2014  04:46:00      -90.180       -1.354       -4.614       16.550       17.284       15.224      273.888      298.723      231.766        0.448        0.040       90.191       10.431        0.013      340.767       15.015      862.152
08/14/2014  04:47:00      -56.172      -14.574        0.086       16.945       17.401       15.170      287.134      302.783      230.141        0.209        0.041       58.032       11.567        0.040      340.718       14.931      862.139
08/14/2014  04:48:00      -86.460       -7.961       -6.406       28.505       15.622       13.726      812.563      244.036      188.401        0.441        0.062       86.825       14.204        0.027      340.761       15.005      862.126
08/14/2014  04:49:00      -82.946       -8.990       -3.650       23.697       16.209       13.300      561.557      262.719      176.892        0.399        0.050       83.432       12.869        0.024      340.779       15.035      862.119
08/14/2014  04:50:00      -66.722      -25.307       -6.366       14.701       15.077       10.016      216.117      227.304      100.320        0.284        0.027       71.360        6.352        0.008      340.873       15.193      862.105
08/14/2014  04:51:00      -87.211      -37.055       -8.270       16.729       12.735       10.216      279.862      162.186      104.370        0.480        0.027       94.756        9.687        0.010      340.842       15.143      862.103
08/14/2014  04:52:00      -82.135      -17.960       -3.737       28.180       15.167       15.244      794.122      230.049      232.391        0.417        0.063       84.076       10.324        0.015      340.856       15.165      862.102
08/14/2014  04:53:00      -35.127      -40.037        5.861       34.371       18.938       14.369     1181.367      358.646      206.478        0.231        0.087       53.262       15.903        0.089      340.910       15.256      862.111
08/14/2014  04:54:00      -41.187      -35.704       -2.462       17.777       21.051        9.585      316.033      443.142       91.863        0.191        0.043       54.508        7.071        0.017      340.916       15.268      862.098
08/14/2014  04:55:00      -57.825      -32.807       -5.421       18.235       15.120       12.053      332.498      228.605      145.282        0.258        0.035       66.484        7.381        0.012      340.887       15.219      862.089
08/14/2014  04:56:00      -45.282      -75.035        0.938       33.717       31.937       18.395     1136.820     1019.956      338.380        0.509        0.125       87.640       17.145        0.038      340.842       15.140      862.075
08/14/2014  04:57:00      -53.028      -85.828       -9.795       25.958       19.844       15.240      673.799      393.802      232.263        0.579        0.065      100.888       12.988        0.017      340.794       15.060      862.066
08/14/2014  04:58:00      -62.176      -52.444        0.553       25.441       22.107       20.007      647.240      488.736      400.293        0.408        0.077       81.340       16.074        0.039      340.701       14.902      862.071
08/14/2014  04:59:00      -86.502     -103.611       -4.645       38.175       42.466       22.368     1457.323     1803.382      500.343        1.100        0.188      134.973       26.061        0.037      340.719       14.936      862.076
08/14/2014  05:00:00     -110.152     -128.539       -8.359       30.869       36.345       18.757      952.900     1320.959      351.823        1.568        0.131      169.281       14.298        0.007      340.654       14.825      862.092
08/14/2014  05:01:00     -123.691     -120.401       -5.527       33.761       43.958       21.703     1139.792     1932.327      471.002        1.668        0.177      172.615       17.356        0.010      340.586       14.707      862.087
08/14/2014  05:02:00     -134.966      -69.655       -4.909       62.728       47.835       28.731     3934.748     2288.197      825.451        1.507        0.352      151.881       26.485        0.030      340.519       14.595      862.069
08/14/2014  05:03:00     -162.904      -94.297       -5.412       49.827       44.283       32.553     2482.711     1961.023     1059.718        2.048        0.275      188.227       27.970        0.022      340.546       14.641      862.050
08/14/2014  05:04:00     -134.022      -97.193       -8.897       58.261       45.397       26.954     3394.401     2060.924      726.526        1.683        0.309      165.555       22.396        0.018      340.590       14.715      862.026
08/14/2014  05:05:00      -78.443      -72.113        3.658       59.634       41.983       31.744     3556.204     1762.612     1007.669        0.885        0.316      106.553       36.016        0.114      340.540       14.632      862.012
08/14/2014  05:06:00     -106.708      -98.080        1.606       57.139       48.903       24.489     3264.919     2391.523      599.721        1.363        0.313      144.935       32.305        0.050      340.557       14.659      861.997
08/14/2014  05:07:00     -118.694     -100.661       -2.760       47.780       37.706       29.961     2282.907     1421.729      897.674        1.441        0.230      155.631       29.390        0.036      340.494       14.555      861.999
08/14/2014  05:08:00     -107.772      -92.413       -3.721       31.250       32.941       18.697      976.569     1085.105      349.582        1.129        0.121      141.969       12.175        0.007      340.494       14.551      862.008
08/14/2014  05:09:00      -83.720     -101.435       -8.905       32.214       33.505       19.120     1037.753     1122.577      365.569        0.995        0.126      131.522       13.154        0.010      340.462       14.497      862.008
08/14/2014  05:10:00      -85.757      -98.191       -2.812       36.673       29.982       22.265     1344.929      898.919      495.712        0.987        0.137      130.368       23.589        0.033      340.476       14.520      862.004
08/14/2014  05:11:00      -75.903      -56.007       -1.565       39.440       20.568       20.976     1555.513      423.055      439.988        0.566        0.121       94.329       19.781        0.044      340.460       14.494      862.013
08/14/2014  05:12:00      -92.570      -73.881       -0.170       46.619       43.461       23.127     2173.370     1888.831      534.851        0.931        0.230      118.438       22.062        0.035      340.459       14.493      862.020
08/14/2014  05:13:00     -108.033      -70.270        2.163       38.940       35.087       23.251     1516.355     1231.098      540.604        0.995        0.164      128.876       20.012        0.024      340.441       14.464      862.026
08/14/2014  05:14:00     -120.652      -71.998       -9.681       31.244       41.567       20.457      976.215     1727.851      418.483        1.148        0.156      140.502       12.087        0.007      340.465       14.502      862.020
08/14/2014  05:15:00      -82.253      -47.809        5.668       60.709       31.630       20.522     3685.558     1000.447      421.139        0.709        0.255       95.139       27.991        0.087      340.435       14.451      862.025
08/14/2014  05:16:00      -90.269      -41.541       -3.585       26.766       23.049       12.626      716.421      531.275      159.417        0.565        0.070       99.368        9.821        0.010      340.502       14.567      862.041
08/14/2014  05:17:00      -83.476      -72.209       -7.415       21.267       22.533       12.201      452.265      507.734      148.861        0.667        0.055      110.374        7.355        0.004      340.497       14.553      862.045
08/14/2014  05:18:00      -17.442      -65.767       -2.553       27.906       25.128       20.680      778.751      631.393      427.643        0.324        0.092       68.041       17.290        0.065      340.562       14.668      862.043
08/14/2014  05:19:00      -47.777      -88.420       -1.555       23.911       29.566       15.242      571.750      874.156      232.314        0.589        0.084      100.503        9.460        0.009      340.573       14.686      862.039
08/14/2014  05:20:00      -70.929      -55.273       -4.562       54.792       35.125       23.943     3002.120     1233.781      573.259        0.646        0.240       89.922       26.813        0.089      340.434       14.451      862.042
08/14/2014  05:21:00      -29.733       15.650        1.862       40.400       37.564       32.815     1632.194     1411.080     1076.822        0.263        0.206       33.600       26.956        0.644      340.376       14.355      862.025
08/14/2014  05:22:00      -65.554       11.726        1.094       36.473       27.569       26.903     1330.265      760.032      723.773        0.362        0.141       66.594       16.016        0.058      340.279       14.190      862.009
08/14/2014  05:23:00      -76.164      -13.627       -1.954       26.085       22.172       15.799      680.410      491.593      249.624        0.371        0.071       77.373       10.707        0.019      340.205       14.064      862.019
08/14/2014  05:24:00     -104.130      -17.841       -6.955       34.978       35.292       18.566     1223.491     1245.512      344.681        0.701        0.141      105.648       18.384        0.030      340.258       14.155      862.037
08/14/2014  05:25:00      -66.313       -7.918        2.601       30.563       29.483       17.343      934.068      869.250      300.763        0.329        0.105       66.784       15.478        0.054      340.245       14.131      862.048
08/14/2014  05:26:00      -69.901       -5.829       -3.967       33.812       26.349       23.363     1143.265      694.254      545.824        0.366        0.119       70.143       12.457        0.032      340.267       14.170      862.036
08/14/2014  05:27:00      -66.568       -2.344      -10.479       18.010       22.294       15.540      324.354      497.003      241.491        0.280        0.053       66.610       13.391        0.040      340.324       14.266      862.024
08/14/2014  05:28:00      -69.680      -27.956        4.081       33.652       25.884       18.983     1132.445      669.977      360.368        0.391        0.108       75.079       14.692        0.038      340.290       14.208      862.030
08/14/2014  05:29:00      -76.833      -44.912        4.724       35.757       22.562       22.865     1278.581      509.061      522.825        0.513        0.116       88.997       22.388        0.063      340.339       14.291      862.045
08/14/2014  05:30:00      -69.820      -44.180        4.772       58.724       36.410       25.495     3448.544     1325.675      650.013        0.614        0.271       82.624       32.311        0.153      340.288       14.204      862.057
08/14/2014  05:31:00      -81.836      -75.731        3.133       54.799       45.346       28.350     3002.922     2056.224      803.712        0.915        0.293      111.500       18.995        0.029      340.279       14.189      862.058
08/14/2014  05:32:00     -122.909      -69.571       -3.186       40.659       46.778       26.817     1653.121     2188.145      719.157        1.226        0.228      141.233       24.562        0.030      340.215       14.082      862.039
08/14/2014  05:33:00      -69.325      -67.151        4.035       63.176       48.502       23.987     3991.219     2352.467      575.387        0.812        0.346       96.516       31.186        0.104      340.255       14.150      862.028
08/14/2014  05:34:00     -102.480      -58.564       -1.057       37.064       33.425       21.095     1373.734     1117.263      445.015        0.843        0.147      118.034       17.297        0.021      340.199       14.054      862.026
08/14/2014  05:35:00      -79.912      -28.487      -15.634       43.013       19.343       13.484     1850.089      374.161      181.824        0.492        0.120       84.838       10.656        0.016      340.231       14.109      862.043
08/14/2014  05:36:00      -80.497      -59.906       -9.706       20.765       24.000       12.480      431.204      575.993      155.753        0.566        0.058      100.342        8.545        0.007      340.245       14.131      862.063
08/14/2014  05:37:00      -62.673      -66.040       -0.035       39.996       33.765       21.560     1599.665     1140.092      464.843        0.575        0.160       91.045       19.664        0.047      340.274       14.182      862.080
08/14/2014  05:38:00      -90.295      -94.596        2.911       51.291       36.489       26.878     2630.740     1331.418      722.413        1.090        0.234      130.773       29.063        0.049      340.252       14.144      862.098
08/14/2014  05:39:00     -167.048     -111.404       -3.961       57.304       66.877       34.492     3283.724     4472.467     1189.702        2.464        0.447      200.788       31.088        0.024      340.156       13.981      862.106
08/14/2014  05:40:00     -144.148      -76.198       -0.553       83.077       48.352       39.991     6901.758     2337.904     1599.286        1.871        0.542      163.049       43.176        0.070      340.160       13.988      862.117
08/14/2014  05:41:00     -125.409      -51.049        2.415       61.378       44.529       27.435     3767.288     1982.847      752.673        1.242        0.325      135.401       27.697        0.042      340.223       14.094      862.111
08/14/2014  05:42:00      -97.748      -20.919       -3.625       55.794       46.412       26.496     3112.996     2154.050      702.048        0.799        0.298       99.961       28.090        0.079      340.167       14.001      862.113
08/14/2014  05:43:00     -102.773       -3.927       -1.867       41.239       31.514       28.125     1700.669      993.104      791.038        0.703        0.174      102.848       26.831        0.068      340.105       13.895      862.108
08/14/2014  05:44:00      -67.843      -31.137       -4.366       34.619       30.739       19.496     1198.468      944.897      380.099        0.406        0.126       74.647       15.550        0.043      340.171       14.007      862.104
08/14/2014  05:45:00      -68.643      -42.060       -0.705       33.112       21.540       17.783     1096.383      463.953      316.243        0.418        0.094       80.504       11.793        0.021      340.225       14.097      862.125
08/14/2014  05:46:00      -43.850      -65.877       -3.793       35.198       25.617       12.837     1238.902      656.236      164.796        0.417        0.103       79.136       13.242        0.028      340.340       14.292      862.136
08/14/2014  05:47:00     -107.052      -25.814       -9.963       44.655       41.939       14.966     1994.031     1758.864      223.970        0.810        0.199      110.120       13.280        0.015      340.353       14.316      862.116
08/14/2014  05:48:00      -82.504      -12.509       -1.213       38.313       31.564       21.995     1467.922      996.260      483.769        0.496        0.147       83.446       21.496        0.066      340.336       14.286      862.099
08/14/2014  05:49:00      -86.605      -43.440       -0.872       43.840       37.966       24.074     1921.929     1441.419      579.570        0.666        0.197       96.889       26.763        0.076      340.235       14.116      862.087
08/14/2014  05:50:00      -89.564      -29.638       -6.382       29.244       27.656       18.833      855.210      764.872      354.684        0.546        0.099       94.341       10.028        0.011      340.178       14.018      862.085
08/14/2014  05:51:00      -85.193      -13.151       -3.221       29.215       21.819       22.847      853.535      476.049      521.983        0.465        0.093       86.202       12.127        0.020      340.234       14.113      862.086
08/14/2014  05:52:00      -37.014       -5.952        3.394       41.997       17.804       15.299     1763.714      316.969      234.052        0.187        0.116       37.489       10.122        0.073      340.151       13.974      862.082
08/14/2014  05:53:00      -62.480      -24.857        4.396       33.963       30.508       17.618     1153.519      930.768      310.386        0.347        0.120       67.243       12.974        0.037      340.236       14.117      862.087
08/14/2014  05:54:00     -119.082      -70.121        1.997       53.462       39.197       22.691     2858.200     1536.402      514.880        1.200        0.245      138.194       24.828        0.032      340.316       14.252      862.081
08/14/2014  05:55:00      -68.723      -81.853        4.279       49.305       30.988       29.836     2431.024      960.256      890.165        0.786        0.214      106.877       25.108        0.055      340.361       14.328      862.090
08/14/2014  05:56:00      -33.745      -56.940        0.513       37.234       39.949       26.584     1386.335     1595.934      706.718        0.403        0.184       66.189       26.347        0.158      340.415       14.419      862.093
08/14/2014  05:57:00      -32.261      -20.190       -7.999       19.184       15.654       12.025      368.021      245.038      144.612        0.113        0.038       38.058        9.058        0.057      340.353       14.315      862.093
08/14/2014  05:58:00      -20.198      -46.939       -2.604       21.114       19.909       17.283      445.810      396.381      298.705        0.188        0.057       51.100       10.521        0.042      340.448       14.473      862.095
08/14/2014  05:59:00       -7.207      -34.585        5.390       19.135       27.955       14.836      366.133      781.500      220.118        0.132        0.068       35.328       11.863        0.113      340.470       14.514      862.105
08/14/2014  06:00:00      -15.473      -55.385        4.806       30.455       43.701       13.263      927.479     1909.764      175.912        0.317        0.151       57.506        9.127        0.025      340.442       14.466      862.113
08/14/2014  06:01:00      -65.357      -34.121       -3.856       44.471       29.552       20.565     1977.669      873.349      422.911        0.436        0.164       73.728       17.819        0.058      340.311       14.244      862.121
08/14/2014  06:02:00      -80.798      -93.398       -5.642       44.316       51.185       26.502     1963.914     2619.862      702.337        1.028        0.264      123.497       21.962        0.032      340.239       14.123      862.137
08/14/2014  06:03:00     -104.049      -89.163       -9.365       49.329       41.442       24.301     2433.354     1717.469      590.527        1.180        0.237      137.027       28.077        0.042      340.143       13.961      862.137
08/14/2014  06:04:00     -111.523      -21.503      -11.820       28.717       27.170       17.555      824.638      738.234      308.171        0.745        0.094      113.577       11.808        0.011      340.121       13.923      862.132
08/14/2014  06:05:00      -74.271      -56.156       -8.513       30.832       23.751       17.586      950.596      564.097      309.274        0.528        0.091       93.112       17.326        0.035      340.168       14.004      862.138
08/14/2014  06:06:00      -83.230      -62.810       -3.185       34.444       26.924       19.317     1186.404      724.907      373.131        0.658        0.114      104.270       13.531        0.017      340.175       14.014      862.152
08/14/2014  06:07:00      -80.512      -60.785        0.036       38.660       29.012       20.666     1494.614      841.689      427.066        0.647        0.138      100.881       16.243        0.026      340.193       14.044      862.164
08/14/2014  06:08:00     -101.646      -74.281        1.724       36.497       32.862       23.531     1332.032     1079.916      553.724        0.941        0.148      125.895       19.156        0.023      340.155       13.982      862.183
08/14/2014  06:09:00      -65.261      -60.884        8.535       65.425       45.153       34.632     4280.394     2038.764     1199.399        0.778        0.376       89.252       36.971        0.172      340.169       14.004      862.203
08/14/2014  06:10:00     -143.700      -78.706        1.155       65.061       87.922       40.410     4232.912     7730.295     1633.002        2.022        0.680      163.842       36.307        0.049      340.099       13.885      862.217
08/14/2014  06:11:00      -65.934      -88.997       -6.785       37.576       55.065       24.570     1411.945     3032.143      603.691        0.868        0.252      110.760        9.004        0.007      340.103       13.893      862.206
08/14/2014  06:12:00      -87.788      -69.088        5.559       47.033       31.359       25.345     2212.070      983.383      642.352        0.817        0.192      111.713       23.521        0.044      340.113       13.908      862.193
08/14/2014  06:13:00      -49.438      -52.402       11.606       38.874       29.257       22.408     1511.172      855.998      502.115        0.410        0.143       72.042       19.679        0.075      340.102       13.891      862.191
08/14/2014  06:14:00      -43.425      -40.266        3.944       33.690       30.671       23.893     1135.027      940.740      570.870        0.308        0.132       59.221       20.276        0.117      340.088       13.868      862.193
08/14/2014  06:15:00      -83.703      -81.902       -0.323       31.323       48.230       21.073      981.120     2326.157      444.075        0.873        0.188      117.107       21.140        0.033      340.057       13.817      862.205
08/14/2014  06:16:00      -94.075      -65.727       -1.662       40.566       33.648       22.353     1645.626     1132.159      499.653        0.822        0.164      114.761       23.257        0.041      340.054       13.810      862.205
08/14/2014  06:17:00      -93.622      -93.183       -5.589       40.784       60.159       26.610     1663.321     3619.066      708.066        1.173        0.300      132.091       22.954        0.030      340.005       13.727      862.217
08/14/2014  06:18:00     -113.576     -118.894       -3.600       37.415       39.601       27.551     1399.870     1568.268      759.032        1.539        0.186      164.425       21.531        0.017      340.006       13.729      862.214
08/14/2014  06:19:00     -136.812     -102.245        2.961       74.746       57.312       39.295     5586.913     3284.667     1544.136        1.980        0.521      170.797       40.988        0.058      339.979       13.682      862.211
08/14/2014  06:20:00     -132.369      -88.042        0.962       54.917       38.891       26.484     3015.915     1512.480      701.418        1.525        0.261      158.975       21.755        0.019      339.985       13.693      862.214
08/14/2014  06:21:00      -84.353      -58.080        0.805       48.098       38.900       26.055     2313.404     1513.222      678.875        0.750        0.225      102.415       24.741        0.058      339.981       13.687      862.218
08/14/2014  06:22:00     -121.828      -32.741        2.927       47.924       50.792       32.540     2296.730     2579.794     1058.830        1.093        0.297      126.150       30.357        0.058      339.942       13.621      862.208
08/14/2014  06:23:00     -148.481      -30.639        3.403       55.461       45.890       28.150     3075.906     2105.889      792.396        1.448        0.299      151.609       27.690        0.033      339.932       13.604      862.200
08/14/2014  06:24:00     -156.967      -45.488       -7.731       60.947       37.540       27.243     3714.589     1409.262      742.197        1.632        0.293      163.425       31.213        0.036      339.885       13.523      862.199
08/14/2014  06:25:00      -93.691      -40.942       -4.278       77.501       32.914       23.142     6006.472     1083.349      535.563        0.905        0.381      102.246       29.565        0.084      339.893       13.537      862.206
08/14/2014  06:26:00      -93.968      -45.313       -7.151       52.626       40.245       18.994     2769.516     1619.698      360.787        0.784        0.238      104.323       22.801        0.048      339.838       13.447      862.224
08/14/2014  06:27:00     -127.625       -9.395       -9.252       35.731       29.535       19.047     1276.695      872.338      362.801        0.949        0.126      127.971       19.662        0.024      339.806       13.393      862.245
08/14/2014  06:28:00     -104.830      -35.395       -4.763       34.027       26.832       22.584     1157.818      719.972      510.043        0.733        0.119      110.645       22.100        0.040      339.823       13.421      862.262
08/14/2014  06:29:00     -125.120      -28.445      -12.150       15.970       20.267       16.567      255.034      410.768      274.462        0.878        0.047      128.312        8.688        0.005      339.810       13.398      862.277
08/14/2014  06:30:00     -139.188      -61.593       -2.094       35.062       25.640       20.206     1229.324      657.435      408.292        1.273        0.115      152.207       19.588        0.017      339.836       13.440      862.281
08/14/2014  06:31:00      -97.647      -57.744       -4.304       40.871       25.566       15.770     1670.406      653.637      248.690        0.773        0.129      113.443       16.914        0.022      339.875       13.509      862.289
08/14/2014  06:32:00      -99.421      -34.739       -6.519       39.897       30.981       17.717     1591.747      959.837      313.891        0.700        0.143      105.315        9.886        0.009      339.875       13.509      862.308
08/14/2014  06:33:00      -98.961      -57.775        0.163       46.302       43.907       23.660     2143.852     1927.867      559.801        0.888        0.232      114.592       25.415        0.049      339.820       13.415      862.330
08/14/2014  06:34:00     -128.234      -68.994        3.589       51.370       33.102       24.575     2638.862     1095.763      603.912        1.278        0.217      145.617       20.752        0.020      339.848       13.462      862.347
08/14/2014  06:35:00     -121.143      -17.854       -4.501       33.368       37.233       23.960     1113.406     1386.316      574.097        0.904        0.154      122.451       20.149        0.027      339.895       13.543      862.357
08/14/2014  06:36:00     -101.856      -65.832       -0.885       43.857       35.647       24.141     1923.425     1270.693      582.774        0.924        0.189      121.279       25.451        0.044      339.959       13.649      862.354
08/14/2014  06:37:00      -56.934      -48.463       -1.656       26.851       21.447       17.075      720.987      459.987      291.558        0.353        0.074       74.768        9.591        0.016      340.017       13.748      862.352
08/14/2014  06:38:00      -76.034      -15.115       -5.666       27.026       36.096       13.859      730.385     1302.897      192.075        0.413        0.111       77.522       13.102        0.029      340.004       13.726      862.359
08/14/2014  06:39:00      -59.632      -11.633       -3.085       16.212       21.372       11.721      262.829      456.781      137.380        0.228        0.043       60.756        8.328        0.019      340.041       13.787      862.363
08/14/2014  06:40:00      -71.192      -32.266       -7.909       14.868       21.942       10.057      221.047      481.461      101.150        0.349        0.040       78.163        7.064        0.008      340.094       13.878      862.362
08/14/2014  06:41:00      -42.618      -27.648        2.202       29.825       20.999       16.046      889.558      440.961      257.484        0.209        0.079       50.800       16.834        0.110      340.101       13.888      862.366
08/14/2014  06:42:00      -96.446      -41.124       -4.590       38.180       30.111       16.716     1457.740      906.699      279.431        0.683        0.132      104.847       15.286        0.021      340.156       13.983      862.367
08/14/2014  06:43:00      -63.359      -29.606       -2.556       31.150       27.874       12.840      970.291      776.942      164.865        0.340        0.096       69.935       12.908        0.034      340.204       14.064      862.363
08/14/2014  06:44:00      -75.470      -27.861       -6.258       39.101       27.383       16.670     1528.878      749.853      277.887        0.453        0.128       80.448       21.904        0.074      340.269       14.173      862.353
08/14/2014  06:45:00      -81.651      -46.108       -0.996       24.714       18.209       14.234      610.804      331.554      202.616        0.497        0.057       93.770       12.957        0.019      340.296       14.217      862.363
08/14/2014  06:46:00      -36.240      -30.920        5.774       41.780       23.314       12.851     1745.580      543.523      165.160        0.238        0.123       47.638       17.046        0.128      340.365       14.335      862.372
08/14/2014  06:47:00      -12.757      -18.284       12.706       17.322       17.208       12.228      300.046      296.127      149.531        0.070        0.037       22.295       11.070        0.247      340.479       14.527      862.368
08/14/2014  06:48:00      -27.887      -22.755       -0.578       17.763       16.694       10.676      315.522      278.694      113.971        0.100        0.035       35.992       12.198        0.115      340.557       14.660      862.360
08/14/2014  06:49:00      -29.728      -21.037        0.982       21.404       15.041       10.297      458.142      226.246      106.026        0.106        0.040       36.419        6.881        0.036      340.590       14.715      862.362
08/14/2014  06:50:00      -50.238      -38.304        2.357       35.847       28.455       20.728     1285.036      809.705      429.670        0.326        0.126       63.174       24.229        0.147      340.482       14.532      862.360
08/14/2014  06:51:00      -55.334      -28.320       -3.710       29.669       14.044       15.562      880.221      197.225      242.163        0.260        0.066       62.160       16.952        0.074      340.422       14.431      862.345
08/14/2014  06:52:00      -42.865      -19.671        4.608       23.493       19.544       10.464      551.936      381.966      109.504        0.164        0.052       47.163       10.020        0.045      340.492       14.551      862.351
08/14/2014  06:53:00       -7.647      -17.018        6.152       19.191       14.246        8.723      368.282      202.962       76.098        0.052        0.032       18.657        7.926        0.180      340.618       14.763      862.368
08/14/2014  06:54:00      -25.722      -33.140        7.551       27.421       23.731       17.233      751.916      563.160      296.982        0.171        0.081       41.951       13.355        0.101      340.584       14.705      862.386
08/14/2014  06:55:00      -58.841      -61.048       -1.392       32.684       23.605       20.065     1068.237      557.183      402.605        0.461        0.101       84.789       19.773        0.054      340.503       14.566      862.402
08/14/2014  06:56:00      -69.660      -57.506        1.729       27.844       23.134       15.094      775.285      535.161      227.826        0.485        0.077       90.330       14.826        0.027      340.469       14.510      862.406
08/14/2014  06:57:00      -63.807      -48.949        5.294       22.152       27.816       14.836      490.729      773.722      220.095        0.399        0.074       80.419       11.010        0.019      340.459       14.495      862.417
08/14/2014  06:58:00      -52.524      -43.608       -2.654       27.202       18.984       12.661      739.941      360.403      160.308        0.296        0.063       68.267        9.308        0.019      340.522       14.599      862.413
08/14/2014  06:59:00      -15.817      -18.476       10.820       26.105       18.055       20.676      681.452      325.991      427.488        0.107        0.072       24.321       14.226        0.342      340.659       14.833      862.418
08/14/2014  07:00:00      -20.498      -34.771        8.261       28.080       25.721       17.188      788.502      661.556      295.418        0.172        0.087       40.363       14.481        0.129      340.649       14.817      862.423
08/14/2014  07:01:00      -45.841      -44.430        3.878       26.865       37.072       21.595      721.748     1374.357      466.333        0.333        0.128       63.839       22.151        0.120      340.566       14.676      862.428
08/14/2014  07:02:00      -27.551      -23.178       14.041       30.636       21.500       18.648      938.573      462.263      347.757        0.162        0.087       36.004       17.535        0.237      340.648       14.814      862.430
08/14/2014  07:03:00      -14.971      -60.416       -2.235       20.946       19.412       13.338      438.755      376.839      177.899        0.244        0.050       62.243       10.724        0.030      340.611       14.750      862.442
08/14/2014  07:04:00      -27.205      -74.271       -0.802       25.712       17.921       16.367      661.101      321.145      267.882        0.375        0.063       79.097       13.194        0.028      340.573       14.688      862.448
08/14/2014  07:05:00      -85.789      -63.303      -14.717       23.188       16.774       12.011      537.699      281.373      144.265        0.627        0.048      106.617        6.615        0.004      340.574       14.689      862.451
08/14/2014  07:06:00      -56.212      -49.055        4.696       33.364       24.673       18.647     1113.178      608.740      347.695        0.383        0.103       74.607       14.368        0.037      340.561       14.666      862.455
08/14/2014  07:07:00      -67.828      -58.516        1.050       30.158       28.369       17.870      909.525      804.778      319.319        0.503        0.102       89.581       20.633        0.053      340.610       14.749      862.456
08/14/2014  07:08:00      -52.456      -20.345        0.291       25.468       18.490       10.894      648.614      341.885      118.680        0.214        0.055       56.263       10.885        0.037      340.631       14.785      862.458
08/14/2014  07:09:00      -50.191      -13.886       -1.172       18.363       17.049        8.555      337.215      290.662       73.186        0.171        0.035       52.076        8.615        0.027      340.657       14.831      862.461
08/14/2014  07:10:00      -18.330      -37.603        5.503       21.835       10.336       10.332      476.774      106.828      106.751        0.124        0.035       41.833        5.984        0.020      340.779       15.033      862.461
08/14/2014  07:11:00      -12.314      -17.811        1.268       14.202       13.586        7.203      201.696      184.588       51.883        0.045        0.022       21.653        8.481        0.153      340.846       15.149      862.455
08/14/2014  07:12:00      -48.262        2.959        0.048       25.569       19.560       12.777      653.787      382.613      163.247        0.177        0.060       48.352       14.295        0.087      340.852       15.158      862.452
08/14/2014  07:13:00      -55.368       -2.782       -4.732       10.728       14.143        8.179      115.085      200.024       66.890        0.174        0.019       55.438        7.219        0.017      340.762       15.006      862.459
08/14/2014  07:14:00      -52.583       -2.254       -3.628       10.392        4.437        4.887      107.999       19.686       23.882        0.147        0.008       52.631        2.989        0.003      340.784       15.043      862.454
08/14/2014  07:15:00      -28.475       -7.087       -1.617       12.103        9.806        5.152      146.475       96.156       26.543        0.057        0.013       29.343        5.842        0.040      340.845       15.147      862.465
08/14/2014  07:16:00      -35.818      -11.306       -0.154       11.977       10.180        7.599      143.460      103.633       57.744        0.086        0.015       37.560        6.050        0.026      340.920       15.274      862.482
08/14/2014  07:17:00      -50.995       -7.544       -2.617       13.979        9.651        6.334      195.422       93.137       40.122        0.150        0.016       51.550        6.577        0.016      340.941       15.308      862.495
08/14/2014  07:18:00      -54.700      -12.159       -5.887        9.620        8.339        8.897       92.542       69.540       79.154        0.171        0.012       56.035        6.504        0.013      340.972       15.361      862.514
08/14/2014  07:19:00      -55.945      -29.754       -3.729        9.533        9.614        9.191       90.881       92.423       84.471        0.215        0.013       63.365        5.964        0.009      341.060       15.512      862.528
08/14/2014  07:20:00      -54.505      -21.875        0.040       11.582       11.273        8.573      134.133      127.088       73.490        0.189        0.017       58.731        3.743        0.004      341.103       15.584      862.549
08/14/2014  07:21:00      -24.108      -32.744        4.691       22.753       32.723       12.857      517.679     1070.803      165.308        0.171        0.088       40.661       14.088        0.120      341.205       15.756      862.569
08/14/2014  07:22:00      -20.175      -57.929       -1.846       14.196       16.284       12.062      201.514      265.166      145.490        0.219        0.031       61.342        6.562        0.011      341.095       15.572      862.589
08/14/2014  07:23:00      -25.040      -11.689        2.363       11.608       16.229        9.583      134.740      263.373       91.842        0.063        0.024       27.634        9.284        0.113      341.271       15.867      862.595
08/14/2014  07:24:00      -30.250      -22.159       -3.285        4.638       10.739        4.865       21.511      115.316       23.665        0.079        0.008       37.498        3.843        0.011      341.170       15.697      862.594
08/14/2014  07:25:00      -23.946        8.989       -8.020        9.043        9.117        6.080       81.768       83.120       36.967        0.046        0.010       25.577        3.942        0.024      341.316       15.943      862.593
08/14/2014  07:26:00       -5.217        7.294       34.451       21.486       19.541       14.761      461.639      381.836      217.877        0.116        0.053        8.967       12.325        1.889      341.936       16.995      862.598
08/14/2014  07:27:00       -0.218       11.509       31.663       16.467       20.767       18.440      271.161      431.252      340.016        0.109        0.052       11.511        6.511        0.320      341.950       17.020      862.608
08/14/2014  07:28:00       -1.294        5.563       36.991       15.240       25.267        9.978      232.256      638.424       99.558        0.119        0.049        5.711        8.477        2.203      342.048       17.185      862.626
08/14/2014  07:29:00        5.694        6.638       26.152       15.374       17.926       15.260      236.355      321.357      232.868        0.078        0.040        8.746       11.350        1.684      341.918       16.965      862.641
08/14/2014  07:30:00       -0.994        6.599       33.518       12.154       19.992       14.270      147.708      399.668      203.647        0.096        0.038        6.673        5.147        0.595      342.288       17.592      862.641
08/14/2014  07:31:00       -0.395        5.120       31.798       20.933       34.124       23.108      438.186     1164.475      533.962        0.159        0.107        5.135       15.688        9.334      342.050       17.190      862.642
08/14/2014  07:32:00      -11.983       26.855       56.754       14.156       30.948       14.745      200.406      957.791      217.430        0.273        0.069       29.407       14.417        0.240      342.107       17.287      862.644
08/14/2014  07:33:00      -10.115       13.235       44.810       11.693       22.376       15.625      136.734      500.683      244.151        0.158        0.044       16.658       15.604        0.878      342.148       17.355      862.644
08/14/2014  07:34:00       -3.233      -19.244       22.217       17.785       28.192       25.137      316.301      794.798      631.861        0.131        0.087       19.514       21.403        1.203      342.088       17.254      862.649
08/14/2014  07:35:00      -27.388       -5.270       10.380       16.364        9.211       13.980      267.776       84.850      195.440        0.072        0.027       27.890        8.389        0.090      341.646       16.503      862.661
08/14/2014  07:36:00       -9.988        1.253       20.203       10.624       16.221       20.635      112.880      263.109      425.799        0.066        0.040       10.066       15.737        2.444      342.076       17.233      862.664
08/14/2014  07:37:00      -22.265        2.677       17.380       12.864       14.391       21.321      165.488      207.100      454.573        0.082        0.041       22.426       13.637        0.370      341.795       16.757      862.665
08/14/2014  07:38:00      -12.736       36.717       63.438       12.921       26.072       21.482      166.952      679.737      461.490        0.342        0.065       38.863       16.393        0.178      342.006       17.114      862.667
08/14/2014  07:39:00      -10.640       17.519       53.669       16.038       24.861       16.504      257.213      618.062      272.385        0.222        0.057       20.498       12.475        0.370      341.974       17.059      862.671
08/14/2014  07:40:00       27.125      -20.579       11.569       31.395       21.414       26.966      985.656      458.565      727.172        0.173        0.109       34.048       26.284        0.596      341.897       16.930      862.678
08/14/2014  07:41:00       -7.914       18.924       40.580       16.104       19.130       13.091      259.349      365.973      171.386        0.143        0.040       20.512       12.521        0.373      342.239       17.510      862.682
08/14/2014  07:42:00      -18.847        5.326       16.718       20.603       15.877       16.400      424.469      252.076      268.967        0.080        0.047       19.585       13.677        0.488      342.098       17.270      862.702
08/14/2014  07:43:00      -35.609        5.839        0.576       14.263       17.916       14.480      203.442      321.001      209.674        0.102        0.037       36.085        8.728        0.059      341.613       16.447      862.710
08/14/2014  07:44:00      -23.560        7.503       21.223       20.565       14.607       24.142      422.910      213.357      582.824        0.114        0.061       24.726       18.211        0.542      342.158       17.372      862.709
08/14/2014  07:45:00       -3.035       11.213       42.464       15.392       40.082       20.583      236.911     1606.580      423.659        0.210        0.113       11.616       12.576        1.172      342.607       18.136      862.707
08/14/2014  07:46:00        6.688        4.294       44.604       22.606       31.078       20.126      511.037      965.837      405.037        0.197        0.094        7.948       11.511        2.097      342.605       18.133      862.701
08/14/2014  07:47:00        3.221      -30.471       37.140       24.773       51.694       26.116      613.712     2672.317      682.046        0.314        0.198       30.641       23.079        0.567      342.262       17.549      862.695
08/14/2014  07:48:00        5.775      -23.857       29.241       17.856       37.828       26.879      318.831     1430.920      722.469        0.196        0.124       24.546       22.820        0.864      342.249       17.526      862.696
08/14/2014  07:49:00       16.117      -15.249       21.080       25.366       32.641       24.902      643.418     1065.461      620.106        0.163        0.116       22.187       23.428        1.115      342.189       17.425      862.699
08/14/2014  07:50:00       -4.143       -1.314       34.762       14.151       15.833       14.831      200.247      250.697      219.948        0.095        0.034        4.346       10.090        5.390      342.651       18.210      862.695
08/14/2014  07:51:00       -7.494       13.840       26.785       28.776       17.966       18.810      828.067      322.763      353.812        0.123        0.075       15.739       18.872        1.438      342.335       17.673      862.696
08/14/2014  07:52:00      -13.089       18.652       17.319       29.765       17.917       16.570      885.953      321.025      274.572        0.115        0.074       22.787       15.946        0.490      342.183       17.415      862.701
08/14/2014  07:53:00      -36.011      -20.675        8.078       40.670       32.778       25.348     1654.068     1074.400      642.519        0.258        0.169       41.524       20.362        0.240      341.944       17.008      862.699
08/14/2014  07:54:00      -53.358      -42.271        5.525       30.961       23.585       13.422      958.577      556.235      180.146        0.318        0.085       68.073        4.801        0.005      341.700       16.596      862.713
08/14/2014  07:55:00      -31.870      -27.849       10.672       37.826       35.652       20.128     1430.769     1271.075      405.138        0.251        0.155       42.323       16.357        0.149      341.863       16.870      862.720
08/14/2014  07:56:00      -43.041      -68.540        0.548       24.937       28.961       19.309      621.841      838.722      372.856        0.419        0.092       80.934        8.925        0.012      341.654       16.516      862.726
08/14/2014  07:57:00      -48.798      -84.859       -1.724       25.074       36.188       20.736      628.689     1309.594      429.969        0.598        0.118       97.889       19.509        0.040      341.592       16.410      862.728
08/14/2014  07:58:00      -36.695     -100.750       -6.690       10.186       16.532       11.269      103.749      273.307      127.000        0.602        0.025      107.225        6.045        0.003      341.507       16.268      862.722
08/14/2014  07:59:00      -67.375      -67.079       -8.849       22.349       21.166       14.444      499.486      448.010      208.619        0.514        0.058       95.074       13.419        0.020      341.603       16.431      862.704
08/14/2014  08:00:00      -35.020      -35.363        1.627       21.948       27.290       12.422      481.710      744.729      154.316        0.193        0.069       49.769       11.752        0.056      341.738       16.659      862.705
08/14/2014  08:01:00      -46.860      -23.224       -1.413       30.137       14.637       14.835      908.234      214.239      220.071        0.204        0.067       52.300       18.406        0.124      341.830       16.816      862.707
08/14/2014  08:02:00      -52.445      -13.138        6.706       22.371       30.496       18.263      500.441      930.015      333.553        0.237        0.088       54.065       14.094        0.068      341.758       16.693      862.708
08/14/2014  08:03:00      -26.255       13.460       -2.098       10.796       13.635       13.006      116.561      185.914      169.163        0.067        0.024       29.505        6.920        0.055      342.043       17.177      862.699
08/14/2014  08:04:00       -0.642       10.426       36.494       25.405       20.873       22.438      645.420      435.678      503.480        0.151        0.079       10.446       10.617        1.033      342.997       18.799      862.701
08/14/2014  08:05:00       12.735        5.764       29.651       32.069       18.648       27.937     1028.411      347.758      780.452        0.162        0.108       13.979       19.640        1.974      342.824       18.505      862.703
08/14/2014  08:06:00       25.687       23.157       23.382       25.956       25.245       26.230      673.719      637.304      688.001        0.187        0.100       34.584       16.058        0.216      342.647       18.204      862.705
08/14/2014  08:07:00        5.794      -45.647       10.880       26.732       28.629       25.027      714.592      819.636      626.367        0.220        0.108       46.013       20.594        0.200      342.509       17.968      862.703
08/14/2014  08:08:00       30.188      -38.352        4.848       37.128       48.459       37.866     1378.501     2348.318     1433.853        0.378        0.258       48.808       36.035        0.545      342.567       18.068      862.700
08/14/2014  08:09:00       -8.111       30.183       55.499       17.257       29.266       17.749      297.803      856.514      315.023        0.276        0.073       31.254       16.004        0.262      343.078       18.938      862.696
08/14/2014  08:10:00       -3.066       16.655       31.961       11.363       24.271       12.935      129.115      589.095      167.326        0.110        0.044       16.935        7.187        0.180      342.891       18.619      862.697
08/14/2014  08:11:00      -26.527        8.738       10.873       21.590       15.639       10.332      466.121      244.570      106.760        0.086        0.041       27.929        9.325        0.111      342.334       17.673      862.700
08/14/2014  08:12:00      -17.090        5.521       38.652       35.198       32.797       18.265     1238.921     1075.666      333.623        0.223        0.132       17.959       14.810        0.680      342.898       18.631      862.700
08/14/2014  08:13:00       -7.673       64.212       32.393       34.388       36.393       28.961     1182.513     1324.443      838.715        0.429        0.167       64.669       18.009        0.078      342.737       18.357      862.703
08/14/2014  08:14:00       -8.027       -9.117       11.087       16.896       20.409       16.376      285.485      416.542      268.174        0.062        0.049       12.147        8.757        0.520      342.615       18.148      862.710
08/14/2014  08:15:00      -11.255       -9.950        9.565       19.833       15.859       18.430      393.348      251.512      339.648        0.065        0.049       15.022       12.979        0.747      342.925       18.676      862.718
08/14/2014  08:16:00        2.670      -21.285       19.396       23.903       21.064       18.752      571.367      443.700      351.643        0.110        0.068       21.451       14.076        0.431      342.601       18.126      862.709
08/14/2014  08:17:00      -26.185       -2.563       18.203       16.120       18.376       15.920      259.865      337.689      253.450        0.094        0.043       26.310       13.037        0.246      342.561       18.058      862.701
08/14/2014  08:18:00        7.613       44.334       28.714       30.394       26.892       28.031      923.782      723.160      785.761        0.264        0.122       44.983       21.807        0.235      342.833       18.520      862.688
08/14/2014  08:19:00       62.179       49.535        1.764       36.980       35.664       30.729     1367.524     1271.933      944.272        0.495        0.179       79.498       11.833        0.022      342.602       18.127      862.680
08/14/2014  08:20:00      110.444       56.947       17.806       38.373       34.570       29.283     1472.511     1195.051      857.512        0.964        0.176      124.261       14.059        0.013      342.313       17.636      862.686
08/14/2014  08:21:00       83.548       47.446       -6.660       35.481       26.143       26.449     1258.894      683.482      699.554        0.596        0.132       96.080       21.168        0.049      342.305       17.621      862.692
08/14/2014  08:22:00       45.729       32.521       -2.016       20.985       21.390       19.870      440.387      457.542      394.820        0.222        0.065       56.113       12.312        0.048      342.288       17.595      862.699
08/14/2014  08:23:00       31.975       61.132        0.168       38.275       29.985       22.669     1464.965      899.090      513.897        0.382        0.144       68.989       20.304        0.087      342.535       18.012      862.705
08/14/2014  08:24:00       90.032       67.597       24.172       42.537       31.095       30.303     1809.355      966.898      918.244        0.848        0.185      112.584       15.684        0.019      342.490       17.936      862.700
08/14/2014  08:25:00       84.838       65.568       16.072       37.707       27.980       29.997     1421.810      782.881      899.794        0.743        0.155      107.223       21.753        0.041      342.373       17.736      862.703
08/14/2014  08:26:00       55.064       90.515       -4.589       28.718       36.483       31.257      824.734     1331.039      977.007        0.719        0.157      105.948       16.649        0.025      342.408       17.797      862.717
08/14/2014  08:27:00       16.772        1.672      -30.498       24.517       51.693       29.538      601.092     2672.137      872.499        0.268        0.207       16.855        8.201        0.237      342.282       17.583      862.718
08/14/2014  08:28:00      119.603       52.463       13.409       43.090       35.133       35.543     1856.747     1234.349     1263.279        1.079        0.218      130.604       23.036        0.031      342.399       17.782      862.721
08/14/2014  08:29:00       80.325       59.794        6.338       35.807       32.492       26.087     1282.135     1055.759      680.520        0.654        0.151      100.137       16.014        0.026      342.510       17.970      862.724
08/14/2014  08:30:00       13.592       32.408       10.845       20.444       37.846       26.117      417.968     1432.289      682.112        0.194        0.127       35.143       27.537        0.614      343.016       18.831      862.717
08/14/2014  08:31:00       49.663       56.664        7.155       55.495       43.017       29.015     3079.665     1850.462      841.895        0.575        0.289       75.348       17.081        0.051      342.855       18.557      862.701
08/14/2014  08:32:00       90.477       41.988        7.355       53.465       43.978       28.840     2858.461     1934.093      831.728        0.781        0.281       99.746       13.643        0.019      342.464       17.893      862.698
08/14/2014  08:33:00       61.150       69.113       49.078       34.264       31.136       27.137     1173.999      969.424      736.433        0.690        0.144       92.282       15.303        0.027      342.669       18.241      862.686
08/14/2014  08:34:00       46.872       68.008       60.618       53.415       41.189       34.868     2853.141     1696.503     1215.791        0.813        0.288       82.595       24.674        0.089      342.915       18.659      862.674
08/14/2014  08:35:00       43.389       74.990       59.993       57.987       45.525       39.434     3362.460     2072.555     1555.035        0.905        0.350       86.638       31.977        0.136      343.307       19.325      862.678
08/14/2014  08:36:00       74.329       66.438        3.029       23.435       22.391       23.768      549.186      501.338      564.905        0.578        0.081       99.693        3.923        0.002      342.429       17.832      862.671
08/14/2014  08:37:00       38.125       38.289       -9.809       44.139       14.014       21.165     1948.254      196.394      447.959        0.280        0.130       54.033       15.149        0.079      342.464       17.891      862.661
08/14/2014  08:38:00      -18.120       15.769       17.800       16.370       22.188       11.204      267.969      492.317      125.528        0.089        0.044       24.021        9.286        0.149      343.034       18.863      862.652
08/14/2014  08:39:00       -0.420       38.016       27.052       22.394       27.906       24.560      501.472      778.740      603.200        0.203        0.094       38.019       13.598        0.128      343.595       19.819      862.643
08/14/2014  08:40:00       16.978       79.396        6.269       39.104       26.886       24.665     1529.125      722.840      608.379        0.475        0.143       81.191       16.140        0.040      343.411       19.504      862.654
08/14/2014  08:41:00       36.289       46.328        7.760       39.395       32.501       24.214     1551.975     1056.330      586.312        0.336        0.160       58.849       22.536        0.147      343.167       19.089      862.653
08/14/2014  08:42:00       49.406       89.364      -13.408       33.639       31.274       19.566     1131.577      978.089      382.818        0.655        0.125      102.112       13.039        0.016      342.963       18.742      862.653
08/14/2014  08:43:00       20.037       78.327       -7.029       44.156       52.772       29.764     1949.719     2784.889      885.921        0.610        0.281       80.849       24.338        0.091      342.916       18.661      862.663
08/14/2014  08:44:00      -26.780       66.243        6.618       22.958       43.951       26.393      527.074     1931.707      696.607        0.415        0.158       71.451       21.398        0.090      343.211       19.164      862.666
08/14/2014  08:45:00      -54.882       70.421       -3.189       28.913       29.691       29.263      835.978      881.532      856.300        0.528        0.129       89.281       26.198        0.086      342.808       18.477      862.663
08/14/2014  08:46:00      -23.623       11.993       25.022       35.366       23.084       20.543     1250.740      532.859      422.019        0.177        0.110       26.493       15.897        0.360      343.252       19.235      862.657
08/14/2014  08:47:00       22.210       26.194       21.733       48.314       36.293       28.369     2334.230     1317.189      804.789        0.305        0.223       34.343       19.307        0.316      343.253       19.235      862.658
08/14/2014  08:48:00       79.188       63.645        7.453       27.323       25.293       25.229      746.541      639.722      636.513        0.620        0.101      101.595       12.182        0.014      342.957       18.731      862.666
08/14/2014  08:49:00       47.342       50.247        0.831       17.236       21.901       26.153      297.071      479.649      683.969        0.311        0.073       69.036        8.837        0.016      342.872       18.587      862.672
08/14/2014  08:50:00       -7.115       49.957       -3.555       27.994       26.751       25.182      783.649      715.595      634.141        0.235        0.107       50.461       21.760        0.186      342.905       18.642      862.672
08/14/2014  08:51:00      -38.298       51.024       -5.338       24.049       28.758       22.168      578.369      827.001      491.414        0.300        0.095       63.797       18.778        0.087      342.837       18.524      862.672
08/14/2014  08:52:00     -105.921       46.421       -5.442       29.979       41.793       19.333      898.751     1746.679      373.770        0.821        0.151      115.646       14.439        0.016      342.582       18.094      862.672
08/14/2014  08:53:00      -56.492      -16.305       -4.161       28.854       19.079       13.324      832.552      363.999      177.523        0.242        0.069       58.798        7.012        0.014      342.576       18.084      862.670
08/14/2014  08:54:00      -17.995        9.897       18.584       13.243       13.913       16.483      175.378      193.563      271.686        0.070        0.032       20.537       10.374        0.255      343.356       19.410      862.669
08/14/2014  08:55:00        7.628       49.195       58.281       31.970       33.035       23.654     1022.108     1091.331      559.497        0.427        0.134       49.782       12.152        0.060      343.209       19.159      862.676
08/14/2014  08:56:00       51.155       52.320       42.123       58.050       30.431       27.502     3369.766      926.063      756.369        0.609        0.253       73.172       16.488        0.051      343.133       19.031      862.686
08/14/2014  08:57:00       36.558       62.254       44.699       42.216       36.607       31.593     1782.192     1340.073      998.111        0.566        0.206       72.195       24.029        0.111      343.164       19.085      862.684
08/14/2014  08:58:00      -17.888      -84.411       13.925       47.183       64.916       29.567     2226.237     4214.132      874.205        0.748        0.366       86.285       29.193        0.114      343.304       19.320      862.694
08/14/2014  08:59:00       42.253     -102.338      -16.156       61.924       65.323       36.438     3834.603     4267.074     1327.728        1.097        0.471      110.718       32.091        0.084      343.231       19.197      862.686
08/14/2014  09:00:00       34.232       25.143       60.666       52.694       71.465       47.316     2776.670     5107.308     2238.849        0.780        0.506       42.474       55.926        1.734      343.578       19.789      862.675
08/14/2014  09:01:00       -3.545       47.234       81.857       24.579       46.236       27.194      604.118     2137.789      739.528        0.621        0.174       47.367       21.505        0.206      343.460       19.588      862.656
08/14/2014  09:02:00       26.883       50.026       43.348       42.890       32.327       42.739     1839.551     1045.047     1826.605        0.491        0.236       56.792       21.934        0.149      343.084       18.947      862.643
08/14/2014  09:03:00        2.857        6.956       43.910       30.693       45.929       32.714      942.058     2109.488     1070.221        0.305        0.206        7.520       29.432       15.318      343.632       19.881      862.623
08/14/2014  09:04:00       13.438       -4.953       36.917       27.197       49.110       33.973      739.651     2411.745     1154.192        0.294        0.215       14.322       29.604        4.273      343.628       19.874      862.609
08/14/2014  09:05:00      -11.883        7.098       23.135       39.307       34.992       24.215     1545.055     1224.426      586.381        0.204        0.168       13.841       24.686        3.181      343.524       19.696      862.590
08/14/2014  09:06:00      -12.790       13.276       64.238       24.266       40.780       33.373      588.861     1663.041     1113.782        0.392        0.168       18.435       31.851        2.985      343.669       19.943      862.579
08/14/2014  09:07:00        3.378       38.790       78.118       38.304       55.927       37.916     1467.162     3127.780     1437.587        0.682        0.302       38.937       36.395        0.874      344.007       20.522      862.553
08/14/2014  09:08:00       39.262       89.877       34.656       42.459       51.240       52.792     1802.742     2625.563     2787.026        0.902        0.361       98.078       35.916        0.134      343.431       19.537      862.539
08/14/2014  09:09:00      114.229       72.624       10.879       24.703       24.809       30.593      610.234      615.491      935.916        1.030        0.108      135.361       17.693        0.017      342.982       18.773      862.526
08/14/2014  09:10:00       47.374       37.856        3.875       32.529       26.062       11.062     1058.108      679.213      122.360        0.278        0.093       60.641       10.569        0.030      342.914       18.660      862.522
08/14/2014  09:11:00      -58.625       22.308        1.970       25.709       15.995       15.624      660.933      255.833      244.097        0.255        0.058       62.726       10.497        0.028      343.106       18.985      862.520
08/14/2014  09:12:00      -44.867      -55.529       -1.619       26.789       27.441       17.535      717.670      753.000      307.484        0.344        0.089       71.390       10.288        0.021      343.036       18.865      862.523
08/14/2014  09:13:00      -20.722      -21.081       18.103       30.111       33.414       22.918      906.683     1116.528      525.254        0.187        0.127       29.561       26.287        0.791      343.870       20.288      862.535
08/14/2014  09:14:00      -12.551       -1.689       22.735       15.964       15.383       14.538      254.847      236.626      211.359        0.069        0.035       12.664       12.205        0.929      344.128       20.728      862.533
08/14/2014  09:15:00       51.029       57.185       12.189       46.115       52.836       30.070     2126.557     2791.651      904.207        0.592        0.291       76.643       19.529        0.065      343.762       20.102      862.532
08/14/2014  09:16:00       10.219       16.187       50.580       30.440       35.650       23.371      926.580     1270.889      546.211        0.283        0.137       19.143        7.888        0.170      344.482       21.333      862.537
08/14/2014  09:17:00       28.259        6.828       68.460       46.009       47.740       37.363     2116.856     2279.142     1395.994        0.566        0.290       29.072       33.974        1.366      344.089       20.662      862.537
08/14/2014  09:18:00      -20.031      -29.309       13.461       25.989       23.489       23.809      675.417      551.752      566.886        0.162        0.090       35.500       18.709        0.278      343.472       19.606      862.539
08/14/2014  09:19:00      -23.572        2.284       13.725       16.511       27.651       19.645      272.627      764.577      385.932        0.109        0.071       23.683       17.004        0.516      343.855       20.261      862.529
08/14/2014  09:20:00       75.096       59.771       13.942       63.268       60.247       46.808     4002.896     3629.747     2190.956        0.961        0.491       95.979       39.975        0.173      343.780       20.133      862.521
08/14/2014  09:21:00      129.045      112.948       23.009       27.612       26.813       30.278      762.413      718.962      916.745        1.617        0.120      171.493        7.978        0.002      343.064       18.914      862.513
08/14/2014  09:22:00       77.626       63.924       -3.402       29.397       30.791       28.036      864.193      948.107      786.007        0.636        0.130      100.559       14.602        0.021      343.192       19.131      862.502
08/14/2014  09:23:00      104.556       61.121        5.620       14.374       20.367       14.566      206.609      414.799      212.179        0.777        0.042      121.110        8.443        0.005      343.027       18.850      862.498
08/14/2014  09:24:00       35.933       26.359        1.384       38.205       26.214       16.697     1459.616      687.155      278.793        0.221        0.121       44.565       13.421        0.091      343.224       19.185      862.481
08/14/2014  09:25:00       87.487       55.618       16.034       57.855       32.365       28.544     3347.236     1047.479      814.765        0.811        0.260      103.669       24.702        0.057      343.600       19.824      862.481
08/14/2014  09:26:00       94.834       63.202       24.442       44.374       40.182       32.555     1969.021     1614.564     1059.843        0.911        0.232      113.965       21.766        0.036      343.277       19.276      862.474
08/14/2014  09:27:00      138.482       66.155       28.200       34.344       39.759       32.894     1179.540     1580.790     1082.000        1.409        0.192      153.473       25.493        0.028      343.247       19.223      862.472
08/14/2014  09:28:00       68.825       34.836       19.543       46.575       41.211       39.166     2169.219     1698.314     1533.946        0.587        0.270       77.139       29.355        0.145      343.506       19.666      862.485
08/14/2014  09:29:00       19.179        4.501       -0.701       21.166       30.253       22.211      447.990      915.239      493.326        0.112        0.093       19.700       22.404        1.293      343.625       19.868      862.485
08/14/2014  09:30:00       16.938       25.175       28.551       26.591       35.532       16.933      707.098     1262.492      286.741        0.200        0.113       30.343       12.916        0.181      344.253       20.941      862.484
08/14/2014  09:31:00      118.911       73.894        8.561       47.641       39.097       34.595     2269.706     1528.561     1196.834        1.233        0.250      140.001       18.515        0.017      343.601       19.828      862.476
08/14/2014  09:32:00       55.173       35.891        0.754       40.052       40.150       29.585     1604.136     1611.985      875.284        0.421        0.205       65.819       21.607        0.108      343.898       20.334      862.478
08/14/2014  09:33:00      116.855       88.303       27.292       55.190       36.304       40.749     3045.923     1317.949     1660.491        1.411        0.301      146.466       27.341        0.035      343.812       20.186      862.473
08/14/2014  09:34:00       12.493       53.982       16.567       39.063       31.401       29.830     1525.900      986.010      889.856        0.337        0.170       55.408       20.489        0.137      343.932       20.392      862.472
08/14/2014  09:35:00       45.392      -37.691       35.274       32.554       44.845       34.107     1059.736     2011.086     1163.290        0.448        0.212       59.000       16.595        0.079      344.123       20.718      862.454
08/14/2014  09:36:00       60.544        6.797        6.671       47.857       73.842       37.464     2290.275     5452.629     1403.559        0.645        0.457       60.925       10.713        0.031      343.895       20.329      862.438
08/14/2014  09:37:00       27.105       35.951       41.831       51.445       47.905       43.043     2646.541     2294.845     1852.717        0.528        0.340       45.024       32.105        0.508      344.745       21.781      862.432
08/14/2014  09:38:00       77.395       82.287       37.840       72.404       51.047       49.307     5242.293     2605.779     2431.206        1.223        0.514      112.965       42.283        0.140      344.350       21.105      862.416
08/14/2014  09:39:00      114.628       68.034       34.358       74.165       65.704       48.966     5500.408     4317.026     2397.679        1.558        0.611      133.297       34.102        0.065      344.087       20.656      862.432
08/14/2014  09:40:00      149.012       82.273       17.796       65.875       52.054       57.014     4339.542     2709.581     3250.613        1.979        0.515      170.216       49.054        0.083      343.809       20.181      862.435
08/14/2014  09:41:00      116.056       92.614       35.190       38.772       52.104       49.001     1503.281     2714.775     2401.056        1.495        0.331      148.480       19.482        0.017      343.722       20.033      862.431
08/14/2014  09:42:00       42.369       63.348        3.439       39.190       47.542       32.491     1535.891     2260.223     1055.653        0.533        0.243       76.211       26.854        0.124      343.868       20.283      862.424
08/14/2014  09:43:00      -23.224       60.300       -7.820       47.206       38.235       29.008     2228.381     1461.877      841.436        0.438        0.227       64.618       24.508        0.144      343.743       20.070      862.405
08/14/2014  09:44:00      -20.086       37.889       18.095       17.809       37.487       28.258      317.170     1405.284      798.531        0.234        0.126       42.883       22.583        0.277      344.464       21.303      862.384
08/14/2014  09:45:00        9.643       29.251       12.926       19.084       23.353       20.846      364.188      545.350      434.538        0.123        0.067       30.799       10.921        0.126      344.363       21.130      862.376
08/14/2014  09:46:00       30.184       79.313       11.136       57.448       71.840       41.414     3300.260     5160.954     1715.110        0.875        0.509       84.862       38.111        0.202      344.544       21.437      862.370
08/14/2014  09:47:00       96.911       86.472        6.552       76.876       61.062       51.224     5909.906     3728.511     2623.931        1.458        0.613      129.881       43.661        0.113      344.270       20.970      862.377
08/14/2014  09:48:00       50.148       67.098       22.724       56.935       44.795       37.590     3241.647     2006.571     1412.993        0.710        0.333       83.767       23.484        0.079      344.321       21.056      862.388
08/14/2014  09:49:00       35.809       68.462        4.703       57.341       49.165       46.795     3287.960     2417.156     2189.737        0.694        0.395       77.262       35.436        0.210      344.317       21.052      862.383
08/14/2014  09:50:00       74.845       65.753       25.255       83.156       54.655       44.710     6914.968     2987.141     1998.967        1.123        0.595       99.625       39.892        0.160      344.281       20.988      862.370
08/14/2014  09:51:00       32.162      115.975        0.054       48.749       57.562       41.076     2376.476     3313.336     1687.263        1.093        0.369      120.352       37.231        0.096      344.320       21.058      862.357
08/14/2014  09:52:00       74.419       37.208       13.487       52.791       38.825       41.803     2786.941     1507.416     1747.532        0.657        0.302       83.202       34.481        0.172      344.027       20.555      862.345
08/14/2014  09:53:00       59.268       25.981       14.150       40.158       30.516       22.391     1612.629      931.232      501.343        0.372        0.152       64.712       14.436        0.050      344.186       20.827      862.333
08/14/2014  09:54:00       84.892       90.400        3.237       78.779       62.787       46.914     6206.069     3942.167     2200.882        1.387        0.617      124.012       34.837        0.079      344.301       21.023      862.321
08/14/2014  09:55:00       34.197       34.219       18.491       37.747       47.255       33.147     1424.823     2233.080     1098.711        0.372        0.238       48.377       20.366        0.177      344.303       21.027      862.311
08/14/2014  09:56:00      105.352       51.552       20.636       46.485       36.974       30.432     2160.864     1367.056      926.129        0.932        0.223      117.289       20.115        0.029      344.130       20.731      862.298
08/14/2014  09:57:00       78.309       66.874       -9.281       58.507       42.575       33.299     3423.027     1812.623     1108.841        0.852        0.317      102.978       25.955        0.064      344.247       20.930      862.279
08/14/2014  09:58:00       17.272       44.649       47.766       35.259       34.545       59.405     1243.202     1193.327     3528.967        0.527        0.298       47.873       38.790        0.657      344.963       22.157      862.284
08/14/2014  09:59:00       35.563       -4.214       60.500       49.050       87.956       45.134     2405.892     7736.174     2037.094        0.856        0.609       35.812       49.695        1.926      344.512       21.383      862.280
08/14/2014  10:00:00       -1.429        1.034       30.966       29.147       51.794       35.415      849.537     2682.635     1254.253        0.287        0.239        1.764       20.297      132.389      345.268       22.677      862.276
08/14/2014  10:01:00       56.236      -70.279        1.272       75.012       73.328       46.774     5626.784     5376.932     2187.780        1.064        0.660       90.009       41.158        0.209      344.591       21.517      862.259
08/14/2014  10:02:00       24.417      -71.389       10.870       45.312       59.748       47.839     2053.166     3569.876     2288.573        0.686        0.396       75.449       41.889        0.308      344.556       21.459      862.263
08/14/2014  10:03:00        6.155       40.019       61.183       29.981       33.556       27.125      898.835     1126.026      735.752        0.407        0.138       40.489       20.357        0.253      345.134       22.449      862.254
08/14/2014  10:04:00       35.603       46.794       35.610       33.797       25.066       24.324     1142.209      628.323      591.661        0.354        0.118       58.798        9.057        0.024      344.626       21.578      862.253
08/14/2014  10:05:00       -4.470       54.018       81.397       21.863       33.614       19.583      478.002     1129.924      383.497        0.578        0.100       54.203       19.076        0.124      345.141       22.460      862.233
08/14/2014  10:06:00       24.384       52.166       27.499       32.860       26.855       28.370     1079.812      721.187      804.870        0.334        0.130       57.584       19.128        0.110      344.545       21.440      862.230
08/14/2014  10:07:00      -41.555      -13.031        1.165       37.406       36.928       22.804     1399.206     1363.659      520.034        0.259        0.164       43.550       20.295        0.217      344.597       21.528      862.220
08/14/2014  10:08:00      -57.215       16.114       -4.252       32.190       29.017       22.365     1036.186      841.970      500.184        0.296        0.119       59.441       16.266        0.075      344.677       21.666      862.209
08/14/2014  10:09:00      -21.788      121.452      -12.504       34.605       47.798       31.452     1197.487     2284.615      989.218        0.993        0.224      123.391       26.183        0.045      344.656       21.632      862.204
08/14/2014  10:10:00      -33.379       40.289       19.551       26.967       34.213       28.037      727.209     1170.558      786.099        0.290        0.134       52.319       19.262        0.136      345.141       22.461      862.209
08/14/2014  10:11:00       15.906       30.300       36.324       44.007       32.652       27.995     1936.650     1066.163      783.718        0.314        0.189       34.221       12.122        0.125      345.274       22.687      862.208
08/14/2014  10:12:00      -21.842       14.836       35.048       23.387       27.459       18.303      546.938      754.015      335.002        0.178        0.082       26.404       15.118        0.328      345.413       22.926      862.203
08/14/2014  10:13:00       15.073        8.473       46.448       41.823       49.896       35.324     1749.172     2489.568     1247.752        0.397        0.274       17.292       16.905        0.956      345.237       22.625      862.190
08/14/2014  10:14:00       60.068       37.932       54.275       57.528       74.412       37.593     3309.416     5537.139     1413.245        0.912        0.513       71.042       35.041        0.243      344.596       21.528      862.185
08/14/2014  10:15:00      147.355       98.055       19.623       46.260       44.054       44.556     2139.967     1940.794     1985.280        1.889        0.303      176.998       12.709        0.005      344.333       21.075      862.184
08/14/2014  10:16:00      156.881       75.996       17.493       76.641       58.595       41.128     5873.841     3433.420     1691.553        2.084        0.550      174.319       41.042        0.055      344.347       21.100      862.198
08/14/2014  10:17:00       25.064       41.878       57.776       43.996       45.632       32.002     1935.614     2082.234     1024.096        0.538        0.252       48.806       24.023        0.242      345.032       22.273      862.198
08/14/2014  10:18:00      131.537       42.617       75.108       90.788       67.033       53.266     8242.475     4493.359     2837.262        2.016        0.779      138.269       44.946        0.106      344.734       21.761      862.191
08/14/2014  10:19:00      100.889      106.428      115.116      115.238       82.567       72.244    13279.727     6817.374     5219.202        3.003        1.266      146.647       64.444        0.193      344.958       22.145      862.168
08/14/2014  10:20:00      200.474      112.371       34.552       92.442       79.297       59.157     8545.526     6287.936     3499.563        3.617        0.917      229.820       41.386        0.032      344.311       21.037      862.180
08/14/2014  10:21:00       90.130      126.924      114.407       95.740       76.073       68.569     9166.184     5787.027     4701.674        2.848        0.983      155.670       61.953        0.158      344.796       21.866      862.159
08/14/2014  10:22:00       97.925      126.881      107.339      114.351       72.921       68.613    13076.231     5317.454     4707.680        3.015        1.155      160.275       71.064        0.197      344.719       21.736      862.158
08/14/2014  10:23:00      224.954       97.727       32.961       85.486       83.505       66.151     7307.845     6973.044     4375.895        3.995        0.933      245.265       51.423        0.044      344.395       21.182      862.141
08/14/2014  10:24:00      232.450      118.590       42.140       99.187       78.254       60.471     9838.106     6123.691     3656.789        4.474        0.981      260.953       56.993        0.048      344.619       21.563      862.123
08/14/2014  10:25:00      120.334       51.717       11.729       82.885       47.856       45.006     6869.906     2290.186     2025.532        1.424        0.559      130.977       32.267        0.061      344.615       21.558      862.131
08/14/2014  10:26:00       40.183       86.372      104.034       74.421       59.150       44.017     5538.506     3498.674     1937.512        1.543        0.549       95.262       43.974        0.213      344.984       22.190      862.114
08/14/2014  10:27:00        8.784      -11.470       68.425       41.018       93.586       40.346     1682.465     8758.288     1627.811        0.848        0.603       14.447       40.349        7.800      345.110       22.406      862.109
08/14/2014  10:28:00       60.184       55.500       36.550       35.772       32.496       37.638     1279.654     1055.990     1416.651        0.589        0.188       81.868       17.749        0.047      344.686       21.680      862.135
08/14/2014  10:29:00       56.435       82.494       56.094       53.542       66.140       67.623     2866.735     4374.510     4572.856        1.247        0.591       99.951       46.077        0.213      344.972       22.171      862.137
08/14/2014  10:30:00       81.639       46.974       -5.645       45.777       51.134       33.020     2095.516     2614.676     1090.311        0.735        0.290       94.189       14.674        0.024      344.731       21.757      862.134
08/14/2014  10:31:00       10.849       55.136       17.551       35.198       53.638       33.915     1238.908     2877.059     1150.200        0.436        0.263       56.193       18.716        0.111      345.203       22.566      862.139
08/14/2014  10:32:00       10.492       78.765        4.657       44.987       50.505       36.324     2023.873     2550.777     1319.465        0.611        0.295       79.461       34.138        0.185      345.054       22.312      862.127
08/14/2014  10:33:00      -11.506       10.631       10.724       32.036       32.910       15.779     1026.296     1083.038      248.962        0.136        0.118       15.665       11.546        0.543      345.453       22.995      862.119
08/14/2014  10:34:00       -9.576       71.107        8.793       40.113       80.901       36.265     1609.035     6545.046     1315.132        0.735        0.473       71.749       38.459        0.287      345.315       22.757      862.134
08/14/2014  10:35:00      -12.482       27.362       -6.774       21.468       73.295       26.242      460.862     5372.195      688.655        0.373        0.326       30.074        3.955        0.017      345.520       23.112      862.128
08/14/2014  10:36:00        9.705       38.292       -2.446       43.894       30.717       38.663     1926.717      943.520     1494.866        0.296        0.218       39.503       28.146        0.508      345.173       22.516      862.121
08/14/2014  10:37:00      -28.407       10.185       -8.560       26.902       28.312       23.688      723.705      801.567      561.120        0.153        0.104       30.178       20.950        0.482      344.815       21.902      862.111
08/14/2014  10:38:00       -7.146       30.030       46.969       30.453       34.463       28.752      927.406     1187.680      826.704        0.305        0.147       30.869       26.660        0.746      345.754       23.513      862.093
08/14/2014  10:39:00        1.964       46.002       24.577       31.982       39.117       26.963     1022.877     1530.115      727.015        0.300        0.164       46.044       25.752        0.313      345.765       23.529      862.080
08/14/2014  10:40:00      -44.484       14.775       16.918       39.357       24.077       25.785     1549.007      579.698      664.853        0.264        0.140       46.873       19.377        0.171      345.359       22.834      862.070
08/14/2014  10:41:00       75.039       43.522       28.522       50.924       32.486       27.341     2593.253     1055.360      747.530        0.637        0.220       86.746       15.954        0.034      345.467       23.019      862.049
08/14/2014  10:42:00      146.883       99.000       22.117       82.840       51.901       52.325     6862.509     2693.724     2737.892        2.208        0.615      177.131       23.416        0.017      345.014       22.240      862.040
08/14/2014  10:43:00        5.434      109.460       -0.213       53.084       65.775       42.798     2817.873     4326.387     1831.687        1.049        0.449      109.595       42.959        0.154      345.253       22.651      862.036
08/14/2014  10:44:00       -9.886       92.117        5.462       40.906       59.480       35.580     1673.318     3537.838     1265.955        0.754        0.324       92.646       33.512        0.131      345.426       22.950      862.009
08/14/2014  10:45:00       -4.136       94.441       20.199       49.586       64.254       41.265     2458.793     4128.531     1702.814        0.882        0.415       94.531       39.971        0.179      345.738       23.484      862.002
08/14/2014  10:46:00       21.771       81.379       26.103       47.544       72.329       44.376     2260.447     5231.534     1969.253        0.862        0.473       84.241       45.050        0.286      345.594       23.237      861.992
08/14/2014  10:47:00       57.494       63.313       20.382       50.123       31.656       36.474     2512.340     1002.129     1330.337        0.629        0.242       85.522       17.607        0.042      345.484       23.047      861.987
08/14/2014  10:48:00       87.397       66.130       39.410       52.240       46.349       43.885     2729.049     2148.211     1925.881        1.018        0.340      109.597        6.687        0.004      345.385       22.877      861.972
08/14/2014  10:49:00       62.882       59.892       45.137       42.043       28.916       38.887     1767.607      836.133     1512.214        0.685        0.206       86.841       17.407        0.040      345.278       22.693      861.974
08/14/2014  10:50:00       51.374       54.689       -7.809       50.243       48.333       31.312     2524.318     2336.102      980.432        0.576        0.292       75.035       21.789        0.084      345.176       22.520      861.961
08/14/2014  10:51:00       38.488      -58.895       20.426       61.488       98.672       43.631     3780.714     9736.243     1903.647        1.039        0.771       70.356       51.114        0.528      345.860       23.691      861.957
08/14/2014  10:52:00       58.070      -70.502       -4.368       81.250       75.019       50.257     6601.520     5627.866     2525.794        1.156        0.738       91.338       56.758        0.386      345.459       23.005      861.967
08/14/2014  10:53:00      -37.395      -65.214       -6.721       51.230       38.832       33.620     2624.486     1507.926     1130.318        0.548        0.263       75.175       30.879        0.169      345.301       22.734      861.986
08/14/2014  10:54:00        7.162       -3.907       50.530       46.709       50.936       52.546     2181.686     2594.447     2761.036        0.508        0.377        8.159       36.341       19.841      345.648       23.329      861.992
08/14/2014  10:55:00       46.778       28.651       74.719       51.520       48.731       42.325     2654.345     2374.711     1791.419        0.770        0.341       54.855       39.676        0.523      345.793       23.579      862.005
08/14/2014  10:56:00       78.406       47.191       63.829       69.881      108.551       77.761     4883.344    11783.309     6046.828        1.758        1.136       91.512       81.199        0.787      345.369       22.849      862.001
08/14/2014  10:57:00       69.934       78.798        2.904       53.514       27.424       30.268     2863.743      752.057      916.134        0.782        0.227      105.356       30.898        0.086      344.769       21.822      861.987
08/14/2014  10:58:00       -6.604       65.847       -6.344       32.312       39.110       36.511     1044.034     1529.615     1333.088        0.416        0.195       66.178       32.333        0.239      345.450       22.991      861.971
08/14/2014  10:59:00       24.260       65.044        5.270       54.903       55.242       40.091     3014.293     3051.726     1607.259        0.626        0.384       69.421       38.106        0.301      345.602       23.250      861.935
08/14/2014  11:00:00       69.039       38.010        6.859       53.765       52.638       41.651     2890.637     2770.782     1734.832        0.683        0.370       78.811       33.863        0.185      345.750       23.504      861.920
08/14/2014  11:01:00       63.468       97.666        7.777       46.918       59.563       38.600     2201.259     3547.703     1489.992        1.043        0.362      116.477       31.890        0.075      345.216       22.588      861.892
08/14/2014  11:02:00       32.691       25.405       43.751       42.846       47.925       23.953     1835.799     2296.799      573.726        0.417        0.235       41.402       15.397        0.138      345.797       23.584      861.887
08/14/2014  11:03:00        7.359       29.311       52.711       39.035       58.578       42.626     1523.708     3431.359     1817.008        0.523        0.339       30.221       33.547        1.232      345.814       23.613      861.877
08/14/2014  11:04:00       -2.137      -48.795       24.413       58.372      100.721       60.639     3407.341    10144.684     3677.149        1.010        0.861       48.841       64.859        1.763      345.834       23.648      861.868
08/14/2014  11:05:00       34.631       -7.676       56.763       60.072      121.860       68.059     3608.672    14849.836     4632.084        1.378        1.155       35.471       80.503        5.151      345.515       23.099      861.867
08/14/2014  11:06:00      -17.798        5.178       55.347       40.888       48.606       35.057     1671.812     2362.531     1229.002        0.433        0.263       18.536       36.256        3.826      345.912       23.782      861.857
08/14/2014  11:07:00       23.375     -104.121      -15.681       89.610       64.099       43.385     8030.005     4108.662     1882.274        1.282        0.701      106.712       24.184        0.051      345.521       23.110      861.866
08/14/2014  11:08:00       22.100      -49.642       38.181       44.978       72.386       41.875     2023.025     5239.734     1753.552        0.671        0.451       54.339       41.008        0.570      345.967       23.876      861.859
08/14/2014  11:09:00      -26.162       31.636       48.183       40.476       63.025       37.597     1638.332     3972.120     1413.537        0.551        0.351       41.053       33.877        0.681      345.937       23.826      861.866
08/14/2014  11:10:00      -19.348       41.288       82.717       38.632       44.993       30.165     1492.432     2024.351      909.918        0.667        0.221       45.597       22.278        0.239      346.132       24.160      861.863
08/14/2014  11:11:00        6.521       51.144       59.171       40.429       40.344       24.600     1634.506     1627.601      605.166        0.501        0.193       51.558       11.303        0.048      345.907       23.772      861.861
08/14/2014  11:12:00       37.002       53.644       35.093       32.262       29.657       34.566     1040.850      879.531     1194.781        0.430        0.156       65.168       25.325        0.151      345.384       22.877      861.862
08/14/2014  11:13:00       12.140       19.635       12.970       24.918       30.258       21.354      620.907      915.517      456.009        0.135        0.100       23.085       12.553        0.296      345.979       23.898      861.855
08/14/2014  11:14:00       50.585       53.147        4.774       43.667       57.188       34.327     1906.822     3270.457     1178.371        0.588        0.318       73.372       19.560        0.071      346.032       23.989      861.855
08/14/2014  11:15:00        6.479       26.053       14.867       19.953       45.216       23.045      398.119     2044.493      531.083        0.196        0.149       26.846       13.641        0.258      346.139       24.172      861.828
08/14/2014  11:16:00       -6.007       59.199        9.260       35.487       62.779       33.781     1259.352     3941.208     1141.176        0.498        0.317       59.503       37.920        0.406      346.069       24.052      861.818
08/14/2014  11:17:00      -16.270       71.252       16.238       28.030       68.945       29.866      785.674     4753.410      891.996        0.602        0.322       73.086       27.628        0.143      346.337       24.513      861.809
08/14/2014  11:18:00       18.642       25.420       22.717       28.900       32.680       26.761      835.192     1067.951      716.150        0.206        0.131       31.523       19.904        0.399      346.397       24.615      861.789
08/14/2014  11:19:00      -78.851       34.209       -6.352       64.536       26.850       27.991     4164.870      720.929      783.512        0.655        0.283       85.952       23.516        0.075      345.308       22.745      861.782
08/14/2014  11:20:00      -43.422       -9.867        7.080       26.633       25.440       22.627      709.306      647.177      511.960        0.195        0.093       44.529       16.331        0.135      345.944       23.839      861.763
08/14/2014  11:21:00       -8.691        0.587       13.050       34.392       25.948       25.905     1182.822      673.277      671.043        0.139        0.126        8.711       21.234        5.941      346.149       24.190      861.761
08/14/2014  11:22:00       32.094       30.184       24.542       42.512       37.954       36.134     1807.256     1440.501     1305.639        0.355        0.228       44.058       20.571        0.218      346.251       24.364      861.748
08/14/2014  11:23:00       58.144       64.433       65.852       61.680       61.291       68.549     3804.398     3756.533     4698.950        1.206        0.613       86.789       41.630        0.230      346.186       24.251      861.748
08/14/2014  11:24:00      174.872      177.701      164.896      126.962       83.024       71.504    16119.317     6892.928     5112.880        5.873        1.406      249.315       59.415        0.057      345.407       22.910      861.734
08/14/2014  11:25:00      191.388       68.947       50.150       59.544       87.079       46.709     3545.430     7582.811     2181.746        2.860        0.665      203.429       38.719        0.036      345.293       22.715      861.747
08/14/2014  11:26:00       67.513       76.234       52.321       59.320       55.203       63.817     3518.843     3047.416     4072.637        1.187        0.532      101.831       42.339        0.173      345.422       22.942      861.754
08/14/2014  11:27:00       16.140      -54.083       10.127       29.091       65.309       29.209      846.315     4265.227      853.189        0.463        0.298       56.440       26.298        0.217      345.921       23.799      861.746
08/14/2014  11:28:00       44.392       -6.267       64.470       52.511       86.552       43.464     2757.376     7491.320     1889.112        0.915        0.607       44.832       39.967        0.795      346.145       24.183      861.744
08/14/2014  11:29:00       77.800       58.168       48.445       61.302       58.399       46.032     3757.900     3410.464     2118.955        1.053        0.464       97.141       32.867        0.114      346.032       23.989      861.722
08/14/2014  11:30:00       88.976       79.010       -3.923       34.545       37.161       31.869     1193.364     1380.961     1015.634        0.888        0.179      118.993       16.669        0.020      345.417       22.934      861.727
08/14/2014  11:31:00       37.691       19.190        3.226       26.211       22.912       22.478      687.037      524.977      505.269        0.176        0.086       42.295        9.998        0.056      345.654       23.342      861.706
08/14/2014  11:32:00       99.764       65.441       11.335       62.725       38.892       45.295     3934.390     1512.575     2051.670        1.093        0.375      119.312       20.919        0.031      345.757       23.514      861.706
08/14/2014  11:33:00      130.917       55.231       60.835       87.026       64.458       44.232     7573.483     4154.859     1956.460        1.879        0.684      142.091       16.230        0.013      346.186       24.252      861.705
08/14/2014  11:34:00      104.450       56.950       24.090      120.433       44.494       38.040    14504.103     1979.706     1447.066        1.633        0.897      118.967       22.915        0.037      345.806       23.598      861.704
08/14/2014  11:35:00      199.757       86.822       36.281      103.434       61.028       65.820    10698.589     3724.373     4332.275        3.375        0.938      217.809       23.132        0.011      345.686       23.391      861.711
08/14/2014  11:36:00      109.197       56.623        5.139       68.065       54.527       35.174     4632.840     2973.207     1237.225        1.200        0.442      123.004       33.719        0.075      345.621       23.282      861.698
08/14/2014  11:37:00      130.531       39.966       19.338       61.865       83.999       35.450     3827.304     7055.817     1256.701        1.557        0.607      136.512       32.726        0.057      345.695       23.409      861.705
08/14/2014  11:38:00      217.296      155.659       61.808      124.555       86.067       61.388    15514.032     7407.449     3768.427        5.097        1.334      267.296       43.774        0.027      346.051       24.019      861.683
08/14/2014  11:39:00      278.834      107.655       15.368      135.216       87.792       81.598    18283.252     7707.353     6658.226        6.110        1.632      298.894       62.828        0.044      345.639       23.309      861.676
08/14/2014  11:40:00      140.456      112.884       87.971      102.937       79.117       61.519    10596.105     6259.538     3784.587        3.042        1.032      180.196       62.312        0.120      345.981       23.896      861.685
08/14/2014  11:41:00      274.503      163.779       68.833      122.471       85.460       68.594    14999.094     7303.477     4705.119        6.696        1.350      319.649       49.568        0.024      345.947       23.838      861.679
08/14/2014  11:42:00      233.838      163.723       25.882       91.411       63.338       57.986     8355.888     4011.706     3362.343        4.894        0.786      285.456       36.260        0.016      345.752       23.503      861.676
08/14/2014  11:43:00      239.889      148.842       42.259       66.808       52.105       56.215     4463.285     2714.961     3160.105        4.591        0.517      282.312       33.495        0.014      345.630       23.293      861.671
08/14/2014  11:44:00      213.155      134.837       26.649       82.235       82.832       61.461     6762.528     6861.092     3777.443        4.086        0.870      252.222       52.497        0.043      345.766       23.528      861.654
08/14/2014  11:45:00       86.005       85.928       82.511       89.841       72.380       59.692     8071.389     5238.889     3563.109        1.923        0.844      121.575       37.731        0.096      346.308       24.461      861.654
08/14/2014  11:46:00       44.728       74.978       69.362       63.395       54.979       62.546     4018.978     3022.699     3912.026        1.169        0.548       87.306       42.557        0.238      346.259       24.377      861.660
08/14/2014  11:47:00       35.367       56.736       62.383       66.145       45.222       41.865     4375.159     2045.038     1752.658        0.827        0.409       66.856       40.186        0.361      346.731       25.189      861.650
08/14/2014  11:48:00      166.503      119.961       19.151       72.637       48.665       43.343     5276.077     2368.237     1878.605        2.600        0.476      205.217       24.363        0.014      345.893       23.747      861.636
08/14/2014  11:49:00      205.432      139.157       47.282       91.726       61.833       54.134     8413.620     3823.370     2930.470        3.948        0.758      248.127       45.098        0.033      346.003       23.934      861.611
08/14/2014  11:50:00      175.484      114.233       27.207       77.769       76.601       52.575     6048.052     5867.685     2764.105        2.963        0.734      209.389       31.080        0.022      345.979       23.895      861.604
08/14/2014  11:51:00      145.314      112.456       77.190       88.769      102.096       92.510     7879.969    10423.520     8558.180        3.329        1.343      183.746       76.689        0.174      346.199       24.273      861.585
08/14/2014  11:52:00      180.565      143.595      136.567       91.419       97.251       88.338     8357.419     9457.799     7803.533        4.874        1.281      230.702       76.367        0.110      345.940       23.825      861.570
08/14/2014  11:53:00      192.384      130.925       60.605       75.781       74.324       70.724     5742.717     5524.004     5001.897        3.704        0.813      232.708       45.263        0.038      345.969       23.876      861.586
08/14/2014  11:54:00      159.817       77.588       28.201       85.595       48.737       42.025     7326.508     2375.284     1766.089        2.191        0.573      177.655       33.970        0.037      345.780       23.551      861.583
08/14/2014  11:55:00       58.765       72.738       45.615       56.448       51.940       47.513     3186.393     2697.806     2257.458        0.948        0.407       93.510       21.049        0.051      346.295       24.439      861.562
08/14/2014  11:56:00      163.733       94.231       17.015       58.908       45.403       39.416     3470.097     2061.465     1553.619        2.153        0.354      188.912       16.645        0.008      346.301       24.447      861.536
08/14/2014  11:57:00       46.250       95.517       -0.328       41.294       56.902       45.299     1705.163     3237.887     2052.032        0.913        0.350      106.125       35.514        0.112      346.220       24.312      861.533
08/14/2014  11:58:00        4.917       68.184       10.325       59.796       44.303       41.678     3575.587     1962.763     1737.050        0.603        0.364       68.361       40.369        0.349      345.960       23.866      861.516
08/14/2014  11:59:00      110.029       78.506       25.014       39.978       32.883       42.058     1598.218     1081.264     1768.835        1.167        0.222      135.165       23.807        0.031      346.023       23.971      861.509
08/14/2014  12:00:00       71.076       69.632        6.665       52.541       40.632       37.260     2760.597     1650.969     1388.283        0.787        0.290       99.501       29.956        0.091      346.147       24.185      861.488
08/14/2014  12:01:00      126.084       85.954       10.835       62.332       51.143       44.559     3885.233     2615.655     1985.545        1.594        0.424      152.595       28.194        0.034      346.337       24.513      861.468
08/14/2014  12:02:00       97.844       53.482       12.830       71.631      106.085       38.195     5130.961    11253.959     1458.831        1.522        0.892      111.507       18.854        0.029      346.252       24.365      861.468
08/14/2014  12:03:00       83.459       72.828       70.612       62.115       78.278       69.953     3858.278     6127.368     4893.403        1.606        0.744      110.767       49.270        0.198      346.871       25.430      861.477
08/14/2014  12:04:00      113.924       20.220       14.599       76.847       37.165       44.504     5905.533     1381.242     1980.571        1.143        0.463      115.704       33.315        0.083      346.206       24.286      861.489
08/14/2014  12:05:00       37.246       62.081       61.621       49.173       62.108       51.538     2417.961     3857.412     2656.134        0.898        0.447       72.397       45.087        0.388      346.633       25.022      861.471
08/14/2014  12:06:00      118.918      138.782      113.650      103.615       93.841       89.784    10736.038     8806.148     8061.112        3.696        1.380      182.762       67.136        0.135      346.330       24.497      861.460
08/14/2014  12:07:00      121.388       85.983       89.463       79.892       61.685       67.829     6382.781     3805.052     4600.796        2.246        0.739      148.755       49.164        0.109      346.209       24.291      861.464
08/14/2014  12:08:00       66.894       50.964       50.572       51.514       36.602       42.933     2653.680     1339.742     1843.241        0.773        0.292       84.096       23.111        0.076      346.329       24.498      861.472
08/14/2014  12:09:00      -26.751      -86.279        2.193       56.538       67.235       41.479     3196.563     4520.495     1720.474        0.880        0.472       90.331       30.103        0.111      346.210       24.293      861.469
08/14/2014  12:10:00      -82.792     -137.852       -7.242       57.140       80.662       39.105     3265.013     6506.384     1529.199        1.860        0.565      160.804       33.613        0.044      346.165       24.214      861.434
08/14/2014  12:11:00       57.921     -115.305        3.365       62.940       91.530       68.258     3961.416     8377.701     4659.110        1.683        0.850      129.035       55.398        0.184      346.952       25.570      861.405
08/14/2014  12:12:00      -23.865      -53.421        1.192       48.229       44.225       31.848     2326.004     1955.818     1014.288        0.436        0.265       58.509       31.227        0.285      346.870       25.428      861.419
08/14/2014  12:13:00       25.889      -73.428       11.162       86.974       69.909       46.550     7564.559     4887.224     2166.918        1.040        0.731       77.858       46.569        0.358      346.942       25.554      861.406
08/14/2014  12:14:00       51.119       74.559      113.013       49.123       95.468       62.636     2413.105     9114.123     3923.267        1.819        0.773       90.401       70.095        0.601      346.561       24.897      861.374
08/14/2014  12:15:00       61.322       27.782       39.234       45.510       57.051       53.760     2071.139     3254.794     2890.140        0.714        0.411       67.321       30.627        0.207      346.506       24.802      861.382
08/14/2014  12:16:00       36.731       29.028       17.677       49.377       49.822       43.608     2438.067     2482.193     1901.666        0.466        0.341       46.817       26.058        0.310      346.591       24.950      861.344
08/14/2014  12:17:00       55.547      -94.348       14.191       62.967      103.704       47.254     3964.871    10754.588     2232.896        1.457        0.848      109.485       37.296        0.116      346.811       25.325      861.342
08/14/2014  12:18:00      138.013     -150.312       24.465      103.494      128.630       87.898    10711.102    16545.592     7725.984        3.860        1.749      204.062       87.151        0.182      346.770       25.255      861.284
08/14/2014  12:19:00      128.288      -50.215       70.670      159.917      197.873      124.936    25573.333    39153.690    15608.883        5.214        4.017      137.766      159.655        1.343      346.650       25.047      861.250
08/14/2014  12:20:00       75.398      -33.319       86.740       92.499      174.848      110.298     8556.145    30571.665    12165.727        3.280        2.565       82.432      134.630        2.667      346.618       24.993      861.226
08/14/2014  12:21:00       78.169     -116.571        6.045       95.599      131.042       82.878     9139.182    17171.971     6868.759        2.645        1.659      140.354       82.763        0.348      346.994       25.640      861.219
08/14/2014  12:22:00       67.222      -45.886       46.315       74.928      109.785       72.989     5614.136    12052.760     5327.413        1.588        1.150       81.390       59.285        0.531      347.018       25.684      861.221
08/14/2014  12:23:00       16.439      -46.068       40.279       44.637       88.035       54.718     1992.493     7750.221     2994.102        0.837        0.637       48.913       39.198        0.642      347.208       26.012      861.222
08/14/2014  12:24:00       74.476       47.587       55.167       82.516       92.498       54.960     6808.940     8555.939     3020.602        1.462        0.919       88.381       50.038        0.321      346.788       25.287      861.205
08/14/2014  12:25:00       17.200       12.576       60.953       74.204       96.421       54.334     5506.293     9296.944     2952.201        1.096        0.888       21.307       47.999        5.075      346.988       25.632      861.191
08/14/2014  12:26:00       31.973       60.933       87.898       65.725       47.072       31.684     4319.830     2215.801     1003.885        1.000        0.377       68.812       24.759        0.129      347.254       26.091      861.168
08/14/2014  12:27:00       53.935       35.121       74.272       66.742       62.035       49.469     4454.474     3848.319     2447.149        1.020        0.537       64.362       29.643        0.212      347.094       25.814      861.161
08/14/2014  12:28:00       44.196      113.255      154.361      100.531      101.803       91.507    10106.508    10363.886     8373.447        3.372        1.442      121.573       84.620        0.484      347.025       25.694      861.124
08/14/2014  12:29:00      122.770      103.282      106.607       93.489      104.828       69.131     8740.237    10988.939     4779.065        3.080        1.225      160.436       75.029        0.219      346.728       25.181      861.108
08/14/2014  12:30:00      137.620      107.058       74.046       84.740       51.370       56.070     7180.819     2638.876     3143.822        2.442        0.648      174.358       46.076        0.070      346.479       24.753      861.077
08/14/2014  12:31:00       69.588       75.787       84.469      107.882       71.011       69.262    11638.430     5042.522     4797.192        1.960        1.074      102.889       43.127        0.176      346.884       25.452      861.044
08/14/2014  12:32:00       74.877       64.996       99.144       90.252       90.638       68.283     8145.426     8215.187     4662.590        2.034        1.051       99.152       70.044        0.499      346.990       25.634      861.050
08/14/2014  12:33:00       33.062       51.717       90.813       71.790      100.893       52.026     5153.839    10179.375     2706.719        1.502        0.902       61.382       62.737        1.045      346.946       25.560      861.053
08/14/2014  12:34:00       49.373      -40.696       50.177       58.439      113.694       74.810     3415.084    12926.292     5596.556        1.427        1.097       63.984       69.795        1.190      346.954       25.574      861.071
08/14/2014  12:35:00       34.022       -7.104       64.570       62.872      106.053       55.449     3952.843    11247.228     3074.580        1.182        0.914       34.756       69.133        3.957      347.209       26.013      861.082
08/14/2014  12:36:00        8.003      -48.204       22.940       29.864       62.092       44.786      891.875     3855.455     2005.760        0.483        0.338       48.864       46.810        0.918      346.820       25.343      861.075
08/14/2014  12:37:00       41.450       49.863       54.210       40.241       35.781       28.241     1619.349     1280.311      797.572        0.542        0.185       64.841       23.256        0.129      347.098       25.822      861.056
08/14/2014  12:38:00       69.668     -106.250      -11.167       81.105       89.968       49.767     6578.013     8094.260     2476.797        1.670        0.857      127.054       54.161        0.182      346.727       25.182      861.054
08/14/2014  12:39:00       43.439      -80.526       20.945       86.738       94.888       71.997     7523.536     9003.806     5183.594        1.526        1.086       91.496       68.691        0.564      347.343       26.242      861.048
08/14/2014  12:40:00      122.096     -130.293       -6.063       94.461       97.357       60.345     8922.861     9478.314     3641.526        2.698        1.102      178.560       55.860        0.098      346.747       25.215      861.038
08/14/2014  12:41:00      178.372     -196.583      -31.878       82.875       97.757       45.538     6868.306     9556.401     2073.701        4.498        0.925      265.446       45.321        0.029      346.740       25.202      861.023
08/14/2014  12:42:00      175.295     -162.735      -50.859       64.891       77.166       40.459     4210.900     5954.585     1636.915        3.580        0.590      239.188       30.332        0.016      346.581       24.929      861.010
08/14/2014  12:43:00       92.151      -79.390       27.281       85.281      102.624       69.051     7272.919    10531.683     4768.098        1.905        1.129      121.633       62.492        0.264      347.111       25.843      860.991
08/14/2014  12:44:00      113.090     -151.411      -12.862      102.149      103.767       68.828    10434.435    10767.584     4737.274        3.090        1.297      188.983       67.843        0.129      347.021       25.688      860.976
08/14/2014  12:45:00       57.996       53.410       83.250       81.083       80.201       66.598     6574.484     6432.214     4435.305        1.529        0.872       78.843       59.802        0.575      347.142       25.898      860.972
08/14/2014  12:46:00      150.728     -128.316       13.398      112.537      155.677      117.392    12664.681    24235.367    13780.965        4.501        2.534      197.949      121.585        0.377      346.925       25.521      860.951
08/14/2014  12:47:00       90.984       13.408       84.066       92.930      136.670       74.804     8636.060    18678.752     5595.656        2.421        1.646       91.966       96.072        1.091      347.189       25.976      860.959
08/14/2014  12:48:00       98.402       38.022       41.508       83.049      100.737       50.856     6897.112    10147.925     2586.284        1.624        0.982      105.492       35.216        0.111      347.031       25.706      860.950
08/14/2014  12:49:00      101.639       45.642      127.125      132.362      183.478      141.229    17519.777    33664.234    19945.551        4.984        3.556      111.416      148.829        1.784      347.211       26.012      860.922
08/14/2014  12:50:00       68.234     -112.964        5.050       84.716      101.815       77.008     7176.739    10366.310     5930.263        2.045        1.174      131.973       62.462        0.224      346.992       25.637      860.973
08/14/2014  12:51:00       83.658     -121.970       15.665       73.588      120.471       56.070     5415.129    14513.307     3143.887        2.259        1.154      147.903       65.898        0.199      347.081       25.791      860.968
08/14/2014  12:52:00       52.476      -13.735       54.929       62.961       89.904       63.633     3964.102     8082.703     4049.198        1.102        0.805       54.243       53.016        0.955      347.295       26.161      860.964
08/14/2014  12:53:00       57.801      100.594      120.416       66.330       59.254       37.900     4399.728     3510.981     1436.389        1.865        0.467      116.017       36.016        0.096      346.942       25.552      860.962
08/14/2014  12:54:00       29.396      -42.870       21.450       47.504       77.294       46.627     2256.637     5974.380     2174.112        0.678        0.520       51.981       52.255        1.011      346.919       25.514      860.937
08/14/2014  12:55:00       -9.513      -85.380       19.865       38.018       57.171       28.808     1445.369     3268.575      829.921        0.666        0.277       85.908       21.890        0.065      347.240       26.065      860.931
08/14/2014  12:56:00       18.400       23.674       53.784       58.289       94.199       51.068     3397.564     8873.475     2607.984        0.933        0.744       29.984       57.941        3.734      347.565       26.626      860.913
08/14/2014  12:57:00       26.284     -102.465      -16.498       57.287       56.956       35.059     3281.807     3243.977     1229.124        0.961        0.388      105.782       34.957        0.109      347.409       26.359      860.924
08/14/2014  12:58:00     -157.768      -75.437        6.024       82.306       76.240       40.830     6774.306     5812.607     1667.126        2.243        0.713      174.875       40.956        0.055      347.155       25.916      860.930
08/14/2014  12:59:00     -127.430      -33.442        0.998       74.435       76.246       42.956     5540.548     5813.511     1845.242        1.528        0.660      131.745       44.581        0.115      347.133       25.881      860.926
08/14/2014  13:00:00      -50.302      -31.199        7.144       68.949       39.192       28.377     4753.957     1536.051      805.256        0.532        0.355       59.191       24.231        0.168      347.371       26.294      860.914
08/14/2014  13:01:00       34.520      -64.898        2.004       41.725       75.284       41.450     1740.943     5667.630     1718.121        0.727        0.456       73.508       40.497        0.304      347.458       26.443      860.908
08/14/2014  13:02:00      -27.564       10.628       -6.325       37.018       59.721       31.560     1370.330     3566.572      996.005        0.342        0.297       29.542       33.937        1.320      347.240       26.066      860.898
08/14/2014  13:03:00     -118.177     -113.073       -8.576       91.841       96.789       47.531     8434.687     9368.093     2259.190        2.344        1.003      163.558       47.636        0.085      347.146       25.901      860.886
08/14/2014  13:04:00     -119.189     -149.719       -2.164       83.525       89.386       44.498     6976.446     7989.826     1980.100        2.678        0.847      191.369       34.001        0.032      346.925       25.520      860.909
08/14/2014  13:05:00     -166.816      -83.716       -2.692       82.044       52.953       32.684     6731.260     2803.985     1068.224        2.272        0.530      186.644       27.933        0.022      346.836       25.369      860.905
08/14/2014  13:06:00      -98.200      -54.186        0.859       63.033       46.151       34.528     3973.213     2129.924     1192.212        0.994        0.365      112.158       26.459        0.056      346.953       25.572      860.899
08/14/2014  13:07:00      -14.981       -0.293       -5.013       51.441       49.592       32.212     2646.205     2459.318     1037.592        0.320        0.307       14.984       20.761        1.920      347.228       26.045      860.877
08/14/2014  13:08:00      -54.562      -43.405       -9.306       78.717       53.184       29.552     6196.408     2828.508      873.300        0.742        0.495       69.721       19.141        0.075      347.431       26.395      860.874
08/14/2014  13:09:00     -100.134      -32.525       -4.731       49.157       33.323       30.825     2416.428     1110.425      950.178        0.779        0.224      105.284       28.975        0.076      346.954       25.573      860.870
08/14/2014  13:10:00      -65.596      -28.522        6.133       40.145       41.685       33.152     1611.659     1737.646     1099.079        0.480        0.222       71.529       26.142        0.134      347.169       25.944      860.852
08/14/2014  13:11:00      -76.442      -30.553        7.150       58.167       43.684       28.681     3383.420     1908.272      822.615        0.647        0.306       82.322       24.353        0.088      347.317       26.199      860.836
08/14/2014  13:12:00       30.876        8.831       49.073       75.000       61.990       54.820     5624.990     3842.710     3005.189        0.795        0.624       32.115       50.228        2.446      347.689       26.840      860.839
08/14/2014  13:13:00      105.507      -57.430       13.358       61.134       49.705       41.030     3737.352     2470.566     1683.492        1.125        0.395      120.125       33.306        0.077      346.904       25.487      860.851
08/14/2014  13:14:00      -23.328        2.154       -3.294       29.533       49.811       21.029      872.206     2481.100      442.235        0.218        0.190       23.428       17.713        0.572      346.990       25.636      860.822
08/14/2014  13:15:00       -6.200       13.932       22.407       31.743       18.067       23.301     1007.629      326.419      542.931        0.131        0.094       15.249       20.808        1.862      347.854       27.126      860.810
08/14/2014  13:16:00       52.012       30.965       21.523       92.109       62.633       52.671     8484.116     3922.901     2774.219        0.965        0.759       60.532       24.714        0.167      347.573       26.639      860.792
08/14/2014  13:17:00       52.597       28.396       21.260       93.403       67.168       54.607     8724.089     4511.515     2981.925        1.012        0.811       59.772       40.121        0.451      347.295       26.161      860.802
08/14/2014  13:18:00     -142.564        0.929      -21.499       34.085       56.342       33.342     1161.763     3174.441     1111.684        1.312        0.272      142.567       29.809        0.044      346.704       25.144      860.785
08/14/2014  13:19:00      -43.932       68.510      -16.403       30.015       38.836       33.050      900.875     1508.225     1092.298        0.520        0.175       81.386       29.016        0.127      346.960       25.585      860.767
08/14/2014  13:20:00      -50.210       77.627       -3.640       27.146       48.716       32.560      736.890     2373.263     1060.151        0.636        0.209       92.450       22.202        0.058      347.349       26.254      860.728
08/14/2014  13:21:00       34.213       24.559       27.863       60.324       24.821       32.866     3638.935      616.099     1080.161        0.394        0.267       42.115       18.089        0.184      347.814       27.055      860.700
08/14/2014  13:22:00      157.669       92.381       15.302       52.790       43.597       46.623     2786.833     1900.683     2173.726        2.024        0.343      182.740       22.981        0.016      347.420       26.375      860.680
08/14/2014  13:23:00       90.778       74.813       74.767      100.334       71.996       44.551    10066.983     5183.441     1984.799        1.833        0.862      117.633       41.876        0.127      347.793       27.018      860.656
08/14/2014  13:24:00       59.702     -117.006       -9.900       42.003       64.780       33.660     1764.274     4196.424     1133.005        1.222        0.355      131.357       29.265        0.050      347.268       26.114      860.637
08/14/2014  13:25:00       -6.473       14.208       22.890       30.499       39.107       27.522      930.178     1529.391      757.452        0.199        0.161       15.613       22.792        2.131      348.375       28.025      860.626
08/14/2014  13:26:00       48.782       47.125       58.632       67.698       71.793       53.742     4583.055     5154.295     2888.215        1.033        0.631       67.827       45.209        0.444      348.333       27.952      860.624
08/14/2014  13:27:00       -0.892       17.375        9.650       48.127       42.567       32.707     2316.175     1811.951     1069.755        0.280        0.260       17.398       12.976        0.556      347.971       27.328      860.620
08/14/2014  13:28:00        8.821       84.896       11.279       60.797       66.145       48.892     3696.292     4375.226     2390.458        0.894        0.523       85.353       33.483        0.154      347.867       27.148      860.623
08/14/2014  13:29:00       17.497      -48.753       28.818       80.772       85.943       50.556     6524.051     7386.205     2555.924        0.999        0.823       51.797       42.912        0.686      348.117       27.578      860.603
08/14/2014  13:30:00       98.497      -56.870       69.614      101.194      129.562       87.974    10240.212    16786.188     7739.464        2.627        1.738      113.736       93.939        0.682      347.960       27.307      860.569
08/14/2014  13:31:00       42.887       65.608      120.236       85.698      126.508       88.146     7344.126    16004.303     7769.767        2.585        1.556       78.381       98.991        1.595      347.827       27.077      860.582
08/14/2014  13:32:00       -8.207      -36.791       40.223       47.025      110.548       70.444     2211.337    12220.840     4962.425        1.121        0.970       37.696       78.833        4.374      347.728       26.908      860.575
08/14/2014  13:33:00       -1.649     -110.024      -11.025       78.732       37.904       30.778     6198.795     1436.747      947.279        1.040        0.429      110.036       20.875        0.036      347.675       26.816      860.580
08/14/2014  13:34:00      -44.685       20.708       30.898       64.415       48.589       40.616     4149.310     2360.907     1649.662        0.577        0.408       49.250       36.082        0.537      347.801       27.034      860.572
08/14/2014  13:35:00       52.131       -1.340        4.559       66.360       51.549       36.690     4403.689     2657.318     1346.131        0.557        0.420       52.148       35.401        0.461      347.868       27.149      860.558
08/14/2014  13:36:00        7.207      143.860      -24.068       51.270      107.080       55.296     2628.635    11466.155     3057.664        1.924        0.858      144.040       66.804        0.215      347.785       27.005      860.544
08/14/2014  13:37:00        3.758      105.954        2.943       55.825      103.760       47.057     3116.462    10766.063     2214.365        1.367        0.805      106.020       52.901        0.249      348.088       27.528      860.544
08/14/2014  13:38:00       98.476       42.425       35.327       88.323       43.078       41.269     7800.956     1855.706     1703.164        1.205        0.568      107.226       47.785        0.199      347.947       27.285      860.552
08/14/2014  13:39:00       34.914       49.108       71.592       39.694       69.808       59.966     1575.646     4873.103     3595.949        0.940        0.502       60.254       57.285        0.904      347.644       26.762      860.541
08/14/2014  13:40:00       60.760       15.893       17.938       75.606       73.898       34.129     5716.219     5460.900     1164.766        0.830        0.617       62.805       28.861        0.211      347.679       26.824      860.528
08/14/2014  13:41:00       53.615       45.212       51.699       81.992       49.867       34.519     6722.633     2486.705     1191.538        0.899        0.520       70.133       29.608        0.178      347.727       26.905      860.528
08/14/2014  13:42:00       32.514       61.433       -6.745       31.738       59.842       27.666     1007.289     3581.015      765.409        0.511        0.268       69.507       26.249        0.143      347.799       27.030      860.515
08/14/2014  13:43:00       77.984       71.463        2.366       56.582       37.441       37.320     3201.558     1401.818     1392.758        0.859        0.300      105.775       28.350        0.072      347.928       27.254      860.485
08/14/2014  13:44:00       50.383       68.156       54.256       69.343       68.962       65.053     4808.465     4755.761     4231.926        1.196        0.690       84.757       55.535        0.429      348.194       27.712      860.434
08/14/2014  13:45:00       94.358       86.533       92.926      100.950      109.831       64.606    10190.804    12062.805     4173.889        2.572        1.321      128.029       53.757        0.176      347.750       26.944      860.368
08/14/2014  13:46:00      133.167     -149.731        9.523      116.385      153.066       86.070    13545.445    23429.145     7408.026        4.230        2.219      200.382       97.767        0.238      347.783       27.000      860.314
08/14/2014  13:47:00      146.810     -159.350        0.744      105.875      111.002       69.558    11209.557    12321.491     4838.319        3.765        1.418      216.669       69.162        0.102      347.645       26.761      860.321
08/14/2014  13:48:00      123.174     -190.844        7.512      147.120      186.329      111.367    21644.304    34718.454    12402.642        6.019        3.438      227.142      132.208        0.339      347.746       26.935      860.360
08/14/2014  13:49:00      -17.446     -114.730        5.338       75.024       88.939       56.766     5628.602     7910.191     3222.357        1.513        0.838      116.049       18.526        0.025      347.666       26.801      860.459
08/14/2014  13:50:00      -49.572       59.249        2.055       85.732      114.280       46.720     7349.972    13059.879     2182.781        1.428        1.130       77.252       39.453        0.261      347.613       26.709      860.519
08/14/2014  13:51:00       74.463      214.406      -16.662      125.614      112.336       62.431    15778.906    12619.440     3897.590        4.204        1.615      226.968       49.144        0.047      347.446       26.418      860.383
08/14/2014  13:52:00       46.761     -135.563       25.851      118.762      188.950       99.005    14104.366    35702.127     9801.917        4.041        2.980      143.401      118.775        0.686      347.616       26.710      860.220
08/14/2014  13:53:00       37.077     -108.017       11.956       55.677       96.465       56.825     3099.873     9305.414     3229.104        1.441        0.782      114.203       57.414        0.253      347.855       27.126      860.368
08/14/2014  13:54:00      -71.502      -90.071      -17.563       76.308       81.527       43.060     5822.881     6646.666     1854.140        1.393        0.716      115.001       28.834        0.063      347.858       27.132      860.403
08/14/2014  13:55:00     -219.076     -151.754      -17.173      152.924       84.371       49.088    23385.789     7118.514     2409.621        5.211        1.646      266.503       49.208        0.034      347.851       27.116      860.379
08/14/2014  13:56:00     -460.099     -138.382      -15.666      180.026      139.056       69.730    32409.316    19336.548     4862.325       14.384        2.830      480.459       76.086        0.025      347.666       26.797      860.344
08/14/2014  13:57:00     -464.702      -43.155      -24.672      143.105      106.705       68.055    20479.132    11385.919     4631.476       12.745        1.825      466.702       69.833        0.022      347.746       26.935      860.327
08/14/2014  13:58:00     -270.316     -114.565      -10.234      131.735       92.617       59.218    17354.068     8577.929     3506.714        5.786        1.472      293.592       63.907        0.047      347.623       26.722      860.334
08/14/2014  13:59:00      -93.398      -35.087       -4.100       60.672      110.294       51.384     3681.058    12164.779     2640.310        1.422        0.924       99.771       37.716        0.143      347.933       27.260      860.323
08/14/2014  14:00:00     -259.928        9.547       -3.000      175.577      153.484       78.017    30827.309    23557.435     6086.702        6.405        3.024      260.103       80.564        0.096      348.036       27.435      860.299
08/14/2014  14:01:00     -521.516     -191.390      -42.631      206.786      206.367       94.062    42760.410    42587.425     8847.651       20.229        4.710      555.526       97.009        0.030      347.747       26.937      860.296
08/14/2014  14:02:00     -397.958     -163.326      -10.317      195.321      168.750       93.202    38150.293    28476.655     8686.678       13.022        3.766      430.169       70.338        0.027      347.760       26.961      860.294
08/14/2014  14:03:00     -358.346     -184.770      -15.803      170.443      128.235       68.599    29050.918    16444.100     4705.786       10.649        2.510      403.177       72.968        0.033      347.644       26.759      860.343
08/14/2014  14:04:00     -140.921       11.708        3.939      144.398       70.323       57.502    20850.655     4945.329     3306.430        2.455        1.455      141.407       68.660        0.236      347.939       27.270      860.336
08/14/2014  14:05:00     -369.958     -119.570      -23.484      209.628      182.087       66.549    43943.858    33155.723     4428.832       11.661        4.076      388.801       71.033        0.033      347.770       26.976      860.339
08/14/2014  14:06:00     -336.370     -277.288       -4.797      223.809      145.941       70.651    50090.486    21298.754     4991.527       13.320        3.819      435.928       83.460        0.037      347.622       26.721      860.343
08/14/2014  14:07:00     -246.464     -188.145       -8.761      125.440       95.632       58.874    15735.297     9145.399     3466.201        6.228        1.417      310.069       45.651        0.022      347.666       26.796      860.321
08/14/2014  14:08:00     -267.276      -63.597      -10.862      111.802      117.509       66.903    12499.782    13808.418     4476.009        5.319        1.539      274.738       72.383        0.069      348.072       27.498      860.302
08/14/2014  14:09:00     -342.935     -128.569        0.311      188.640      104.104       62.058    35584.902    10837.577     3851.218        9.219        2.514      366.243       54.211        0.022      348.128       27.595      860.308
08/14/2014  14:10:00     -392.157     -157.667      -29.097      164.365      112.227       61.040    27015.885    12594.878     3725.896       11.141        2.167      422.665       60.392        0.020      347.748       26.937      860.301
08/14/2014  14:11:00     -390.572      -82.872      -44.140      193.392      137.839       94.148    37400.462    18999.712     8863.872       11.330        3.263      399.267       99.749        0.062      347.998       27.371      860.305
08/14/2014  14:12:00     -409.996        7.853      -34.099      166.227      218.585       84.972    27631.521    47779.377     7220.306       12.596        4.132      410.071       79.768        0.038      348.044       27.449      860.228
08/14/2014  14:13:00     -446.376     -233.158      -13.677      218.204      188.284       87.530    47613.125    35451.050     7661.423       17.225        4.536      503.601       91.441        0.033      348.043       27.448      860.238
08/14/2014  14:14:00     -323.581      -62.885        0.832      180.223      178.204       99.881    32480.305    31756.746     9976.243        9.142        3.711      329.635      102.252        0.096      348.047       27.456      860.217
08/14/2014  14:15:00     -371.606      -73.420      -11.327      157.693      185.507       86.153    24867.087    34412.892     7422.337       10.514        3.335      378.790       79.032        0.044      348.193       27.708      860.248
08/14/2014  14:16:00     -220.305      -84.316       -1.990      137.320      119.156       61.276    18856.773    14198.258     3754.797        4.622        1.840      235.889       71.622        0.092      348.195       27.712      860.251
08/14/2014  14:17:00     -246.322     -264.933       28.393      194.755      173.350       88.196    37929.600    30050.394     7778.509       10.370        3.788      361.751       85.624        0.056      348.060       27.476      860.264
08/14/2014  14:18:00     -394.345     -244.227        0.513      220.349      163.564      106.501    48553.734    26753.290    11342.507       15.088        4.332      463.848      123.377        0.071      347.793       27.015      860.288
08/14/2014  14:19:00     -383.230     -237.818       -9.113      157.975      132.939       78.210    24955.996    17672.858     6116.846       12.612        2.437      451.024       73.692        0.027      347.769       26.976      860.297
08/14/2014  14:20:00     -343.248     -167.748      -18.680      196.272      182.730       85.972    38522.618    33390.417     7391.261       11.279        3.965      382.045       95.410        0.062      347.837       27.093      860.317
08/14/2014  14:21:00     -350.564      -29.571      -13.310      205.360      114.062       80.118    42172.718    13010.166     6418.845        9.276        3.080      351.809       88.462        0.063      348.017       27.403      860.311
08/14/2014  14:22:00     -356.437     -112.692       -1.160      203.219      124.496       70.614    41298.056    15499.283     4986.337       10.075        3.089      373.827       77.750        0.043      348.039       27.441      860.293
08/14/2014  14:23:00     -285.365     -204.199        4.376      257.777      203.262      108.263    66448.961    41315.565    11720.828       12.129        5.974      350.900      133.233        0.144      347.976       27.332      860.256
08/14/2014  14:24:00     -520.473     -250.510       -3.225      273.591      195.219      109.670    74851.970    38110.443    12027.400       22.930        6.249      577.622      126.504        0.048      347.756       26.953      860.210
08/14/2014  14:25:00     -412.394     -273.326      -17.358      262.006      209.580      115.125    68646.920    43923.787    13253.687       18.543        6.291      494.748      128.700        0.068      347.755       26.951      860.239
08/14/2014  14:26:00     -415.296     -151.100      -27.474      196.116      178.286       84.169    38461.301    31785.743     7084.424       13.668        3.867      441.929       81.540        0.034      347.761       26.961      860.252
08/14/2014  14:27:00     -406.272     -169.578      -13.536      184.771      159.988      103.729    34140.460    25596.177    10759.605       13.223        3.525      440.243       98.496        0.050      347.835       27.090      860.261
08/14/2014  14:28:00     -416.859     -148.094      -13.493      172.196      159.953       67.558    29651.491    25584.992     4564.042       12.783        2.990      442.384       73.732        0.028      347.877       27.162      860.220
08/14/2014  14:29:00     -476.772     -272.869      -13.733      222.082      166.244       88.971    49320.248    27637.093     7915.833       19.340        4.244      549.336      100.625        0.034      348.034       27.433      860.231
08/14/2014  14:30:00     -485.076      -28.549      -36.624      176.125      136.447       71.200    31019.853    18617.814     5069.378       14.607        2.735      485.916       75.619        0.024      347.702       26.859      860.290
08/14/2014  14:31:00     -278.214      -50.815       -4.811      115.174      107.716       65.445    13265.080    11602.752     4283.035        5.457        1.458      282.816       57.768        0.042      347.850       27.113      860.284
08/14/2014  14:32:00     -388.540      -89.410      -15.397      140.869      105.023       64.301    19844.204    11029.782     4134.660        9.709        1.750      398.695       75.284        0.036      347.703       26.860      860.290
08/14/2014  14:33:00     -237.492     -148.525      -14.956      116.098      129.371       50.238    13478.697    16736.780     2523.875        5.571        1.637      280.111       61.856        0.049      347.603       26.688      860.286
08/14/2014  14:34:00     -117.582     -107.228        6.487       90.377       94.762       50.639     8167.949     8979.914     2564.264        2.253        0.986      159.133       49.821        0.098      348.056       27.472      860.270
08/14/2014  14:35:00     -190.670     -116.587       -2.979      101.520       94.561       58.180    10306.229     8941.833     3384.881        3.629        1.132      223.490       49.309        0.049      348.015       27.399      860.262
08/14/2014  14:36:00     -328.723     -158.325      -33.239      164.163      111.982       72.212    26949.617    12540.027     5214.615        8.946        2.235      364.864       72.443        0.039      348.119       27.578      860.212
08/14/2014  14:37:00     -510.850     -109.311      -17.154      168.717      133.528       87.364    28465.383    17829.827     7632.530       16.356        2.696      522.414       90.320        0.030      347.971       27.323      860.214
08/14/2014  14:38:00     -324.492      -55.263       -8.654      150.594      156.446       87.640    22678.544    24475.242     7680.825        8.162        2.742      329.164       83.575        0.064      348.101       27.547      860.227
08/14/2014  14:39:00     -363.207      -42.880      -19.731      148.496       97.958       67.153    22051.122     9595.728     4509.588        8.514        1.808      365.730       66.793        0.033      347.992       27.360      860.200
08/14/2014  14:40:00     -288.595     -195.308        4.498      210.056      164.549       87.665    44123.712    27076.352     7685.180       10.015        3.944      348.472       82.488        0.056      348.058       27.472      860.186
08/14/2014  14:41:00     -403.019     -188.312        0.751      247.690      191.109      100.346    61350.375    36522.817    10069.301       15.289        5.397      444.843      115.069        0.067      348.114       27.572      860.149
08/14/2014  14:42:00     -382.040      -10.978       -0.045      207.449      156.985      101.507    43035.153    24644.339    10303.758       11.201        3.899      382.198      100.142        0.069      347.930       27.252      860.180
08/14/2014  14:43:00     -348.282     -238.727       -6.616      158.355      129.737       85.507    25076.425    16831.566     7311.491       11.377        2.461      422.245       80.718        0.037      347.873       27.154      860.205
08/14/2014  14:44:00     -339.856     -265.107      -13.833      225.694      137.008       85.036    50937.947    18771.164     7231.068       13.144        3.847      431.027       77.512        0.032      347.609       26.699      860.194
08/14/2014  14:45:00     -225.643     -123.294       12.087      170.914       92.777       66.242    29211.483     8607.643     4387.952        5.423        2.110      257.130       78.953        0.094      347.752       26.946      860.168
08/14/2014  14:46:00     -122.651      -82.954       10.090      131.526       77.491       56.634    17298.967     6004.850     3207.376        2.426        1.326      148.069       71.241        0.231      348.172       27.672      860.129
08/14/2014  14:47:00     -124.553       -9.582       -2.247       68.694       86.972       45.117     4718.894     7564.061     2035.538        1.496        0.716      124.921       40.080        0.103      348.332       27.950      860.100
08/14/2014  14:48:00     -164.998     -225.446       -0.069      151.961      133.559       73.827    23092.235    17838.018     5450.366        6.221        2.319      279.374       80.328        0.083      348.092       27.532      860.119
08/14/2014  14:49:00     -302.382     -216.298        3.084      188.025      147.294       76.750    35353.580    21695.448     5890.595       10.057        3.147      371.779       75.343        0.041      347.854       27.122      860.065
08/14/2014  14:50:00     -255.374     -138.950        4.116      152.191      108.947       74.642    23161.994    11869.373     5571.454        6.256        2.030      290.728       76.011        0.068      348.244       27.796      860.106
08/14/2014  14:51:00     -253.400     -319.630       -0.605      158.951      208.429       70.800    25265.446    43442.524     5012.683       12.003        3.686      407.891       59.553        0.021      347.789       27.010      860.074
08/14/2014  14:52:00     -248.943     -266.599       26.273      204.105      166.711       96.361    41659.011    27792.548     9285.390       10.622        3.937      364.757      102.867        0.080      347.860       27.131      860.011
08/14/2014  14:53:00     -260.667     -182.172      -22.148      174.948      126.977       83.794    30606.809    16123.201     7021.457        7.768        2.688      318.016       87.939        0.076      348.102       27.550      860.005
08/14/2014  14:54:00     -349.346      -43.998        2.850      219.104      120.165       74.493    48006.736    14439.529     5549.229        9.598        3.400      352.106       89.772        0.065      348.337       27.956      860.000
08/14/2014  14:55:00     -526.836     -142.883      -30.380      238.842      176.264      100.882    57045.611    31069.152    10177.108       19.857        4.915      545.868      107.216        0.039      347.883       27.170      859.973
08/14/2014  14:56:00     -422.830      -22.749      -32.481      156.127      178.104       70.122    24375.596    31721.065     4917.027       12.067        3.051      423.442       77.566        0.034      347.870       27.148      859.990
08/14/2014  14:57:00     -335.161      -59.164      -37.257      183.611       99.414       53.965    33712.956     9883.236     2912.187        8.186        2.325      340.343       68.361        0.040      347.779       26.993      859.992
08/14/2014  14:58:00     -284.412     -201.294       11.141      189.018      158.809       85.397    35727.775    25220.413     7292.709        9.487        3.412      348.439       87.066        0.062      347.948       27.283      859.976
08/14/2014  14:59:00     -375.041     -286.530       -1.836      208.612      150.959      110.126    43519.020    22788.528    12127.787       15.058        3.922      471.970      121.794        0.067      347.932       27.256      859.944
08/14/2014  15:00:00     -259.357      -34.966      -17.445      195.991      118.046       85.215    38412.444    13934.803     7261.557        6.419        2.980      261.703       98.976        0.143      348.304       27.899      859.947
08/14/2014  15:01:00     -316.646       56.546      -13.325      202.568      103.292       76.458    41033.976    10669.184     5845.798        8.058        2.877      321.655       94.055        0.086      348.249       27.804      859.935
08/14/2014  15:02:00     -499.389      -32.166      -27.429      182.779      154.759       75.752    33408.034    23950.437     5738.345       15.712        3.155      500.424       64.264        0.016      347.999       27.373      859.879
08/14/2014  15:03:00     -365.340     -181.234       15.080      196.989      200.520       98.950    38804.501    40208.203     9791.018       12.766        4.440      407.822      103.939        0.065      348.271       27.840      859.865
08/14/2014  15:04:00     -482.105     -150.077      -33.794      210.471      217.685      105.074    44297.922    47386.703    11040.471       17.939        5.136      504.924      114.061        0.051      348.099       27.545      859.848
08/14/2014  15:05:00     -556.929     -127.729      -11.518      224.759      190.048       96.857    50516.815    36118.117     9381.182       21.130        4.801      571.388      106.613        0.035      348.030       27.426      859.873
08/14/2014  15:06:00     -172.349     -170.961       16.856      184.128      140.683       72.377    33902.950    19791.753     5238.376        5.906        2.947      242.759       77.246        0.101      347.975       27.330      859.884
08/14/2014  15:07:00     -524.671     -372.916      -18.020      206.157      192.999      118.955    42500.812    37248.617    14150.204       25.427        4.695      643.697       99.499        0.024      347.991       27.358      859.824
08/14/2014  15:08:00     -279.141     -224.874       16.344      227.346      149.470      103.096    51686.070    22341.152    10628.843       10.669        4.233      358.452      118.506        0.109      348.135       27.607      859.846
08/14/2014  15:09:00     -371.516     -251.725       -4.226      223.652      157.931       97.740    50020.002    24942.136     9553.123       14.294        4.226      448.765       89.931        0.040      348.098       27.542      859.825
08/14/2014  15:10:00     -412.031     -157.558      -19.329      241.239      167.784       93.842    58196.032    28151.554     8806.251       14.504        4.758      441.128      116.597        0.070      348.072       27.497      859.809
08/14/2014  15:11:00     -246.362     -215.572       11.228      223.620      174.143       96.646    50005.736    30325.779     9340.497        9.846        4.484      327.361      108.714        0.110      348.123       27.587      859.819
08/14/2014  15:12:00     -292.077     -247.597        3.308      144.074      107.029       75.440    20757.175    11455.114     5691.144        9.226        1.895      382.901       71.733        0.035      347.756       26.954      859.825
08/14/2014  15:13:00     -439.263     -271.850      -32.165      180.192      132.542       73.577    32469.207    17567.418     5413.645       16.166        2.773      516.580       69.790        0.018      347.701       26.856      859.824
08/14/2014  15:14:00     -301.078     -131.371       -4.947      174.689      102.002       62.317    30516.077    10404.443     3883.410        7.636        2.240      328.491       79.751        0.059      347.853       27.121      859.799
08/14/2014  15:15:00     -292.570     -195.794       -2.945      201.968      158.203       85.541    40791.092    25028.039     7317.316        9.852        3.657      352.040       98.265        0.078      348.044       27.449      859.746
08/14/2014  15:16:00     -505.406     -261.847      -31.137      218.206      147.833       90.227    47614.002    21854.704     8140.919       20.127        3.880      569.209       88.996        0.024      348.086       27.521      859.707
08/14/2014  15:17:00     -386.391     -159.911       -6.959      210.901      158.355       97.771    44479.377    25076.148     9559.112       12.700        3.956      418.174      105.748        0.064      348.202       27.722      859.717
08/14/2014  15:18:00     -197.119     -119.826       13.344      186.933      113.284       77.330    34944.103    12833.307     5979.968        5.356        2.688      230.682       92.697        0.161      348.422       28.104      859.695
08/14/2014  15:19:00     -384.249      -44.217       -4.798      193.726      170.790       94.988    37529.745    29169.330     9022.636       11.266        3.786      386.785      102.073        0.070      348.402       28.069      859.701
08/14/2014  15:20:00     -426.634     -242.442      -26.736      214.918      205.504      100.317    46189.545    42232.064    10063.423       16.998        4.924      490.708       97.604        0.040      348.253       27.811      859.653
08/14/2014  15:21:00     -240.532     -159.170       18.764      193.087      154.918       82.071    37282.482    23999.669     6735.660        7.577        3.401      288.429       89.782        0.097      348.494       28.229      859.748
08/14/2014  15:22:00     -299.008     -178.394       11.042      211.959      163.641       80.150    44926.713    26778.466     6424.097        9.973        3.906      348.181       77.526        0.050      348.090       27.528      859.731
08/14/2014  15:23:00     -236.560      -43.029       -5.656      131.158      132.222       77.931    17202.484    17482.676     6073.217        4.929        2.038      240.441       70.268        0.085      348.278       27.854      859.752
08/14/2014  15:24:00     -104.245      -61.246       26.527      134.879       95.110       51.511    18192.457     9045.852     2653.406        2.260        1.495      120.906       62.584        0.268      348.461       28.173      859.755
08/14/2014  15:25:00     -215.853     -150.179        0.578      250.509      161.298       91.668    62754.618    26017.049     8403.005        8.314        4.859      262.957       98.996        0.142      348.432       28.121      859.728
08/14/2014  15:26:00     -299.313     -196.108      -12.109      203.995      163.208       80.871    41613.768    26636.996     6540.141       10.148        3.740      357.836       86.415        0.058      348.168       27.664      859.776
08/14/2014  15:27:00     -368.547     -225.408        0.889      179.865      182.855       80.327    32351.399    33435.998     6452.451       12.942        3.612      432.013       74.315        0.030      347.950       27.286      859.767
08/14/2014  15:28:00     -397.293      -48.808      -42.574      112.087       90.273       54.699    12563.532     8149.197     2991.986        9.287        1.185      400.280       54.399        0.018      347.845       27.104      859.758
08/14/2014  15:29:00     -160.752     -140.538       29.004      183.361      149.581       84.387    33621.347    22374.340     7121.212        5.476        3.156      213.523      103.690        0.236      348.331       27.947      859.742
08/14/2014  15:30:00     -250.374     -231.606       16.379      186.217      139.254       86.287    34676.809    19391.759     7445.405        8.904        3.076      341.070       90.849        0.071      348.022       27.411      859.725
08/14/2014  15:31:00     -112.341      -96.052        7.460      100.013       51.422       51.377    10002.646     2644.232     2639.556        1.859        0.764      147.806       54.664        0.137      348.360       27.997      859.725
08/14/2014  15:32:00     -312.814       14.406      -30.901      127.023       83.159       55.617    16134.862     6915.442     3093.197        6.257        1.307      313.146       51.487        0.027      348.347       27.974      859.698
08/14/2014  15:33:00     -301.556     -176.212        9.539      200.750      207.068       82.232    40300.546    42877.195     6762.165       10.599        4.497      349.266       92.461        0.070      348.343       27.967      859.719
08/14/2014  15:34:00     -481.998     -156.058       -9.144      202.678      189.893       91.972    41078.317    36059.490     8458.878       17.116        4.280      506.632       98.134        0.038      348.084       27.519      859.697
08/14/2014  15:35:00     -254.710      -24.849      -11.995      152.779      143.273       66.545    23341.430    20527.191     4428.272        5.696        2.415      255.920       54.890        0.046      348.282       27.861      859.740
08/14/2014  15:36:00     -157.055     -140.644       11.879      167.381      149.126       76.529    28016.261    22238.497     5856.634        5.034        2.806      210.825       91.250        0.187      348.385       28.039      859.750
08/14/2014  15:37:00     -257.767     -169.203        3.974      150.808      142.299       84.760    22743.119    20248.935     7184.317        7.262        2.509      308.340       92.460        0.090      347.969       27.320      859.700
08/14/2014  15:38:00     -187.875     -160.024       15.238      140.830      144.495       78.151    19832.961    20878.824     6107.598        5.397        2.341      246.789       76.516        0.096      348.279       27.856      859.690
08/14/2014  15:39:00     -426.635     -178.770      -10.418      174.479      150.644       88.258    30442.963    22693.493     7789.482       13.749        3.046      462.576       95.093        0.042      348.143       27.620      859.725
08/14/2014  15:40:00     -153.330     -163.876        1.595      124.888      127.197       69.230    15596.979    16179.055     4792.794        4.346        1.828      224.422       60.389        0.072      348.177       27.681      859.727
08/14/2014  15:41:00     -182.456     -100.764       -3.301       78.183       75.896       43.064     6112.531     5760.144     1854.510        2.859        0.686      208.431       29.309        0.020      348.232       27.776      859.734
08/14/2014  15:42:00      -84.822      -56.088       16.583       86.783       70.352       45.248     7531.234     4949.378     2047.360        1.257        0.726      101.689       44.328        0.190      348.746       28.666      859.732
08/14/2014  15:43:00     -540.769      -23.202      -37.832      252.409       96.662       77.132    63710.352     9343.596     5949.349       18.669        3.950      541.267       98.823        0.033      348.103       27.552      859.742
08/14/2014  15:44:00     -541.244     -160.455      -21.005      288.166      203.756       97.056    83039.443    41516.379     9419.944       22.653        6.699      564.527      132.516        0.055      347.994       27.363      859.709
08/14/2014  15:45:00     -434.138      -93.381      -20.761      182.021      113.923       82.623    33131.492    12978.413     6826.572       12.527        2.647      444.067       93.561        0.044      348.137       27.611      859.742
08/14/2014  15:46:00     -248.346     -177.171       -1.679      178.562      144.418       87.401    31884.560    20856.416     7638.981        7.671        3.019      305.066       92.852        0.093      348.011       27.393      859.693
08/14/2014  15:47:00     -143.012      -43.437       -1.604       82.976       74.959       48.583     6885.019     5618.850     2360.268        1.860        0.743      149.463       33.306        0.050      348.227       27.767      859.659
08/14/2014  15:48:00     -203.752      -45.102       -6.838      164.801       77.817       58.362    27159.462     6055.532     3406.118        4.010        1.831      208.684       70.415        0.114      348.483       28.210      859.644
08/14/2014  15:49:00     -412.992      -77.406      -17.471      231.333      159.338       95.914    53514.832    25388.749     9199.496       13.246        4.405      420.184      106.344        0.064      348.272       27.845      859.628
08/14/2014  15:50:00     -615.532     -113.966      -38.988      185.311      181.658       82.961    34340.172    32999.602     6882.539       23.379        3.711      625.993       88.055        0.020      347.990       27.357      859.595
08/14/2014  15:51:00     -468.405      -30.023      -17.547      256.902      161.027       95.070    65998.762    25929.839     9038.229       16.077        5.048      469.366      114.129        0.059      348.131       27.600      859.582
08/14/2014  15:52:00     -546.454      -97.340      -20.620      169.202      123.510       71.877    28629.278    15254.641     5166.355       17.877        2.453      555.056       61.095        0.012      348.155       27.640      859.599
08/14/2014  15:53:00     -339.737     -224.783        8.752      216.652      146.196       80.499    46937.876    21373.303     6480.051       12.039        3.740      407.368       95.500        0.055      348.286       27.868      859.629
08/14/2014  15:54:00     -381.173     -236.624       -6.209      261.480      165.200       99.429    68371.834    27291.160     9886.162       15.341        5.277      448.646      124.885        0.077      348.184       27.691      859.621
08/14/2014  15:55:00     -358.001     -294.950      -17.225      193.216      130.005       92.154    37332.501    16901.326     8492.367       13.908        3.136      463.854       86.755        0.035      348.045       27.452      859.657
08/14/2014  15:56:00     -312.881     -215.002       -7.617      182.088      156.248       82.086    33156.146    24413.592     6738.087       10.423        3.215      379.632       96.454        0.065      348.254       27.813      859.677
08/14/2014  15:57:00     -286.478     -129.132       -1.235      160.380      147.601       86.367    25721.624    21785.934     7459.303        7.685        2.748      314.237       87.708        0.078      348.323       27.931      859.691
08/14/2014  15:58:00     -346.965     -290.992      -10.514      212.943      183.509       96.350    45344.888    33675.715     9283.295       14.672        4.415      452.837      105.221        0.054      348.147       27.627      859.677
08/14/2014  15:59:00     -276.598     -146.737       33.537      283.538      221.707      116.504    80393.681    49153.889    13573.198       12.111        7.156      313.111      151.141        0.233      348.193       27.708      859.621
08/14/2014  16:00:00     -282.490     -168.884       -4.063      200.611      132.985       92.352    40244.908    17684.990     8528.837        8.739        3.323      329.124       98.623        0.090      348.241       27.790      859.644
08/14/2014  16:01:00     -249.098     -190.088       14.639      201.206      131.234       87.966    40484.026    17222.321     7738.073        8.191        3.272      313.342      104.549        0.111      348.242       27.791      859.682
08/14/2014  16:02:00     -246.997     -172.116        6.788      201.444      132.075       91.687    40579.766    17443.731     8406.553        7.854        3.322      301.050      102.106        0.115      348.132       27.601      859.655
08/14/2014  16:03:00     -246.481     -170.530        4.792      182.295      157.733       85.422    33231.557    24879.819     7296.920        7.762        3.270      299.722       75.618        0.064      348.173       27.673      859.652
08/14/2014  16:04:00     -276.974      -44.249        2.101      173.099      118.554       70.717    29963.143    14055.169     5000.902        6.384        2.451      280.486       78.015        0.077      348.381       28.032      859.644
08/14/2014  16:05:00     -333.558     -154.944      -17.447      128.365      133.004       66.178    16477.672    17690.080     4379.575        8.705        1.927      367.789       62.177        0.029      348.251       27.807      859.655
08/14/2014  16:06:00     -222.517     -158.816       16.963      218.948      163.797       93.907    47938.414    26829.362     8818.464        7.929        4.179      273.379      114.645        0.176      348.160       27.652      859.607
08/14/2014  16:07:00     -147.112     -119.525       15.230      151.985      103.210       70.267    23099.511    10652.355     4937.492        3.742        1.934      189.547       64.330        0.115      348.383       28.036      859.602
08/14/2014  16:08:00     -250.163      -57.763        2.119      173.196      113.837       68.679    29996.739    12958.972     4716.816        5.679        2.384      256.745       86.458        0.113      348.481       28.204      859.598
08/14/2014  16:09:00     -235.443     -169.516       -1.921      114.273      121.016       63.879    13058.320    14644.936     4080.578        5.797        1.589      290.119       55.728        0.037      348.319       27.924      859.577
08/14/2014  16:10:00     -333.450     -231.442      -11.920      149.564      134.353       76.437    22369.459    18050.631     5842.561       10.557        2.313      405.900       73.793        0.033      348.352       27.981      859.554
08/14/2014  16:11:00     -356.060     -200.454       -9.449      251.435      175.211       94.389    63219.312    30698.751     8909.205       13.492        5.141      408.608      125.885        0.095      348.365       28.004      859.546
08/14/2014  16:12:00     -281.149      -46.909       -1.579      209.158      129.319       68.010    43747.191    16723.454     4625.366        7.316        3.255      285.035       80.665        0.080      348.420       28.100      859.567
08/14/2014  16:13:00     -256.113      -49.321       16.700      205.838      192.792       93.006    42369.455    37168.896     8650.058        7.823        4.409      260.818      106.787        0.168      348.451       28.154      859.575
08/14/2014  16:14:00     -403.299     -244.768       -8.380      241.029      192.315      102.076    58094.781    36984.980    10419.573       16.404        5.275      471.764      116.040        0.061      348.118       27.576      859.567
08/14/2014  16:15:00     -454.317     -192.517       -9.853      214.719      176.163       87.395    46104.352    31033.479     7637.882       16.415        4.239      493.423       96.635        0.038      348.050       27.460      859.587
08/14/2014  16:16:00     -276.909      -90.111       -5.041      214.756      181.901       75.300    46119.941    33087.872     5670.086        8.483        4.244      291.202       88.632        0.093      348.215       27.746      859.539
08/14/2014  16:17:00     -190.597     -114.232       19.655      208.310      207.679      102.203    43393.143    43130.675    10445.461        7.335        4.848      222.207      105.179        0.224      348.395       28.058      859.562
08/14/2014  16:18:00     -294.009     -168.866       -8.513      144.893      110.153       75.589    20994.111    12133.757     5713.738        7.693        1.942      339.053       78.334        0.053      348.093       27.534      859.553
08/14/2014  16:19:00     -359.127     -217.203       10.680      220.139      157.843      110.957    48461.042    24914.260    12311.507       13.096        4.284      419.701      125.283        0.089      348.129       27.595      859.576
08/14/2014  16:20:00     -433.473     -238.472       -2.953      231.457      195.154      111.316    53572.548    38085.181    12391.257       17.439        5.202      494.740      118.862        0.058      348.057       27.473      859.525
08/14/2014  16:21:00     -180.565      -74.475       36.294      175.541      183.844       81.292    30814.628    33798.693     6608.334        5.533        3.561      195.321      101.480        0.270      348.331       27.946      859.550
08/14/2014  16:22:00     -521.863      -41.904      -41.299      183.369      140.402       90.660    33624.249    19712.777     8219.174       16.867        3.078      523.543       83.350        0.025      348.219       27.752      859.543
08/14/2014  16:23:00     -324.298      -58.784        2.917      214.787      123.367       93.863    46133.381    15219.409     8810.189        8.938        3.508      329.583      110.050        0.111      348.332       27.948      859.551
08/14/2014  16:24:00     -562.781     -131.257       -4.125      250.835      168.678       92.771    62918.039    28452.173     8606.378       21.695        4.999      577.885      105.114        0.033      348.129       27.595      859.513
08/14/2014  16:25:00     -421.171     -214.425      -19.912      192.267      162.398       95.989    36966.786    26373.110     9213.850       14.814        3.628      472.613       89.359        0.036      348.232       27.774      859.525
08/14/2014  16:26:00     -374.358      -87.839      -11.785      152.124      152.708       84.389    23141.638    23319.601     7121.555       10.078        2.679      384.525       82.432        0.046      348.271       27.840      859.555
08/14/2014  16:27:00     -310.584     -196.545       14.239      210.915      139.404       83.770    44485.336    19433.566     7017.416       10.310        3.547      367.549       84.829        0.053      348.310       27.907      859.546
08/14/2014  16:28:00     -402.127     -106.735       13.026      332.102      213.087      105.381   110291.917    45405.957    11105.236       17.000        8.340      416.051      146.708        0.124      348.143       27.621      859.500
08/14/2014  16:29:00     -377.136     -266.584       18.791      267.627      225.162      109.902    71624.424    50697.826    12078.453       17.400        6.720      461.843      139.693        0.091      348.123       27.586      859.493
08/14/2014  16:30:00     -435.762     -223.619      -10.747      242.506      192.032       97.732    58809.227    36876.281     9551.583       17.260        5.262      489.790      116.266        0.056      347.848       27.111      859.494
08/14/2014  16:31:00     -263.420     -128.587        0.458      151.602      158.029       67.999    22983.092    24973.142     4623.893        6.924        2.629      293.129       75.125        0.066      348.191       27.705      859.483
08/14/2014  16:32:00     -307.153     -119.101      -12.536      208.913      148.432       83.592    43644.572    22031.952     6987.677        9.066        3.633      329.436       95.970        0.085      348.250       27.805      859.467
08/14/2014  16:33:00     -404.834     -199.963       -4.043      247.877      151.646       93.729    61443.193    22996.630     8785.176       14.854        4.661      451.526      116.318        0.066      348.194       27.710      859.452
08/14/2014  16:34:00     -441.908     -214.194      -10.272      207.375      158.776       93.274    43004.405    25209.861     8700.047       15.908        3.846      491.083      103.245        0.044      348.070       27.494      859.452
08/14/2014  16:35:00     -231.812     -198.991       29.034      220.989      135.951       85.031    48836.254    18482.682     7230.222        8.435        3.727      305.507       96.851        0.101      348.148       27.630      859.478
08/14/2014  16:36:00     -297.469     -107.946        1.241      166.546      180.560       82.146    27737.556    32601.768     6748.036        8.360        3.354      316.449       77.263        0.060      348.218       27.750      859.460
08/14/2014  16:37:00     -300.554       43.614       -7.453      196.513      109.580       78.944    38617.354    12007.770     6232.186        7.456        2.843      303.702       88.708        0.085      348.320       27.927      859.480
08/14/2014  16:38:00     -533.290       86.687      -52.812      177.910      135.867       65.693    31652.028    18459.788     4315.573       17.455        2.721      540.289       58.654        0.012      348.027       27.420      859.433
08/14/2014  16:39:00     -295.702      -97.051      -12.771      206.496      234.626       88.935    42640.589    55049.565     7909.433       10.129        5.280      311.221       97.945        0.099      348.187       27.697      859.429
08/14/2014  16:40:00     -506.947     -338.191      -19.801      216.555      223.975      111.106    46896.250    50164.788    12344.609       24.056        5.470      609.400      118.037        0.038      348.003       27.378      859.377
08/14/2014  16:41:00     -378.005     -305.697      -11.593      227.993      186.432      103.852    51980.738    34756.815    10785.150       16.698        4.876      486.146      114.870        0.056      348.125       27.589      859.398
08/14/2014  16:42:00     -313.295     -281.023       -3.380      177.234      132.621       93.394    31411.978    17588.257     8722.463       11.742        2.886      420.866       85.423        0.041      348.089       27.526      859.414
08/14/2014  16:43:00     -481.731     -241.275        9.532      233.860      172.145      105.085    54690.317    29633.995    11042.937       19.285        4.768      538.775      101.622        0.036      347.966       27.316      859.381
08/14/2014  16:44:00     -492.469       -5.772      -29.210      196.832      188.680       88.731    38742.815    35600.304     7873.269       16.280        4.111      492.503       81.402        0.027      348.253       27.811      859.461
08/14/2014  16:45:00     -539.464     -102.227      -53.204      178.966      198.803       80.037    32028.843    39522.621     6405.884       19.111        3.898      549.064       79.147        0.021      347.989       27.353      859.465
08/14/2014  16:46:00     -330.227     -123.586       -2.527      209.496      154.254       79.192    43888.489    23794.361     6271.393        9.913        3.698      352.595       97.787        0.077      348.216       27.747      859.451
08/14/2014  16:47:00     -326.190      -26.571       -8.573      181.221      139.223       81.119    32841.014    19383.035     6580.230        8.298        2.940      327.271       73.525        0.050      348.244       27.795      859.471
08/14/2014  16:48:00     -293.065      -42.651        3.429      198.077      143.291       84.698    39234.449    20532.330     7173.755        7.732        3.347      296.153       92.028        0.097      348.287       27.870      859.437
08/14/2014  16:49:00     -268.030      -67.805      -12.014      128.992      153.646       75.350    16639.045    23606.984     5677.607        6.124        2.296      276.474       69.161        0.063      348.448       28.149      859.441
08/14/2014  16:50:00     -308.333     -197.183        7.954      159.825      158.723       78.661    25543.898    25192.920     6187.476        9.546        2.846      365.992       77.977        0.045      348.327       27.938      859.445
08/14/2014  16:51:00     -347.717     -234.732       -5.145      166.460      159.374       85.616    27708.773    25400.157     7330.084       11.822        3.022      419.531       87.853        0.044      348.153       27.639      859.455
08/14/2014  16:52:00     -338.209     -164.382       -4.290      246.800      177.737      100.514    60910.440    31590.571    10103.011       12.199        5.130      376.041      117.698        0.098      348.234       27.777      859.455
08/14/2014  16:53:00     -425.884     -280.358      -18.172      243.999      219.007      116.614    59535.348    47964.236    13598.788       19.068        6.055      509.880      131.186        0.066      347.913       27.223      859.442
08/14/2014  16:54:00     -375.184     -176.087      -12.485      156.742      128.866       73.507    24567.930    16606.321     5403.255       10.924        2.329      414.451       69.904        0.028      348.091       27.531      859.477
08/14/2014  16:55:00     -314.674     -192.637      -10.181      161.334      145.408       75.649    26028.699    21143.379     5722.843        9.455        2.645      368.957       78.578        0.045      348.128       27.593      859.477
08/14/2014  16:56:00     -133.066      -36.346        7.072      121.595      116.776       66.315    14785.278    13636.558     4397.615        2.594        1.641      137.940       63.688        0.213      348.378       28.028      859.450
08/14/2014  16:57:00     -226.525      -34.557       -2.186      181.771      152.521       80.038    33040.844    23262.638     6406.034        5.760        3.135      229.145      106.472        0.216      348.358       27.992      859.447
08/14/2014  16:58:00     -472.737     -181.809      -35.791      256.852      218.354       96.853    65973.129    47678.255     9380.521       19.040        6.152      506.492      120.187        0.056      348.141       27.617      859.474
08/14/2014  16:59:00     -444.226      -28.792       -6.280      264.193      186.417       90.098    69798.003    34751.299     8117.711       15.541        5.633      445.158       93.167        0.044      348.127       27.592      859.478
08/14/2014  17:00:00     -509.843       25.708      -24.867      208.810      157.489       93.918    43601.734    24802.758     8820.508       16.921        3.861      510.491       87.775        0.030      348.023       27.413      859.477
08/14/2014  17:01:00     -547.819     -160.504      -27.955      253.327      197.009      110.760    64174.365    38812.597    12267.831       22.093        5.763      570.848      103.274        0.033      348.029       27.424      859.457
08/14/2014  17:02:00     -288.443      -48.239        3.998      268.457      208.457      116.116    72069.364    43454.451    13482.872       10.725        6.450      292.448      146.573        0.251      348.198       27.715      859.476
08/14/2014  17:03:00     -464.439     -138.420        0.367      231.445      158.695       95.646    53566.754    25184.080     9148.087       16.136        4.395      484.628      108.284        0.050      347.891       27.186      859.457
08/14/2014  17:04:00     -255.384      -54.176      -14.773      154.312      146.805       63.221    23812.044    21551.595     3996.846        5.886        2.468      261.067       73.182        0.079      348.159       27.648      859.457
08/14/2014  17:05:00     -264.019     -147.163       10.170      179.286      139.987       79.528    32143.347    19596.284     6324.690        7.475        2.903      302.263       92.656        0.094      348.139       27.613      859.438
08/14/2014  17:06:00     -327.086     -261.863       -9.966      215.404      173.647       91.988    46398.952    30153.387     8461.714       13.032        4.251      418.996      107.469        0.066      348.104       27.554      859.416
08/14/2014  17:07:00     -339.426     -254.258      -15.648      143.702      137.985       82.022    20650.366    19039.838     6727.670       11.325        2.321      424.096       89.234        0.044      348.078       27.508      859.443
08/14/2014  17:08:00     -315.696     -262.558       -4.326      201.041      181.942      100.968    40417.287    33102.953    10194.544       12.615        4.186      410.610      111.581        0.074      348.058       27.474      859.408
08/14/2014  17:09:00     -313.086     -150.170        5.753      229.841      150.623       97.917    52826.808    22687.410     9587.824       10.284        4.255      347.237      113.773        0.107      348.167       27.662      859.416
08/14/2014  17:10:00     -421.606     -133.133        6.214      283.324      199.683      105.317    80272.517    39873.233    11091.740       16.335        6.562      442.127      127.719        0.083      348.029       27.425      859.415
08/14/2014  17:11:00     -367.934     -102.444      -15.509      194.563      137.841       70.482    37854.570    19000.011     4967.655       10.395        3.091      381.930       77.224        0.041      347.941       27.272      859.431
08/14/2014  17:12:00     -361.109     -200.021       -6.072      203.195      187.231       94.445    41288.350    35055.406     8919.828       12.784        4.263      412.805       79.889        0.037      347.946       27.280      859.389
08/14/2014  17:13:00     -361.069     -134.597      -38.134      110.538      126.264       67.362    12218.732    15942.503     4537.670        9.131        1.635      385.340       54.026        0.020      348.080       27.512      859.394
08/14/2014  17:14:00     -507.372     -109.071      -24.591      183.538      141.649       70.544    33686.183    20064.473     4976.396       16.432        2.936      518.963       81.710        0.025      347.883       27.172      859.379
08/14/2014  17:15:00     -543.603     -178.789      -21.368      227.683      186.151       83.595    51839.465    34652.252     6988.098       21.068        4.674      572.250       94.506        0.027      347.929       27.250      859.348
08/14/2014  17:16:00     -271.244     -152.520        5.471      187.293      131.738       89.601    35078.627    17354.917     8028.341        7.865        3.023      311.184      104.239        0.112      348.052       27.463      859.306
08/14/2014  17:17:00     -398.125     -238.610        0.561      228.683      167.110       87.898    52295.697    27925.848     7726.034       15.168        4.397      464.153      104.805        0.051      348.173       27.673      859.300
08/14/2014  17:18:00     -484.344     -105.726      -40.658      250.589      157.234       85.418    62794.940    24722.457     7296.269       17.110        4.741      495.749      100.539        0.041      348.078       27.508      859.310
08/14/2014  17:19:00     -336.963      -99.857        3.148      184.868      155.897       84.235    34176.078    24303.941     7095.517        9.454        3.279      351.448       72.424        0.042      348.230       27.771      859.296
08/14/2014  17:20:00     -297.316     -113.099       -6.014      160.629      144.352       75.242    25801.707    20837.461     5661.391        7.675        2.615      318.101       81.806        0.066      348.211       27.739      859.327
08/14/2014  17:21:00     -377.948     -152.294       -9.892      149.180      162.186       70.401    22254.635    26304.356     4956.311       10.981        2.676      407.477       66.368        0.027      348.219       27.752      859.341
08/14/2014  17:22:00     -365.497      -98.154      -22.327      190.091      124.585       70.662    36134.713    15521.407     4993.090       10.017        2.832      378.448       79.829        0.044      348.101       27.549      859.317
08/14/2014  17:23:00     -389.541      -41.071      -31.152      181.264      130.250       81.360    32856.696    16965.067     6619.448       10.541        2.822      391.700       87.813        0.050      348.212       27.741      859.325
08/14/2014  17:24:00     -488.937     -105.868      -17.186      192.788      162.310       86.394    37167.379    26344.488     7463.845       16.075        3.549      500.267      100.478        0.040      348.049       27.456      859.296
08/14/2014  17:25:00     -477.970     -339.181      -10.924      248.813      195.851      116.019    61908.138    38357.497    13460.394       22.865        5.686      586.088      130.453        0.050      347.993       27.363      859.276
08/14/2014  17:26:00     -465.232     -319.111       -4.238      255.591      212.423      131.184    65326.719    45123.492    17209.337       22.295        6.383      564.156      132.248        0.055      347.898       27.197      859.200
08/14/2014  17:27:00     -501.533     -257.893      -31.466      248.054      209.875      102.036    61530.624    44047.524    10411.289       21.749        5.799      563.954      106.736        0.036      347.942       27.273      859.243
08/14/2014  17:28:00     -233.383      -57.863       27.325      244.533      226.046      100.593    59796.221    51096.612    10118.923        8.976        6.051      240.449      121.907        0.257      348.059       27.476      859.245
08/14/2014  17:29:00     -364.122     -163.206        5.201      236.032      180.051      108.858    55711.098    32418.244    11849.964       12.959        4.999      399.026      114.835        0.083      348.007       27.385      859.265
08/14/2014  17:30:00     -438.122     -174.548      -21.641      211.685      199.432       95.890    44810.503    39773.170     9194.799       15.831        4.689      471.612      106.514        0.051      347.946       27.280      859.273
08/14/2014  17:31:00     -399.591     -117.708      -14.103      276.796      182.529       88.927    76616.101    33316.959     7908.047       14.576        5.892      416.567      102.432        0.060      347.964       27.311      859.281
08/14/2014  17:32:00     -371.121     -114.732       -4.989      182.642      130.488       84.963    33358.115    17027.121     7218.667       10.425        2.880      388.451       89.603        0.053      348.000       27.374      859.304
08/14/2014  17:33:00     -220.980     -126.096        5.455      217.559      149.680       95.108    47332.068    22404.229     9045.499        7.176        3.939      254.425      103.102        0.164      348.017       27.401      859.294
08/14/2014  17:34:00     -295.660     -137.213      -13.879      166.466      192.510       85.673    27710.818    37060.014     7339.874        8.926        3.606      325.948       88.676        0.074      348.077       27.506      859.293
08/14/2014  17:35:00     -399.930       36.825      -29.213      177.879      125.062       77.351    31640.879    15640.488     5983.151       10.770        2.663      401.622       76.606        0.036      348.038       27.440      859.309
08/14/2014  17:36:00     -261.629      -53.998       -6.373      106.055      107.163       58.855    11247.728    11483.963     3463.955        4.880        1.310      267.143       46.617        0.030      348.124       27.588      859.338
08/14/2014  17:37:00     -293.125     -191.571      -18.950      169.711      115.358       74.725    28801.957    13307.467     5583.817        8.533        2.385      350.174       73.829        0.044      348.040       27.442      859.301
08/14/2014  17:38:00     -356.452       41.714      -38.183      195.596      135.554       71.855    38257.926    18374.934     5163.134        9.601        3.090      358.885       79.342        0.049      348.205       27.729      859.291
08/14/2014  17:39:00     -404.071      -94.100       -8.057      203.686      152.586       80.477    41487.828    23282.363     6476.587       12.171        3.562      414.883       97.275        0.055      348.056       27.469      859.290
08/14/2014  17:40:00     -396.326     -107.362       -3.259      183.701      161.239       85.456    33746.073    25997.979     7302.756       11.782        3.352      410.611       94.627        0.053      347.985       27.348      859.267
08/14/2014  17:41:00     -325.693      -78.339      -30.892      200.526      120.403       68.808    40210.632    14496.835     4734.596        8.629        2.972      334.982       88.980        0.071      348.025       27.415      859.268
08/14/2014  17:42:00     -233.053      -19.153       13.047      186.991      150.435       96.238    34965.540    22630.646     9261.804        6.084        3.343      233.839       96.511        0.170      348.086       27.523      859.261
08/14/2014  17:43:00     -326.072      -47.572      -10.405      237.856      142.765       88.417    56575.518    20381.962     7817.515        9.672        4.239      329.524      105.856        0.103      348.185       27.694      859.252
08/14/2014  17:44:00     -520.495      -86.376      -16.352      210.899      192.356       96.120    44478.544    37000.760     9239.014       18.466        4.536      527.613      100.220        0.036      347.931       27.256      859.249
08/14/2014  17:45:00     -589.113     -101.983      -29.561      239.021      197.091      107.280    57131.175    38844.670    11508.929       23.289        5.374      597.875      106.083        0.031      347.800       27.029      859.261
08/14/2014  17:46:00     -463.012       55.060      -28.149      210.381      134.196       87.147    44260.006    18008.679     7594.590       14.402        3.493      466.274       95.173        0.042      347.864       27.139      859.254
08/14/2014  17:47:00     -513.338      -40.023      -34.417      203.789      157.741       83.598    41530.007    24882.289     6988.699       16.984        3.670      514.895       63.127        0.015      347.884       27.172      859.255
08/14/2014  17:48:00     -483.511       62.334      -37.229      211.027      159.522       88.864    44532.507    25447.126     7896.801       15.845        3.894      487.513       98.825        0.041      347.981       27.340      859.271
08/14/2014  17:49:00     -547.961      -48.437      -58.819      200.383      161.031       87.977    40153.525    25930.858     7739.945       18.993        3.691      550.098       92.812        0.028      347.827       27.074      859.263
08/14/2014  17:50:00     -616.452     -239.407      -20.669      183.001      135.848       90.696    33489.461    18454.699     8225.818       24.895        3.008      661.308       85.119        0.017      347.769       26.975      859.258
08/14/2014  17:51:00     -297.835      -50.566      -25.829      210.191      160.313       65.604    44180.057    25700.296     4303.829        8.304        3.709      302.097       86.958        0.083      347.854       27.124      859.287
08/14/2014  17:52:00     -289.779     -110.940       -7.984      114.406       92.871       55.937    13088.750     8624.949     3128.952        6.059        1.242      310.290       50.465        0.026      348.003       27.377      859.305
08/14/2014  17:53:00     -456.602      -28.123      -25.680      224.982      191.128       94.103    50616.738    36529.943     8855.385       15.295        4.800      457.467      109.818        0.058      347.880       27.166      859.287
08/14/2014  17:54:00     -349.598      -22.722       -8.534      236.365      192.256      101.307    55868.471    36962.335    10263.020       11.293        5.155      350.336      119.718        0.117      348.016       27.401      859.254
08/14/2014  17:55:00     -518.514      -63.235      -48.287      202.267      161.135       86.817    40911.794    25964.541     7537.230       17.479        3.721      522.355       77.959        0.022      347.906       27.210      859.267
08/14/2014  17:56:00     -433.916     -135.822      -16.316      241.007      172.761       87.125    58084.469    29846.455     7590.740       15.124        4.776      454.676       66.609        0.021      347.943       27.274      859.279
08/14/2014  17:57:00     -630.430     -200.609      -26.707      245.951      177.519       97.465    60491.672    31512.913     9499.356       26.993        5.075      661.578      110.815        0.028      347.836       27.090      859.283
08/14/2014  17:58:00     -539.653     -146.436      -35.682      222.336      182.217       80.993    49433.401    33203.204     6559.924       20.155        4.460      559.168       65.456        0.014      347.846       27.107      859.272
08/14/2014  17:59:00     -392.617     -156.098        4.403      255.191      187.137      105.589    65122.315    35020.284    11148.951       14.489        5.565      422.510      116.861        0.077      347.881       27.167      859.302
08/14/2014  18:00:00     -529.178     -134.933      -11.237      216.576      201.039       94.710    46905.323    40416.618     8970.059       19.731        4.815      546.110       73.943        0.018      347.772       26.979      859.319
08/14/2014  18:01:00     -364.794      -82.927      -36.638      123.872      139.723       53.761    15344.172    19522.534     2890.228        8.952        1.888      374.101       37.473        0.010      347.924       27.242      859.329
08/14/2014  18:02:00     -602.540       22.936      -44.866      189.436      150.584       90.255    35885.844    22675.422     8145.906       21.614        3.335      602.977       89.804        0.022      347.708       26.868      859.305
08/14/2014  18:03:00     -496.713      -35.993      -27.300      200.112      180.186       82.582    40044.763    32467.037     6819.758       16.403        3.967      498.016       94.546        0.036      347.756       26.952      859.276
08/14/2014  18:04:00     -463.958     -114.709      -23.707      183.487      161.087       90.736    33667.553    25949.012     8233.041       14.840        3.392      477.928       83.553        0.031      347.808       27.042      859.257
08/14/2014  18:05:00     -521.802      -86.858      -37.413      237.135      209.364       94.168    56233.066    43833.205     8867.663       19.506        5.447      528.982      119.645        0.051      347.807       27.039      859.249
08/14/2014  18:06:00     -455.641       -9.393      -25.048      180.757      121.390       86.701    32673.039    14735.513     7517.094       13.161        2.746      455.738       90.180        0.039      347.821       27.065      859.283
08/14/2014  18:07:00     -366.604      -33.792      -26.906      135.671      158.321       68.155    18406.668    25065.513     4645.124        9.218        2.406      368.159       67.050        0.033      347.779       26.992      859.279
08/14/2014  18:08:00     -432.007     -120.077       -6.343      226.812      194.134       99.533    51443.575    37688.078     9906.866       15.004        4.952      448.384      118.689        0.070      347.810       27.046      859.296
08/14/2014  18:09:00     -496.719     -111.277      -27.262      219.415      170.871       90.073    48142.891    29196.802     8113.190       17.264        4.273      509.031       94.232        0.034      347.712       26.877      859.270
08/14/2014  18:10:00     -496.806     -137.449      -36.531      135.882      135.351       63.325    18463.933    18319.850     4010.078       15.391        2.040      515.469       50.199        0.009      347.715       26.880      859.285
08/14/2014  18:11:00     -191.842     -121.015        9.738      152.585      106.213       75.131    23282.065    11281.137     5644.739        4.587        2.010      226.822       81.067        0.128      347.818       27.062      859.275
08/14/2014  18:12:00     -254.327      -61.551      -23.309      182.463      129.815       65.638    33292.721    16851.929     4308.304        6.172        2.723      261.669       77.857        0.089      347.862       27.135      859.260
08/14/2014  18:13:00     -536.887        6.118       -8.714      239.672      283.684      118.086    57442.850    80476.715    13944.300       22.008        7.593      536.922      114.214        0.045      347.746       26.935      859.242
08/14/2014  18:14:00     -500.086       -6.892      -24.000      229.766      191.825       92.079    52792.494    36796.714     8478.574       17.437        4.903      500.133       87.965        0.031      347.705       26.864      859.216
08/14/2014  18:15:00     -543.420       14.071      -20.470      227.819      192.079      103.490    51901.417    36894.226    10710.136       19.769        4.975      543.602      112.072        0.043      347.677       26.816      859.221
08/14/2014  18:16:00     -373.170      -24.630      -19.398      164.872      109.373       84.883    27182.828    11962.401     7205.152        9.329        2.318      373.982       87.393        0.055      347.763       26.963      859.250
08/14/2014  18:17:00     -504.332      -35.712      -20.976      177.646      179.257       84.704    31558.195    32133.192     7174.705       16.345        3.543      505.595       76.636        0.023      347.712       26.876      859.255
08/14/2014  18:18:00     -473.548      -23.600      -21.532      180.827      150.904       85.978    32698.383    22772.069     7392.278       14.405        3.143      474.136       81.638        0.030      347.675       26.813      859.267
08/14/2014  18:19:00     -488.815     -120.874      -17.871      195.212      152.112       86.854    38107.603    23138.210     7543.558       16.132        3.439      503.538       96.695        0.037      347.671       26.806      859.284
08/14/2014  18:20:00     -273.408     -120.196      -11.307      214.957      146.326       78.759    46206.438    21411.364     6203.040        8.156        3.691      298.662       86.410        0.084      347.726       26.902      859.305
08/14/2014  18:21:00     -190.412      -60.923       19.355      190.234      125.279       79.206    36189.039    15694.806     6273.592        4.924        2.908      199.921       96.036        0.231      347.807       27.042      859.328
08/14/2014  18:22:00     -333.643      -49.145       -8.692      206.756      196.677       98.009    42747.999    38681.771     9605.679       10.240        4.552      337.243      101.019        0.090      347.713       26.878      859.289
08/14/2014  18:23:00     -586.627     -143.600      -24.252      184.301      144.573       94.383    33966.856    20901.480     8908.082       21.455        3.189      603.947      102.327        0.029      347.604       26.690      859.309
08/14/2014  18:24:00     -569.945     -141.724      -25.749      274.375      251.153      102.461    75281.883    63077.761    10498.282       24.719        7.443      587.301      108.427        0.034      347.581       26.651      859.326
08/14/2014  18:25:00     -612.761      -24.638      -21.001      237.896      245.308      120.054    56594.394    60175.786    14412.944       25.383        6.559      613.256      126.975        0.043      347.511       26.528      859.317
08/14/2014  18:26:00     -469.059      -70.897       -8.532      184.692      161.066       92.103    34111.157    25942.374     8483.005       14.681        3.427      474.386       92.495        0.038      347.565       26.624      859.356
08/14/2014  18:27:00     -379.322      -87.074      -14.992      185.496      122.936       79.813    34408.773    15113.381     6370.147       10.378        2.795      389.188       93.204        0.057      347.629       26.734      859.399
08/14/2014  18:28:00     -493.631     -120.659      -20.136      237.453      157.376      101.299    56384.118    24767.361    10261.563       17.501        4.571      508.164      107.596        0.045      347.524       26.551      859.407
08/14/2014  18:29:00     -495.780     -215.988      -13.471      306.989      227.831       98.929    94242.278    51906.818     9786.957       22.425        7.797      540.786      111.106        0.042      347.485       26.484      859.372
08/14/2014  18:30:00     -274.044     -121.115       -5.211      221.653      159.768       91.277    49129.938    25525.884     8331.546        8.638        4.149      299.614      106.944        0.127      347.528       26.561      859.392
08/14/2014  18:31:00     -320.095      -27.699       -0.459      188.581      149.672       76.610    35562.648    22401.693     5869.135        8.352        3.192      321.292       75.456        0.055      347.567       26.626      859.399
08/14/2014  18:32:00     -314.709     -151.646      -11.839      121.660      134.089       68.385    14801.225    17979.982     4676.504        7.981        1.873      349.340       54.896        0.025      347.573       26.637      859.401
08/14/2014  18:33:00     -364.026      -95.970       -8.438      154.783      138.866       77.032    23957.891    19283.698     5933.998        9.548        2.459      376.463       81.158        0.046      347.610       26.701      859.380
08/14/2014  18:34:00     -294.434     -126.905      -24.750      178.533      121.696       81.260    31874.152    14809.850     6603.167        7.834        2.664      320.619       90.355        0.079      347.568       26.627      859.408
08/14/2014  18:35:00     -317.702     -137.135      -17.058      128.859      128.932       60.768    16604.568    16623.576     3692.702        7.847        1.846      346.035       65.217        0.036      347.549       26.595      859.415
08/14/2014  18:36:00     -431.908      -91.861      -19.283      198.142      167.000       74.681    39260.344    27889.019     5577.270       13.403        3.636      441.569       79.415        0.032      347.511       26.530      859.398
08/14/2014  18:37:00     -506.127     -140.689      -14.918      233.820      189.166      104.601    54671.878    35783.633    10941.348       18.877        5.070      525.317      112.027        0.045      347.464       26.447      859.349
08/14/2014  18:38:00     -391.412     -170.497      -18.104      193.881      159.903       79.342    37590.006    25568.822     6295.230       12.601        3.473      426.935       74.290        0.030      347.477       26.470      859.360
08/14/2014  18:39:00     -535.888     -177.956      -16.189      283.666      171.350      104.897    80466.174    29360.758    11003.481       21.994        6.042      564.663      122.882        0.047      347.388       26.318      859.376
08/14/2014  18:40:00     -468.316        5.442      -14.391      246.298      161.502       95.751    60662.692    26082.987     9168.333       15.772        4.796      468.347      114.201        0.059      347.407       26.350      859.392
08/14/2014  18:41:00     -526.427      -91.626       -7.243      237.101      162.451       92.416    56217.117    26390.305     8540.662       18.834        4.557      534.341      108.031        0.041      347.383       26.310      859.412
08/14/2014  18:42:00     -394.539       14.657      -17.188      165.031      141.350       76.835    27235.156    19979.868     5903.644       10.463        2.656      394.812       64.919        0.027      347.437       26.401      859.438
08/14/2014  18:43:00     -411.264     -173.760       -8.671      200.270      134.670       86.813    40108.029    18135.928     7536.491       13.258        3.289      446.464      104.336        0.055      347.396       26.330      859.456
08/14/2014  18:44:00     -425.141      -67.899      -23.398      204.534      171.678       73.091    41834.084    29473.423     5342.362       13.126        3.832      430.529       89.184        0.043      347.358       26.266      859.447
08/14/2014  18:45:00     -447.847       15.298      -43.191      164.847      147.278       81.037    27174.618    21690.794     6566.958       12.904        2.772      448.108       72.688        0.026      347.351       26.255      859.426
08/14/2014  18:46:00     -493.047     -134.357      -27.688      194.120      134.391       80.434    37682.655    18060.813     6469.634       16.205        3.111      511.025       90.038        0.031      347.340       26.236      859.448
08/14/2014  18:47:00     -539.579      -23.768      -56.620      143.948      133.529       67.503    20720.994    17829.884     4556.692       16.900        2.155      540.102       75.511        0.020      347.293       26.153      859.436
08/14/2014  18:48:00     -437.776     -116.493      -33.209      100.912      125.369       56.109    10183.304    15717.424     3148.185       11.768        1.452      453.011       27.874        0.004      347.349       26.250      859.434
08/14/2014  18:49:00     -404.669      -98.878      -18.897      146.512      110.061       73.374    21465.717    12113.407     5383.713       10.642        1.948      416.574       67.852        0.027      347.319       26.199      859.398
08/14/2014  18:50:00     -346.008        2.558      -12.128      140.014      130.534       72.696    19603.954    17039.214     5284.726        8.089        2.096      346.017       63.651        0.034      347.412       26.358      859.415
08/14/2014  18:51:00     -614.899      -96.224      -49.660      262.968      180.271      100.373    69152.258    32497.488    10074.679       25.075        5.586      622.382       94.758        0.023      347.312       26.187      859.416
08/14/2014  18:52:00     -280.237      -98.741        2.974      164.951      114.750       75.475    27208.835    13167.544     5696.411        6.717        2.304      297.124       86.965        0.086      347.385       26.312      859.445
08/14/2014  18:53:00     -372.554      -27.260      -10.885      158.318      116.266       77.135    25064.594    13517.771     5949.807        9.209        2.227      373.550       89.587        0.058      347.369       26.285      859.464
08/14/2014  18:54:00     -192.503      -91.676       -0.617      139.268      134.646       64.166    19395.683    18129.576     4117.234        4.354        2.082      213.218       66.652        0.098      347.436       26.401      859.466
08/14/2014  18:55:00     -317.860     -137.400      -12.476      189.670      149.518       76.327    35974.564    22355.522     5825.867        9.210        3.208      346.286       59.177        0.029      347.352       26.255      859.484
08/14/2014  18:56:00     -426.911     -109.742      -30.475      138.188      143.316       76.079    19095.901    20539.568     5787.943       12.032        2.271      440.791       64.807        0.022      347.305       26.173      859.505
08/14/2014  18:57:00     -298.025       21.102      -13.656      169.509      106.278       60.938    28733.192    11294.963     3713.438        6.659        2.187      298.771       63.752        0.046      347.362       26.272      859.518
08/14/2014  18:58:00     -433.179      -22.410      -35.974      152.231      129.296       77.163    23174.148    16717.368     5954.102       11.763        2.292      433.758       83.427        0.037      347.243       26.068      859.516
08/14/2014  18:59:00     -471.553      -63.770      -31.504      204.987      136.657       85.340    42019.728    18675.271     7282.912       14.769        3.399      475.846       81.360        0.029      347.244       26.070      859.487
08/14/2014  19:00:00     -484.874      -91.266      -19.604      286.657      219.144      101.484    82172.123    48024.006    10299.056       19.213        7.025      493.389      120.311        0.059      347.199       25.992      859.467
08/14/2014  19:01:00     -524.307     -102.517      -34.070      225.075      169.519       97.116    50658.935    28736.588     9431.537       18.768        4.441      534.235      112.224        0.044      347.210       26.012      859.460
08/14/2014  19:02:00     -417.165     -136.493      -18.121      163.308      127.888       67.632    26669.362    16355.398     4574.110       12.028        2.380      438.927       71.031        0.026      347.209       26.009      859.525
08/14/2014  19:03:00     -351.125      -82.861      -29.451      160.273      115.971       65.517    25687.278    13449.162     4292.509        8.722        2.171      360.769       71.944        0.040      347.255       26.090      859.546
08/14/2014  19:04:00     -436.537      -57.241      -25.443      177.858      164.603       73.833    31633.606    27094.151     5451.260       12.932        3.209      440.274       74.077        0.028      347.194       25.984      859.575
08/14/2014  19:05:00     -444.559       14.611      -34.864      152.146      147.647       74.537    23148.444    21799.769     5555.720       12.477        2.525      444.799       79.454        0.032      347.152       25.912      859.594
08/14/2014  19:06:00     -571.310     -199.257      -24.615      222.184      176.739       87.149    49365.847    31236.815     7594.882       22.743        4.410      605.061       90.454        0.022      347.118       25.850      859.579
08/14/2014  19:07:00     -566.353     -103.607      -23.551      242.755      184.040      105.143    58929.933    33870.749    11055.125       21.793        5.193      575.752      114.036        0.039      347.113       25.843      859.534
08/14/2014  19:08:00     -367.015     -129.893       -8.253      184.979      120.543       79.198    34217.138    14530.519     6272.254       10.332        2.751      389.323       88.532        0.052      347.133       25.877      859.617
08/14/2014  19:09:00     -549.868     -166.647      -26.981      221.410      173.676       83.424    49022.417    30163.245     6959.637       20.848        4.307      574.566       91.656        0.025      347.099       25.818      859.612
08/14/2014  19:10:00     -443.012     -197.297      -25.924      240.634      177.056       79.006    57904.944    31348.935     6241.964       16.566        4.775      484.960       89.967        0.034      347.103       25.827      859.624
08/14/2014  19:11:00     -405.539      -87.235      -25.620      181.455      112.636       75.656    32926.077    12686.884     5723.816       11.202        2.567      414.815       84.493        0.041      347.075       25.778      859.643
08/14/2014  19:12:00     -562.857     -169.983      -17.878      260.721      167.580      103.853    67975.655    28083.161    10785.540       22.641        5.342      587.964      117.035        0.040      347.064       25.758      859.628
08/14/2014  19:13:00     -494.800     -242.287       -7.175      249.404      184.250       99.070    62202.332    33947.980     9814.903       20.475        5.298      550.936      111.324        0.041      347.014       25.675      859.632
08/14/2014  19:14:00     -332.941     -122.966      -23.153      185.974      105.776       86.414    34586.233    11188.579     7467.328        8.986        2.662      354.923       89.731        0.064      347.031       25.703      859.677
08/14/2014  19:15:00     -336.409     -145.995       -9.715      191.962      143.923       77.662    36849.536    20713.713     6031.361        9.907        3.180      366.722       79.016        0.046      347.031       25.703      859.697
08/14/2014  19:16:00     -455.895       54.438      -33.747      256.799      136.166       86.221    65945.895    18541.161     7433.997       15.191        4.596      459.134      105.635        0.053      347.012       25.669      859.729
08/14/2014  19:17:00     -363.250     -131.776      -36.854      189.991      160.096       84.799    36096.530    25630.718     7190.882       10.978        3.446      386.413       87.959        0.052      347.019       25.683      859.760
08/14/2014  19:18:00     -250.057      -99.590       -9.787      239.714      134.145       87.584    57462.758    17994.984     7670.925        7.782        4.156      269.160      114.134        0.180      347.026       25.696      859.755
08/14/2014  19:19:00     -416.400      -82.544       -7.645      189.249      128.635       71.364    35815.089    16547.036     5092.839       11.885        2.873      424.502       74.166        0.031      346.975       25.605      859.769
08/14/2014  19:20:00     -301.270     -102.176        0.393      220.839      137.575       80.107    48769.933    18926.894     6417.114        8.764        3.706      318.124       87.873        0.076      346.987       25.628      859.752
08/14/2014  19:21:00     -514.470      -85.353      -20.885      292.178      177.054      106.331    85368.275    31347.982    11306.338       20.019        6.401      521.503      134.072        0.066      346.932       25.531      859.738
08/14/2014  19:22:00     -427.300      -58.934       -9.065      157.811      133.715       77.396    24904.178    17879.643     5990.179       11.745        2.439      431.345       84.050        0.038      346.931       25.529      859.809
08/14/2014  19:23:00     -270.191      -65.236      -21.231      119.296      109.256       64.490    14231.579    11936.848     4158.914        5.401        1.516      277.955       54.640        0.039      346.939       25.544      859.821
08/14/2014  19:24:00     -209.799      -53.578        6.457      140.040      115.319       67.719    19611.275    13298.489     4585.890        4.220        1.875      216.532       70.331        0.105      346.935       25.537      859.810
08/14/2014  19:25:00     -265.074      -12.745        1.215      181.660      107.818       69.081    33000.238    11624.729     4772.168        5.990        2.470      265.381       76.003        0.082      346.910       25.494      859.806
08/14/2014  19:26:00     -314.409      -53.833        5.805      163.028      115.576       80.558    26578.286    13357.904     6489.618        7.410        2.321      318.985       87.790        0.076      346.865       25.416      859.819
08/14/2014  19:27:00     -164.310        2.288        2.458      131.500       93.889       64.671    17292.337     8815.138     4182.283        2.864        1.514      164.326       65.039        0.157      346.860       25.409      859.816
08/14/2014  19:28:00     -345.021      -56.224       -2.027      205.484      129.485       70.790    42223.491    16766.450     5011.181        9.309        3.200      349.572       68.701        0.039      346.826       25.348      859.817
08/14/2014  19:29:00     -288.404     -176.602       -0.074      191.384      152.613       88.894    36627.937    23290.589     7902.077        9.108        3.391      338.180       95.476        0.080      346.797       25.299      859.815
08/14/2014  19:30:00     -286.611      -82.760        7.012      193.157      135.132       85.789    37309.688    18260.704     7359.727        7.597        3.147      298.320       83.993        0.079      346.799       25.304      859.834
08/14/2014  19:31:00     -234.129     -155.067       -6.069      206.513      131.260       93.773    42647.727    17229.208     8793.318        7.377        3.434      280.824      106.296        0.143      346.789       25.286      859.848
08/14/2014  19:32:00     -355.592     -123.611        3.958      186.285      180.176       88.517    34702.023    32463.271     7835.253       10.836        3.750      376.464       81.918        0.047      346.759       25.233      859.851
08/14/2014  19:33:00     -546.515     -148.707      -36.893      241.764      173.411      108.776    58449.762    30071.432    11832.266       21.123        5.018      566.386      122.537        0.047      346.723       25.170      859.865
08/14/2014  19:34:00     -231.998      -50.180        9.635      199.267      150.117       84.144    39707.276    22535.027     7080.209        6.286        3.466      237.363       97.632        0.169      346.732       25.188      859.888
08/14/2014  19:35:00     -374.261     -181.635       -4.062      222.290      213.452       90.487    49413.000    45561.714     8187.813       13.810        5.158      416.008      108.999        0.069      346.681       25.099      859.914
08/14/2014  19:36:00     -354.968      -84.597        7.621      230.155      162.154      102.029    52971.359    26293.810    10409.876       11.143        4.484      364.909      112.997        0.096      346.690       25.116      859.915
08/14/2014  19:37:00     -279.531     -104.359        1.455      209.931      157.210       85.891    44071.174    24714.903     7377.202        8.258        3.808      298.377       93.173        0.098      346.649       25.046      859.931
08/14/2014  19:38:00     -313.747      -89.259      -17.388      158.933      134.986       68.397    25259.750    18221.260     4678.098        7.742        2.408      326.196       74.921        0.053      346.653       25.053      859.938
08/14/2014  19:39:00     -301.569      -32.835       -6.801      194.843      120.104       81.158    37963.661    14425.076     6586.638        7.551        2.949      303.351       95.855        0.100      346.632       25.015      859.937
08/14/2014  19:40:00     -242.935      -77.553       24.614      196.111      121.886       74.100    38459.613    14856.196     5490.753        6.221        2.940      255.014       81.186        0.101      346.610       24.978      859.928
08/14/2014  19:41:00     -379.243      -40.223      -13.700      193.679      165.107       80.019    37511.496    27260.462     6403.074       10.839        3.559      381.370       86.695        0.052      346.589       24.943      859.959
08/14/2014  19:42:00     -352.554     -147.782       -0.688      174.577      172.567       85.128    30477.076    29779.508     7246.825       10.681        3.375      382.275       92.648        0.059      346.587       24.939      859.989
08/14/2014  19:43:00     -388.986     -186.422      -16.588      232.898      145.220      101.472    54241.425    21088.888    10296.491       13.597        4.281      431.351      112.785        0.068      346.595       24.953      859.997
08/14/2014  19:44:00     -378.087     -118.030      -19.892      145.451      151.058       78.591    21155.911    22818.576     6176.622       10.370        2.508      396.082       71.368        0.032      346.570       24.909      860.031
08/14/2014  19:45:00     -289.770      -93.645       14.884      187.431      163.102       88.734    35130.375    26602.159     7873.673        8.127        3.480      304.526       99.033        0.106      346.561       24.894      860.066
08/14/2014  19:46:00     -382.209     -159.626       -7.297      211.460      130.530       81.552    44715.499    17038.203     6650.649       12.000        3.420      414.203       94.073        0.052      346.566       24.904      860.119
08/14/2014  19:47:00     -360.135     -173.078      -22.376      147.826      107.969       63.519    21852.450    11657.205     4034.689        9.884        1.877      399.567       64.640        0.026      346.552       24.879      860.150
08/14/2014  19:48:00     -284.026      -78.623        0.205      131.298      142.513       65.290    17239.260    20310.095     4262.750        6.432        2.091      294.707       62.962        0.046      346.534       24.848      860.156
08/14/2014  19:49:00     -432.913     -104.050      -29.981      242.463      150.991       96.296    58788.101    22798.309     9272.833       14.498        4.543      445.241       95.911        0.046      346.513       24.813      860.145
08/14/2014  19:50:00     -391.670     -137.868      -16.639      201.103      118.796       74.646    40442.417    14112.565     5571.982       11.640        3.006      415.226       93.626        0.051      346.504       24.798      860.167
08/14/2014  19:51:00     -328.841      -41.565       -9.884      149.994      126.281       77.057    22498.271    15946.916     5937.776        7.716        2.219      331.458       82.068        0.061      346.467       24.733      860.165
08/14/2014  19:52:00     -254.226      -84.315       -7.016      147.974      136.183       67.432    21896.307    18545.772     4547.070        5.838        2.249      267.843       69.006        0.066      346.461       24.722      860.139
08/14/2014  19:53:00     -546.287     -133.431      -14.609      179.446      168.570       98.195    32201.008    28416.005     9642.229       19.334        3.513      562.346       98.576        0.031      346.418       24.646      860.104
08/14/2014  19:54:00     -465.529     -201.589       -5.657      250.050      177.968      105.500    62524.806    31672.473    11130.199       18.134        5.266      507.302      123.866        0.060      346.413       24.638      860.106
08/14/2014  19:55:00     -357.174     -241.834       -5.302      221.609      166.987       87.387    49110.754    27884.790     7636.546       13.534        4.232      431.343       98.956        0.053      346.414       24.640      860.104
08/14/2014  19:56:00     -391.584     -105.912       -1.305      237.059      202.968       93.175    56196.902    41196.053     8681.531       13.530        5.304      405.654       91.924        0.051      346.412       24.638      860.122
08/14/2014  19:57:00     -411.450      -64.170      -16.735      245.894      164.226       84.083    60463.670    26970.313     7069.922       13.408        4.725      416.424      108.400        0.068      346.387       24.594      860.104
08/14/2014  19:58:00     -305.112     -129.161       -3.974      229.917      140.732       88.178    52861.859    19805.404     7775.391        9.510        4.022      331.325      104.707        0.100      346.362       24.552      860.057
08/14/2014  19:59:00     -497.663      -86.913      -24.174      263.296      193.648       99.025    69324.572    37499.644     9806.019       18.620        5.832      505.196      104.674        0.043      346.337       24.508      860.059
08/14/2014  20:00:00     -353.828     -141.410       -4.955      230.163      176.119      106.676    52974.851    31017.933    11379.856       12.028        4.769      381.039      119.438        0.098      346.322       24.485      860.048
08/14/2014  20:01:00     -429.854      -71.882       -5.464      173.365      177.953       99.836    30055.374    31667.414     9967.247       13.082        3.585      435.823      107.576        0.061      346.341       24.514      860.091
08/14/2014  20:02:00     -584.476      -56.506      -37.170      273.188      207.061      106.454    74631.620    42874.068    11332.399       23.749        6.442      587.201      132.700        0.051      346.334       24.503      860.101
08/14/2014  20:03:00     -445.791      -67.003      -22.609      240.502      184.156       94.434    57841.045    33913.384     8917.724       15.218        5.034      450.798      111.901        0.062      346.321       24.481      860.140
08/14/2014  20:04:00     -506.315      -82.438      -26.869      195.898      141.555       98.051    38376.146    20037.702     9614.093       16.594        3.401      512.982      102.874        0.040      346.288       24.425      860.196
08/14/2014  20:05:00     -419.744     -165.220      -15.855      208.302      137.322       76.111    43389.607    18857.403     5792.847       13.587        3.402      451.090       86.217        0.037      346.267       24.389      860.230
08/14/2014  20:06:00     -324.839      -96.166       -7.252      231.099      143.663       80.194    53406.863    20638.976     6431.069        9.763        4.024      338.774       65.031        0.037      346.257       24.373      860.259
08/14/2014  20:07:00     -266.053      -91.611        5.330      172.869      134.385       78.958    29883.585    18059.247     6234.346        6.668        2.709      281.384       89.480        0.101      346.216       24.300      860.233
08/14/2014  20:08:00     -499.785      -76.331      -13.894      180.995      175.862       90.121    32759.014    30927.596     8121.763       16.379        3.590      505.580       93.244        0.034      346.176       24.232      860.236
08/14/2014  20:09:00     -527.212      -91.960      -14.408      283.194      190.984       97.674    80198.874    36474.794     9540.220       20.639        6.311      535.172      113.289        0.045      346.128       24.150      860.198
08/14/2014  20:10:00     -526.712     -105.239        2.199      217.530      175.410      102.002    47319.338    30768.804    10404.321       18.848        4.425      537.123      113.169        0.044      346.133       24.159      860.207
08/14/2014  20:11:00     -356.148     -152.737      -12.686      216.197      156.410      100.212    46741.199    24464.133    10042.507       11.577        4.062      387.518      111.823        0.083      346.130       24.154      860.257
08/14/2014  20:12:00     -363.869     -107.478      -12.173      158.819      166.895       88.363    25223.527    27853.987     7808.055       10.248        3.044      379.410       76.386        0.041      346.121       24.137      860.258
08/14/2014  20:13:00     -230.485      -95.939       25.604      228.843      130.564       81.982    52369.197    17047.048     6721.071        6.955        3.807      249.655       90.752        0.132      346.078       24.063      860.284
08/14/2014  20:14:00     -463.227      -25.956      -33.693      204.416      123.267       84.587    41785.702    15194.832     7154.979       14.025        3.207      463.954       84.027        0.033      346.059       24.031      860.288
08/14/2014  20:15:00     -339.552     -101.870        8.233      260.422      180.902      110.062    67819.581    32725.518    12113.629       11.918        5.633      354.504      136.327        0.148      346.032       23.985      860.258
08/14/2014  20:16:00     -490.636      -96.218      -10.547      264.691      233.061      107.008    70061.489    54317.234    11450.766       19.293        6.791      499.981      131.969        0.070      346.029       23.980      860.259
08/14/2014  20:17:00     -515.512      -72.012      -11.301      218.438      175.313       95.921    47715.127    30734.801     9200.850       17.934        4.383      520.518       85.218        0.027      346.012       23.949      860.296
08/14/2014  20:18:00     -457.455      -37.337       -4.719      296.300      129.472       98.469    87793.893    16763.039     9696.066       16.244        5.713      458.976      134.645        0.086      346.004       23.937      860.309
08/14/2014  20:19:00     -551.382      -79.596      -33.059      248.597      208.734       99.122    61800.276    43569.952     9825.135       21.330        5.760      557.097      110.062        0.039      346.006       23.941      860.301
08/14/2014  20:20:00     -516.710      -61.984      -28.850      205.156      158.092       90.612    42088.853    24993.160     8210.490       17.346        3.765      520.415       97.456        0.035      345.966       23.870      860.355
08/14/2014  20:21:00     -456.001     -100.815      -26.753      142.250      168.537       87.160    20234.993    28404.772     7596.854       13.752        2.812      467.013       85.244        0.033      345.951       23.846      860.347
08/14/2014  20:22:00     -343.706      -43.996        6.736      232.349      147.987      104.249    53985.943    21900.085    10867.909       10.342        4.338      346.511      125.526        0.131      345.925       23.800      860.303
08/14/2014  20:23:00     -394.790     -124.719      -27.250      223.827      168.351       84.323    50098.668    28341.906     7110.357       12.884        4.278      414.022       97.450        0.055      345.913       23.780      860.312
08/14/2014  20:24:00     -539.651      -48.250      -28.864      294.981      149.745       95.316    87014.036    22423.498     9085.087       20.643        5.926      541.804      119.860        0.049      345.930       23.809      860.320
08/14/2014  20:25:00     -679.299      -77.226      -48.018      302.229      182.075      106.428    91342.198    33151.255    11326.859       30.274        6.791      683.675      135.300        0.039      345.943       23.831      860.330
08/14/2014  20:26:00     -474.953      -61.178      -22.219      243.472      147.413       99.625    59278.677    21730.469     9925.127       16.036        4.547      478.877      122.552        0.065      345.910       23.774      860.373
08/14/2014  20:27:00     -615.546     -130.316      -39.953      227.120      220.772      108.771    51583.493    48740.237    11831.104       25.479        5.608      629.189      108.971        0.030      345.916       23.786      860.347
08/14/2014  20:28:00     -527.171      -81.523      -31.705      300.890      144.858      103.286    90534.686    20983.825    10668.075       20.385        6.109      533.437      141.838        0.071      345.895       23.751      860.368
08/14/2014  20:29:00     -280.566     -140.823        0.382      171.547      149.388       84.115    29428.424    22316.862     7075.413        7.867        2.941      313.924       92.183        0.086      345.887       23.735      860.388
08/14/2014  20:30:00     -341.554      -63.722       -9.671      179.437      145.241       90.230    32197.701    21094.982     8141.393        9.111        3.072      347.447       99.224        0.082      345.895       23.750      860.372
08/14/2014  20:31:00     -392.386      -74.793      -20.121      261.931      163.941      107.875    68607.940    26876.678    11636.958       13.352        5.356      399.451      123.144        0.095      345.859       23.688      860.359
08/14/2014  20:32:00     -345.496     -223.367      -20.350      201.111      151.675       94.929    40445.828    23005.381     9011.518       12.105        3.623      411.413       89.281        0.047      345.876       23.717      860.384
08/14/2014  20:33:00     -332.598     -101.178       -2.786      178.362      173.473       84.511    31813.046    30092.773     7142.172        9.494        3.452      347.647       88.734        0.065      345.856       23.684      860.393
08/14/2014  20:34:00     -589.355     -110.127      -32.533      315.331      201.683      115.402    99433.476    40676.045    13317.609       25.695        7.671      599.556      138.961        0.054      345.866       23.700      860.415
08/14/2014  20:35:00     -387.363     -167.410        1.501      253.292      201.079      112.992    64156.601    40432.782    12767.085       14.769        5.868      421.991      127.218        0.091      345.844       23.662      860.407
08/14/2014  20:36:00     -670.136     -148.371      -27.215      283.651      238.590      125.934    80457.677    56925.395    15859.424       31.251        7.662      686.364      143.423        0.044      345.845       23.664      860.381
08/14/2014  20:37:00     -570.446      -69.455      -34.499      312.575      190.633      118.869    97702.832    36340.848    14129.896       23.977        7.409      574.659      148.372        0.067      345.830       23.638      860.436
08/14/2014  20:38:00     -339.822     -140.887       -8.797      251.836      202.555      101.593    63421.317    41028.433    10321.109       12.507        5.739      367.869      107.006        0.085      345.811       23.606      860.412
08/14/2014  20:39:00     -581.029     -116.770      -14.453      270.111      244.036      115.888    72960.099    59553.714    13430.018       24.866        7.297      592.647      119.605        0.041      345.812       23.607      860.403
08/14/2014  20:40:00     -458.570     -115.111        3.004      319.566      247.156      144.438   102122.400    61086.254    20862.258       20.377        9.204      472.797      172.000        0.132      345.802       23.590      860.412
08/14/2014  20:41:00     -478.690      -77.764      -15.791      240.883      187.154      103.296    58024.693    35026.690    10670.065       16.956        5.186      484.965      118.034        0.059      345.789       23.566      860.428
08/14/2014  20:42:00     -395.636     -173.982      -11.119      253.881      205.708      102.349    64455.365    42315.650    10475.351       15.206        5.862      432.201      123.744        0.082      345.779       23.549      860.427
08/14/2014  20:43:00     -535.239     -138.744      -14.207      324.452      194.564      101.635   105268.917    37855.158    10329.661       22.966        7.673      552.929      132.458        0.057      345.775       23.543      860.408
08/14/2014  20:44:00     -569.773      -88.765      -44.468      254.688      161.036      105.551    64865.801    25932.452    11140.996       21.820        5.097      576.646      123.220        0.046      345.756       23.512      860.417
08/14/2014  20:45:00     -478.107      -19.081      -27.399      235.923      143.206       85.767    55659.852    20507.929     7355.977       15.660        4.176      478.488      108.808        0.052      345.728       23.463      860.453
08/14/2014  20:46:00     -353.228     -179.081      -24.728      215.045      139.447       87.703    46244.216    19445.383     7691.854       11.540        3.669      396.031       81.334        0.042      345.739       23.482      860.469
08/14/2014  20:47:00     -313.120     -238.134        5.018      210.915      171.954      107.359    44484.983    29568.160    11526.011       12.016        4.279      393.385      118.163        0.090      345.737       23.477      860.456
08/14/2014  20:48:00     -426.459     -178.400      -26.768      232.258      174.897       86.025    53943.898    30589.015     7400.254       15.315        4.597      462.270       97.803        0.045      345.719       23.447      860.474
08/14/2014  20:49:00     -411.087      -43.587      -35.791      209.521      153.777       89.232    43899.165    23647.519     7962.433       12.383        3.775      413.391       94.561        0.052      345.707       23.427      860.455
08/14/2014  20:50:00     -382.225      -44.735       -1.714      221.776      125.354       81.677    49184.402    15713.594     6671.173       10.982        3.578      384.834      107.558        0.078      345.670       23.363      860.458
08/14/2014  20:51:00     -470.039     -133.365      -12.787      279.458      180.434      108.414    78096.854    32556.543    11753.684       18.062        6.120      488.593      134.519        0.076      345.679       23.380      860.471
08/14/2014  20:52:00     -423.104      -54.515       -8.958      210.307      179.214      104.961    44229.073    32117.500    11016.719       13.470        4.368      426.602      104.352        0.060      345.676       23.373      860.486
08/14/2014  20:53:00     -619.049      -86.703      -36.959      224.860      174.491       94.561    50562.190    30447.144     8941.758       24.101        4.498      625.092       94.876        0.023      345.694       23.404      860.492
08/14/2014  20:54:00     -610.117     -274.485      -27.907      274.463      174.019      104.824    75330.006    30282.675    10988.011       28.246        5.830      669.018      122.948        0.034      345.681       23.380      860.490
08/14/2014  20:55:00     -407.252     -202.241       -1.889      250.963      171.728      107.287    62982.466    29490.493    11510.511       15.535        5.199      454.704      121.375        0.071      345.654       23.335      860.491
08/14/2014  20:56:00     -370.153     -124.433       -9.298      253.936      209.423       99.864    64483.409    43857.793     9972.726       13.542        5.916      390.508      124.130        0.101      345.638       23.308      860.538
08/14/2014  20:57:00     -285.385     -139.760        4.964      176.253      175.877       99.387    31064.970    30932.545     9877.694        8.642        3.594      317.769       96.739        0.093      345.642       23.314      860.591
08/14/2014  20:58:00     -352.050      -50.553       -2.933      210.874      179.096       84.887    44467.915    32075.357     7205.836       10.511        4.187      355.661       83.434        0.055      345.609       23.258      860.610
08/14/2014  20:59:00     -394.574      -78.373        1.970      208.653      172.361      102.403    43536.223    29708.321    10486.368       12.277        4.187      402.282      113.024        0.079      345.603       23.249      860.655
08/14/2014  21:00:00     -461.602     -139.012       13.208      286.385      195.393      133.706    82016.524    38178.469    17877.389       18.530        6.904      482.079      135.843        0.079      345.634       23.300      860.685
08/14/2014  21:01:00     -440.679     -146.774      -19.026      241.756      166.261       82.100    58445.800    27642.618     6740.467       15.445        4.641      464.479       96.258        0.043      345.631       23.295      860.764
08/14/2014  21:02:00     -430.222     -142.356        6.403      220.567      219.864       89.721    48649.756    48340.200     8049.848       15.520        5.252      453.162      105.187        0.054      345.624       23.283      860.784
08/14/2014  21:03:00     -328.725      -88.493       -3.382      201.551      152.961       86.483    40622.679    23397.163     7479.341        9.369        3.575      340.428      106.341        0.098      345.591       23.227      860.806
08/14/2014  21:04:00     -406.977      -41.910      -10.429      203.850      158.804       79.351    41554.884    25218.811     6296.598       12.027        3.654      409.129       85.588        0.044      345.553       23.162      860.813
08/14/2014  21:05:00     -536.773      -98.754      -25.846      201.823      142.434       85.426    40732.680    20287.318     7297.538       18.342        3.416      545.782       95.220        0.030      345.548       23.153      860.806
08/14/2014  21:06:00     -522.662      -61.415      -26.174      199.993      174.948       97.046    39997.315    30606.698     9417.956       17.881        4.001      526.258      102.441        0.038      345.552       23.160      860.800
08/14/2014  21:07:00     -579.170      -61.063      -38.071      183.172      151.055       93.661    33551.905    22817.519     8772.308       20.287        3.257      582.380       94.415        0.026      345.559       23.173      860.860
08/14/2014  21:08:00     -668.557       49.035      -51.181      254.263      213.728       88.466    64649.766    45679.787     7826.215       28.505        5.908      670.353      101.435        0.023      345.555       23.164      860.856
08/14/2014  21:09:00     -467.295     -101.352      -13.012      212.621      155.970       81.190    45207.844    24326.644     6591.866       15.245        3.806      478.160       89.386        0.035      345.528       23.118      860.870
08/14/2014  21:10:00     -489.464      -72.927      -11.699      264.518      167.957       90.625    69970.022    28209.641     8212.903       17.569        5.320      494.867       99.498        0.040      345.555       23.166      860.908
08/14/2014  21:11:00     -584.064     -157.180      -24.937      245.818      196.025       89.631    60426.407    38425.821     8033.712       23.665        5.344      604.844      100.987        0.028      345.550       23.157      860.918
08/14/2014  21:12:00     -578.808     -163.254      -35.603      195.601      155.308       94.507    38259.622    24120.460     8931.619       21.711        3.566      601.391       83.203        0.019      345.515       23.097      860.898
08/14/2014  21:13:00     -575.669      -85.948      -55.065      242.505      160.701       94.076    58808.824    25824.748     8850.299       21.763        4.674      582.050      104.042        0.032      345.489       23.052      860.957
08/14/2014  21:14:00     -394.661     -131.756      -28.011      136.414      120.983       67.125    18608.833    14636.847     4505.821       10.582        1.888      416.073       58.414        0.020      345.474       23.025      860.979
08/14/2014  21:15:00     -461.321      -24.770      -37.266      183.147      155.136       87.927    33542.960    24067.255     7731.146       14.007        3.267      461.986       90.719        0.039      345.486       23.044      861.036
08/14/2014  21:16:00     -526.444      -37.692      -42.790      194.325      158.249       74.425    37762.094    25042.747     5539.052       17.436        3.417      527.792       79.048        0.022      345.478       23.032      861.083
08/14/2014  21:17:00     -478.759       41.897      -27.171      200.491      179.173       69.751    40196.799    32102.921     4865.160       15.442        3.858      480.589       68.938        0.021      345.456       22.995      861.142
08/14/2014  21:18:00     -420.566      -40.021      -26.229      175.145      133.841       90.028    30675.753    17913.345     8105.063       11.792        2.835      422.465       85.714        0.041      345.438       22.965      861.181
08/14/2014  21:19:00     -414.998      -74.580      -33.828      158.193      153.222       83.558    25025.122    23476.883     6981.859       11.720        2.774      421.646       84.596        0.040      345.452       22.990      861.204
08/14/2014  21:20:00     -436.314      -26.601      -44.250      230.133      159.340       93.880    52961.299    25389.355     8813.523       14.008        4.358      437.124      106.981        0.060      345.468       23.016      861.228
08/14/2014  21:21:00     -257.067      -77.010       -1.598      129.012      110.449       62.497    16644.221    12198.921     3905.912        5.238        1.637      268.355       53.820        0.040      345.427       22.946      861.259
08/14/2014  21:22:00     -470.778     -123.339      -24.203      162.130      147.821       85.999    26286.038    21851.159     7395.856       14.647        2.777      486.667       78.769        0.026      345.431       22.952      861.279
08/14/2014  21:23:00     -500.420      -20.113      -44.851      147.367      150.936       82.876    21717.083    22781.680     6868.389       15.209        2.568      500.824       75.769        0.023      345.425       22.942      861.299
08/14/2014  21:24:00     -411.039      -22.503      -23.625      181.860      176.945       94.123    33073.203    31309.575     8859.087       12.162        3.662      411.655       98.393        0.057      345.380       22.864      861.332
08/14/2014  21:25:00     -371.886     -162.635        0.786      172.262      136.946       80.820    29674.026    18754.327     6531.866       10.984        2.748      405.893       82.840        0.042      345.380       22.865      861.349
08/14/2014  21:26:00     -429.522      -61.947      -20.016      173.318      151.052       82.875    30039.066    22816.725     6868.287       12.421        2.986      433.966       91.574        0.045      345.377       22.861      861.385
08/14/2014  21:27:00     -441.621      -49.492      -28.705      190.962      133.184       82.585    36466.554    17737.879     6820.260       12.965        3.051      444.386       90.194        0.041      345.368       22.845      861.388
08/14/2014  21:28:00     -406.797      -91.370      -15.662      201.431      154.015       85.536    40574.269    23720.565     7316.482       12.283        3.581      416.932      109.168        0.069      345.370       22.848      861.379
08/14/2014  21:29:00     -527.522     -101.275      -41.281      154.140      126.724       83.678    23759.116    16059.015     7002.083       16.852        2.341      537.155       81.256        0.023      345.354       22.819      861.387
08/14/2014  21:30:00     -462.994     -122.062      -44.764      148.474      138.217       76.394    22044.451    19103.948     5836.076       13.912        2.349      478.813       73.211        0.023      345.369       22.845      861.400
08/14/2014  21:31:00     -444.440     -143.932      -47.223      153.138      133.104       85.206    23451.150    17716.798     7259.996       13.444        2.421      467.165       88.840        0.036      345.360       22.830      861.418
08/14/2014  21:32:00     -594.843       71.150      -58.043      161.086      132.080       81.309    25948.628    17445.132     6611.218       20.613        2.500      599.083       85.514        0.020      345.362       22.834      861.425
08/14/2014  21:33:00     -507.395      -65.523      -50.220      187.566      146.552       76.605    35180.982    21477.613     5868.309       16.338        3.126      511.608       86.311        0.028      345.346       22.808      861.427
08/14/2014  21:34:00     -366.381      -90.457      -17.617      141.492      126.977       79.578    20020.054    16123.081     6332.686        9.259        2.124      377.383       71.633        0.036      345.310       22.746      861.430
08/14/2014  21:35:00     -400.242     -134.341       -9.611      190.271      140.247       97.423    36202.922    19669.283     9491.175       12.184        3.268      422.186       98.788        0.055      345.289       22.709      861.433
08/14/2014  21:36:00     -435.167      -91.403      -22.254      173.621      121.356       66.801    30144.320    14727.302     4462.395       12.377        2.467      444.663       75.422        0.029      345.281       22.696      861.476
08/14/2014  21:37:00     -437.180     -104.995      -28.116      207.304      149.246       79.935    42975.137    22274.271     6389.607       13.728        3.582      449.612       85.557        0.036      345.303       22.733      861.487
08/14/2014  21:38:00     -406.794      -85.846      -23.460      137.231      132.335       80.253    18832.303    17512.664     6440.613       10.809        2.139      415.754       70.503        0.029      345.257       22.654      861.501
08/14/2014  21:39:00     -496.231      -24.814      -37.013      141.390      147.867       80.645    19991.253    21864.614     6503.687       14.829        2.418      496.851       72.795        0.021      345.255       22.651      861.523
08/14/2014  21:40:00     -376.679      -34.943      -22.547      138.871      154.316       74.482    19285.115    23813.514     5547.527        9.612        2.432      378.296       74.038        0.038      345.247       22.638      861.535
08/14/2014  21:41:00     -387.721      -54.416      -43.615      120.730      106.197       60.882    14575.739    11277.745     3706.616        9.237        1.478      391.521       59.253        0.023      345.242       22.629      861.545
08/14/2014  21:42:00     -309.073      -93.685      -13.533      164.412      110.597       68.933    27031.469    12231.675     4751.716        7.424        2.201      322.960       46.127        0.020      345.232       22.613      861.544
08/14/2014  21:43:00     -421.607      -57.604      -42.942      130.307      133.105       59.702    16979.827    17716.837     3564.366       11.058        1.913      425.524       49.989        0.014      345.192       22.542      861.575
08/14/2014  21:44:00     -376.444      -51.371      -24.388      134.425      121.049       62.704    18070.023    14652.785     3931.758        9.079        1.833      379.933       56.224        0.022      345.151       22.473      861.575
08/14/2014  21:45:00     -418.979     -116.609      -19.913      134.754      137.291       69.519    18158.659    18848.725     4832.921       11.568        2.092      434.904       60.123        0.019      345.175       22.515      861.576
08/14/2014  21:46:00     -393.440      -75.282      -27.574      163.294      108.763       59.236    26665.089    11829.350     3508.903       10.160        2.100      400.578       53.854        0.018      345.184       22.528      861.588
08/14/2014  21:47:00     -359.943     -119.565      -32.435      141.862       98.803       66.404    20124.810     9761.945     4409.442        8.959        1.715      379.282       77.792        0.042      345.157       22.484      861.621
08/14/2014  21:48:00     -379.531      -25.919      -31.377      193.635      101.525       64.795    37494.353    10307.266     4198.352        9.884        2.600      380.415       82.308        0.047      345.161       22.489      861.607
08/14/2014  21:49:00     -314.515      -92.627      -15.086      144.285      112.851       63.605    20818.205    12735.361     4045.616        7.266        1.880      327.871       72.445        0.049      345.118       22.418      861.626
08/14/2014  21:50:00     -436.637      -43.820      -27.007      106.281      118.587       61.601    11295.601    14062.811     3794.683       11.122        1.458      438.830       49.747        0.013      345.122       22.424      861.634
08/14/2014  21:51:00     -385.835      -62.701      -15.626      138.557      101.913       67.739    19198.057    10386.217     4588.514        9.360        1.709      390.896       71.277        0.033      345.127       22.432      861.641
08/14/2014  21:52:00     -417.273      -44.521      -25.934      137.156       98.167       58.667    18811.679     9636.784     3441.780       10.432        1.595      419.641       68.379        0.027      345.122       22.423      861.639
08/14/2014  21:53:00     -359.013        2.796       -8.167      135.565      138.781       66.952    18377.913    19260.297     4482.570        8.553        2.106      359.024       68.218        0.036      345.089       22.367      861.633
08/14/2014  21:54:00     -396.552      -94.703      -29.847      158.056      130.699       64.815    24981.801    17082.130     4201.034       10.668        2.313      407.704       71.274        0.031      345.074       22.341      861.652
08/14/2014  21:55:00     -343.097     -132.767      -21.187      131.078       97.060       59.449    17181.502     9420.655     3534.225        8.296        1.507      367.889       64.222        0.030      345.052       22.305      861.664
08/14/2014  21:56:00     -278.872      -46.933       -6.621      125.253      116.320       70.620    15688.211    13530.296     4987.155        5.710        1.710      282.794       71.585        0.064      345.070       22.334      861.662
08/14/2014  21:57:00     -299.795     -125.434       -6.808      138.515       99.761       71.074    19186.385     9952.269     5051.575        6.992        1.710      324.978       52.831        0.026      345.109       22.401      861.675
08/14/2014  21:58:00     -349.773      -50.806      -12.417      129.454      116.376       69.290    16758.227    13543.291     4801.152        8.008        1.755      353.444       71.450        0.041      345.194       22.546      861.674
08/14/2014  21:59:00     -352.012     -158.386      -35.127      104.498      132.119       60.823    10919.879    17455.398     3699.483        9.115        1.604      386.003       50.061        0.017      345.176       22.515      861.642
08/14/2014  22:00:00     -384.100      -99.425      -38.756      108.550      100.462       70.252    11783.184    10092.664     4935.309        9.286        1.341      396.759       57.755        0.021      345.157       22.484      861.639
08/14/2014  22:01:00     -290.759     -130.557       -9.358      128.209      125.743       60.775    16437.420    15811.212     3693.586        6.880        1.797      318.726       61.569        0.037      345.121       22.423      861.653
08/14/2014  22:02:00     -372.516      -86.202       -8.208      134.294      119.931       59.787    18034.881    14383.560     3574.446        9.112        1.800      382.360       57.366        0.023      345.126       22.430      861.666
08/14/2014  22:03:00     -257.193      -46.729      -16.376      114.017      107.272       61.929    12999.975    11507.293     3835.250        4.847        1.417      261.404       56.013        0.046      345.092       22.372      861.672
08/14/2014  22:04:00     -328.251      -61.044      -13.210      142.029      121.769       74.823    20172.321    14827.660     5598.518        7.612        2.030      333.879       78.324        0.055      345.090       22.369      861.676
08/14/2014  22:05:00     -324.333      -65.225      -31.585      147.197      129.907       62.325    21666.884    16875.763     3884.435        7.643        2.121      330.826       62.422        0.036      345.111       22.403      861.667
08/14/2014  22:06:00     -349.712      -55.234      -28.218      119.690      115.258       68.291    14325.694    13284.306     4663.606        7.920        1.614      354.047       57.629        0.026      345.073       22.340      861.663
08/14/2014  22:07:00     -387.687      -93.704      -18.388      141.941      112.291       69.028    20147.296    12609.235     4764.895        9.846        1.876      398.851       68.922        0.030      345.059       22.317      861.638
08/14/2014  22:08:00     -460.466     -168.388      -27.193      134.057      113.697       68.408    17971.192    12927.058     4679.684       13.834        1.779      490.289       48.418        0.010      345.116       22.412      861.623
08/14/2014  22:09:00     -400.351     -138.829      -13.567      137.718      130.165       80.116    18966.351    16942.840     6418.564       11.102        2.116      423.738       80.770        0.036      345.072       22.339      861.657
08/14/2014  22:10:00     -395.886       10.185      -35.446      173.474       91.873       70.754    30093.184     8440.625     5006.181       10.080        2.177      396.017       83.653        0.045      345.100       22.386      861.667
08/14/2014  22:11:00     -400.413      -82.990      -14.639      132.998       87.299       61.020    17688.556     7621.095     3723.445        9.823        1.452      408.923       60.590        0.022      345.076       22.345      861.663
08/14/2014  22:12:00     -394.690       12.601      -30.658      118.813      109.843       66.820    14116.521    12065.487     4464.945        9.376        1.532      394.892       51.983        0.017      345.054       22.309      861.667
08/14/2014  22:13:00     -350.920      -55.742      -19.993      142.609      128.651       73.980    20337.411    16550.995     5473.074        8.450        2.118      355.319       71.001        0.040      345.020       22.250      861.643
08/14/2014  22:14:00     -458.711      -28.015      -34.749      173.913      136.803       77.497    30245.679    18714.983     6005.774       13.368        2.748      459.565       91.137        0.039      345.025       22.258      861.641
08/14/2014  22:15:00     -426.911      -21.651      -24.470      173.701      138.249       82.392    30171.914    19112.913     6788.442       11.969        2.804      427.459       91.758        0.046      344.998       22.211      861.625
08/14/2014  22:16:00     -280.504      -72.304      -12.027      137.661      108.607       69.047    18950.645    11795.504     4767.549        5.978        1.776      289.673       62.886        0.047      344.985       22.191      861.584
08/14/2014  22:17:00     -352.157     -117.670       -3.319      179.591      130.862       65.115    32252.926    17124.774     4239.985        9.573        2.681      371.296       77.503        0.044      344.956       22.139      861.575
08/14/2014  22:18:00     -357.020      -91.869      -18.107      144.076      117.901       64.044    20758.036    13900.531     4101.592        8.749        1.938      368.650       70.329        0.036      344.938       22.107      861.576
08/14/2014  22:19:00     -383.624       15.347      -36.830      215.444      134.102       79.492    46415.973    17983.219     6318.964       10.972        3.536      383.931       87.436        0.052      344.939       22.110      861.547
08/14/2014  22:20:00     -348.790      -90.664      -13.120      188.094      130.316       84.651    35379.364    16982.137     7165.829        9.478        2.976      360.381       87.187        0.059      344.999       22.213      861.536
08/14/2014  22:21:00     -394.751      -28.505      -34.286      142.565      137.390       66.697    20324.692    18876.095     4448.462       10.072        2.182      395.779       58.065        0.022      344.989       22.194      861.549
08/14/2014  22:22:00     -598.196      -22.594      -57.443      190.227      113.098       78.022    36186.206    12791.120     6087.509       20.835        2.753      598.623       85.757        0.021      344.997       22.210      861.554
08/14/2014  22:23:00     -462.435     -103.217      -37.515      206.390      136.607       81.928    42596.738    18661.578     6712.250       14.693        3.399      473.814       91.229        0.037      345.002       22.218      861.548
08/14/2014  22:24:00     -504.289      -85.169      -39.935      195.096      141.728       90.480    38062.506    20086.921     8186.621       16.473        3.317      511.430       97.162        0.036      345.022       22.253      861.539
08/14/2014  22:25:00     -434.095      -30.472      -24.597      176.402      124.087       79.425    31117.655    15397.632     6308.370       12.139        2.641      435.164       95.837        0.049      344.984       22.188      861.538
08/14/2014  22:26:00     -344.808      -72.638       -5.995      192.811      142.088       78.405    37176.103    20189.018     6147.316        9.385        3.176      352.376       85.343        0.059      344.952       22.132      861.540
08/14/2014  22:27:00     -381.384      -73.675      -22.958      158.051      115.692       70.686    24980.068    13384.607     4996.517        9.738        2.168      388.436       67.320        0.030      344.933       22.100      861.525
08/14/2014  22:28:00     -456.831      -14.965      -43.434       85.404      103.465       57.909     7293.785    10704.912     3353.408       11.607        1.068      457.076       39.799        0.008      344.929       22.094      861.523
08/14/2014  22:29:00     -385.550      -92.147       -8.529      229.068      140.901       84.094    52472.204    19853.181     7071.789       11.829        3.970      396.409      102.490        0.067      344.896       22.039      861.479
08/14/2014  22:30:00     -375.351      -29.979      -26.850      183.263      178.493       74.812    33585.438    31859.760     5596.776       10.676        3.552      376.546       72.926        0.038      344.830       21.923      861.453
08/14/2014  22:31:00     -602.167      -64.965      -38.289      172.420      153.187       94.148    29728.631    23466.123     8863.887       21.516        3.103      605.661       93.919        0.024      344.888       22.023      861.478
08/14/2014  22:32:00     -466.244      -85.450      -17.318      165.872      127.322       82.108    27513.675    16210.795     6741.667       13.772        2.523      474.010       75.656        0.025      344.899       22.043      861.512
08/14/2014  22:33:00     -375.855     -129.494      -44.637      166.207      173.666       83.751    27624.708    30159.989     7014.166       11.240        3.240      397.537       71.124        0.032      344.859       21.972      861.497
08/14/2014  22:34:00     -416.909      -76.680      -17.450      208.732      155.979       77.236    43569.057    24329.495     5965.326       12.692        3.693      423.902       82.832        0.038      344.859       21.974      861.464
08/14/2014  22:35:00     -443.463     -111.893       -7.988      168.051      134.906       77.197    28241.001    18199.518     5959.447       13.081        2.620      457.361       73.814        0.026      344.856       21.969      861.481
08/14/2014  22:36:00     -364.258     -122.709       -4.379      125.133       81.963       60.890    15658.233     6717.956     3707.624        8.692        1.304      384.371       63.162        0.027      344.844       21.949      861.454
08/14/2014  22:37:00     -331.128      -65.781       -5.702      126.512      117.742       71.148    16005.239    13863.116     5062.082        7.446        1.747      337.599       68.547        0.041      344.792       21.857      861.456
08/14/2014  22:38:00     -376.275      -44.192      -27.581      172.691      129.876       78.436    29822.076    16867.745     6152.246        9.856        2.642      378.861       82.047        0.047      344.781       21.839      861.464
08/14/2014  22:39:00     -348.374      -83.698      -25.904      232.166      171.355       80.938    53901.220    29362.413     6550.928       10.941        4.491      358.287      102.051        0.081      344.839       21.939      861.464
08/14/2014  22:40:00     -397.961      -97.840      -15.451      171.936      132.022       77.443    29561.819    17429.850     5997.459       11.058        2.649      409.812       75.829        0.034      344.780       21.838      861.446
08/14/2014  22:41:00     -418.649      -67.959      -23.157      168.959      126.308       74.080    28547.284    15953.748     5487.809       11.520        2.499      424.129       75.346        0.032      344.762       21.807      861.438
08/14/2014  22:42:00     -368.002     -161.495      -10.397      189.495      165.903       89.511    35908.251    27523.869     8012.137       11.652        3.572      401.878       85.287        0.045      344.737       21.764      861.423
08/14/2014  22:43:00     -397.683      -39.735      -12.217      194.228      139.480       81.914    37724.448    19454.785     6709.919       11.187        3.194      399.663       82.186        0.042      344.774       21.828      861.396
08/14/2014  22:44:00     -346.894       27.822      -21.306      173.362      128.184       83.982    30054.554    16431.148     7053.021        8.754        2.677      348.008       81.622        0.055      344.738       21.767      861.421
08/14/2014  22:45:00     -440.682     -107.615      -28.986      243.282      170.145       94.331    59186.283    28949.231     8898.298       15.181        4.852      453.632       87.783        0.037      344.782       21.840      861.402
08/14/2014  22:46:00     -337.604       16.100      -12.414      214.857      134.033       76.009    46163.623    17964.918     5777.314        9.213        3.495      337.987       90.827        0.072      344.761       21.805      861.428
08/14/2014  22:47:00     -426.326      -23.147      -23.434      201.220      124.940       82.076    40489.537    15610.008     6736.428       12.283        3.142      426.954       91.835        0.046      344.736       21.762      861.461
08/14/2014  22:48:00     -472.563      -50.691      -15.379      155.882      152.929       84.417    24299.184    23387.259     7126.240       14.046        2.741      475.274       84.902        0.032      344.734       21.761      861.444
08/14/2014  22:49:00     -415.665      -61.510      -25.383      180.818      135.070       87.192    32695.057    18243.925     7602.428       11.786        2.927      420.191      104.674        0.062      344.800       21.871      861.495
08/14/2014  22:50:00     -504.196      -72.072      -28.917      258.350      145.593       94.107    66744.956    21197.345     8856.196       17.850        4.840      509.321      129.560        0.065      344.773       21.826      861.473
08/14/2014  22:51:00     -280.498      -31.931       -9.577      123.892      128.863       62.002    15349.163    16605.760     3844.224        5.779        1.790      282.309       61.383        0.047      344.734       21.761      861.479
08/14/2014  22:52:00     -251.065      -56.643       -1.380      172.585      120.689       67.821    29785.738    14565.770     4599.690        5.759        2.448      257.376       77.028        0.090      344.673       21.655      861.466
08/14/2014  22:53:00     -416.349      -92.989      -21.517      145.306      120.309       73.325    21113.911    14474.338     5376.535       11.170        2.048      426.607       72.737        0.029      344.664       21.637      861.458
08/14/2014  22:54:00     -371.531     -134.879       -4.592      200.801      170.617       92.179    40321.019    29110.001     8496.986       11.707        3.896      395.257       86.829        0.048      344.656       21.626      861.473
08/14/2014  22:55:00     -359.124      -78.746      -21.730      122.539      106.436       49.783    15015.909    11328.520     2478.322        8.223        1.441      367.656       38.727        0.011      344.688       21.679      861.489
08/14/2014  22:56:00     -245.778       -4.930      -11.914      146.883      126.903       70.124    21574.693    16104.276     4917.436        5.158        2.130      245.827       69.975        0.081      344.637       21.593      861.492
08/14/2014  22:57:00     -251.726      -57.348       10.018      163.626      146.116       81.805    26773.423    21350.021     6692.085        6.077        2.741      258.176       78.823        0.093      344.644       21.606      861.498
08/14/2014  22:58:00     -468.270      -72.125      -31.560      162.333      125.919       86.159    26352.064    15855.624     7423.316       13.754        2.482      473.792       89.144        0.035      344.661       21.634      861.491
08/14/2014  22:59:00     -355.498      -68.729      -21.039      147.708      137.528       64.371    21817.648    18913.977     4143.610        8.820        2.244      362.081       54.851        0.023      344.643       21.603      861.462
08/14/2014  23:00:00     -279.433       17.568      -13.103      180.883      120.907       80.221    32718.612    14618.404     6435.432        6.616        2.689      279.985       87.408        0.097      344.588       21.512      861.464
08/14/2014  23:01:00     -305.600      -34.034      -23.919      130.291      114.069       65.580    16975.795    13011.677     4300.673        6.470        1.714      307.489       63.189        0.042      344.595       21.522      861.484
08/14/2014  23:02:00     -188.650      -42.481       20.250      145.853      114.583       80.069    21272.955    13129.154     6411.041        3.930        2.041      193.374       76.801        0.158      344.564       21.469      861.506
08/14/2014  23:03:00     -438.696       -1.718      -20.617      201.247      125.353       74.399    40500.354    15713.257     5535.273       12.730        3.087      438.699       89.495        0.042      344.623       21.569      861.527
08/14/2014  23:04:00     -311.122     -125.337      -18.038      131.699      139.524       66.265    17344.700    19467.079     4391.060        7.701        2.060      335.419       59.187        0.031      344.595       21.522      861.520
08/14/2014  23:05:00     -362.940     -101.257      -16.551      193.339      144.206       84.107    37379.978    20795.507     7074.061       10.374        3.262      376.800       92.238        0.060      344.615       21.554      861.509
08/14/2014  23:06:00     -408.437      -48.533      -15.492      192.627      163.035       90.081    37105.023    26580.274     8114.509       12.059        3.590      411.310      100.854        0.060      344.597       21.526      861.522
08/14/2014  23:07:00     -298.460      -49.604       -3.304      210.708      124.524       74.139    44398.033    15506.175     5496.614        7.846        3.270      302.554       97.028        0.103      344.596       21.525      861.538
08/14/2014  23:08:00     -208.012       22.464        3.481      130.001       99.598       54.558    16900.365     9919.700     2976.541        3.679        1.490      209.222       45.779        0.048      344.588       21.512      861.564
08/14/2014  23:09:00     -200.445      -25.567       -6.400      107.385       72.737       56.127    11531.619     5290.701     3150.241        3.042        0.999      202.069       56.724        0.079      344.554       21.454      861.604
08/14/2014  23:10:00     -476.218      -22.793      -33.013      205.128      145.077       84.317    42077.297    21047.341     7109.423       14.930        3.512      476.763       92.393        0.038      344.614       21.554      861.597
08/14/2014  23:11:00     -340.400     -130.872       -5.806      162.797      160.955       80.250    26502.936    25906.355     6440.113        9.593        2.942      364.691       81.917        0.050      344.561       21.465      861.573
08/14/2014  23:12:00     -310.698      -28.435       -7.893      188.223      116.103       65.339    35427.720    13479.932     4269.199        7.528        2.659      311.997       76.812        0.061      344.539       21.426      861.619
08/14/2014  23:13:00     -288.022      -43.242      -13.638      102.377      139.410       72.063    10481.026    19435.227     5193.111        6.005        1.755      291.250       70.657        0.059      344.563       21.466      861.620
08/14/2014  23:14:00     -202.613     -106.825      -12.106      117.818       80.549       46.346    13880.979     6488.124     2147.968        3.756        1.126      229.049       36.407        0.025      344.564       21.468      861.640
08/14/2014  23:15:00     -294.044        7.810      -13.537      144.065       96.810       62.348    20754.801     9372.201     3887.226        6.035        1.701      294.147       71.073        0.058      344.517       21.389      861.645
08/14/2014  23:16:00     -211.350     -103.292      -17.687       98.240      103.085       53.009     9651.155    10626.609     2809.952        3.936        1.154      235.240       44.306        0.035      344.538       21.425      861.637
08/14/2014  23:17:00     -178.410      -36.554       -7.132      128.590       64.490       51.849    16535.395     4158.936     2688.368        2.830        1.169      182.116       67.970        0.139      344.493       21.349      861.652
08/14/2014  23:18:00     -287.367        1.509      -27.797      114.522       99.623       58.514    13115.322     9924.693     3423.845        5.490        1.323      287.371       56.108        0.038      344.513       21.381      861.677
08/14/2014  23:19:00     -282.593      -17.785      -22.239      138.156      147.991       70.320    19087.082    21901.203     4944.942        6.329        2.297      283.152       61.270        0.047      344.537       21.424      861.674
08/14/2014  23:20:00     -460.893      127.426      -45.756      159.797      105.248       84.589    25534.980    11077.051     7155.298       13.725        2.188      478.183       73.257        0.023      344.531       21.411      861.643
08/14/2014  23:21:00     -156.609      -25.138       -4.711      107.536      113.458       63.690    11563.930    12872.675     4056.416        2.683        1.425      158.614       58.383        0.135      344.464       21.298      861.650
08/14/2014  23:22:00     -265.537     -135.079        1.087      149.626      104.229       57.980    22388.036    10863.642     3361.676        6.268        1.831      297.920       64.968        0.048      344.479       21.324      861.700
08/14/2014  23:23:00     -265.172      -41.984        3.942      172.344      125.995       73.345    29702.610    15874.700     5379.425        6.152        2.548      268.475       70.850        0.070      344.552       21.450      861.760
08/14/2014  23:24:00     -163.090     -105.089       10.316      135.878      112.415       80.798    18462.813    12637.041     6528.270        3.768        1.881      194.016       86.023        0.197      344.542       21.433      861.777
08/14/2014  23:25:00     -353.507     -163.276      -13.242      116.260       98.263       55.720    13516.345     9655.661     3104.755        8.903        1.314      389.392       48.591        0.016      344.613       21.554      861.775
08/14/2014  23:26:00     -169.952      -55.782       -0.108      139.979       78.188       58.859    19594.190     6113.407     3464.384        3.058        1.459      178.872       65.008        0.132      344.517       21.390      861.807
08/14/2014  23:27:00     -208.614     -158.203      -13.711      103.284      106.034       55.685    10667.495    11243.295     3100.780        4.687        1.251      261.817       49.061        0.035      344.652       21.618      861.797
08/14/2014  23:28:00     -174.801      -51.027       -7.006      165.332      119.447       59.526    27334.626    14267.522     3543.305        3.917        2.257      182.096       73.655        0.164      344.552       21.449      861.832
08/14/2014  23:29:00     -231.262      -64.491       -3.232      115.343       73.077       59.182    13303.904     5340.296     3502.566        3.989        1.107      240.086       62.694        0.068      344.516       21.386      861.846
08/14/2014  23:30:00     -176.286     -109.552       10.834      162.817      112.841       68.696    26509.247    12733.023     4719.184        4.357        2.198      207.554       77.891        0.141      344.532       21.414      861.875
08/14/2014  23:31:00     -209.132      -45.999       10.003      145.712      116.258       64.069    21232.027    13516.034     4104.847        4.239        1.943      214.131       67.813        0.100      344.547       21.442      861.887
08/14/2014  23:32:00     -202.341     -106.772       10.795      207.103      152.465       74.716    42891.703    23245.611     5582.534        6.207        3.586      228.784      100.980        0.195      344.572       21.484      861.859
08/14/2014  23:33:00     -312.489      -95.359      -17.253      173.880      119.559       63.514    30234.300    14294.442     4034.033        7.779        2.428      326.715       74.982        0.053      344.544       21.434      861.879
08/14/2014  23:34:00     -349.340       -7.355      -17.381      143.898      155.666       67.247    20706.571    24231.938     4522.124        8.592        2.473      349.417       56.104        0.026      344.606       21.539      861.885
08/14/2014  23:35:00     -366.324      -43.900       -2.943      131.434       97.205       65.112    17274.871     9448.756     4239.584        8.354        1.548      368.945       66.090        0.032      344.582       21.500      861.834
08/14/2014  23:36:00     -211.370     -107.091        8.041      126.651      140.181       59.761    16040.553    19650.849     3571.414        4.773        1.963      236.951       71.161        0.090      344.507       21.372      861.860
08/14/2014  23:37:00     -375.028     -190.845        0.826      183.574      121.561       79.313    33699.348    14776.957     6290.550       11.591        2.738      420.794       93.854        0.050      344.512       21.381      861.899
08/14/2014  23:38:00     -264.414      -45.376       -2.321      165.364       85.031       62.773    27345.214     7230.288     3940.389        5.524        1.926      268.279       75.062        0.078      344.529       21.410      861.905
08/14/2014  23:39:00     -442.245     -136.156      -12.631      173.443      137.983       69.133    30082.337    19039.277     4779.304       13.408        2.695      462.730       74.229        0.026      344.545       21.434      861.919
08/14/2014  23:40:00     -369.160      -80.322       -2.133      142.753      112.718       69.202    20378.412    12705.415     4788.868        9.030        1.894      377.797       70.436        0.035      344.508       21.373      861.938
08/14/2014  23:41:00     -231.305     -179.167       -0.504      152.539       98.703       68.926    23268.097     9742.303     4750.758        6.167        1.888      292.579       72.967        0.062      344.497       21.354      861.966
08/14/2014  23:42:00     -175.376      -53.665       -2.903      129.380       84.283       58.199    16739.071     7103.573     3387.147        3.043        1.361      183.403       60.088        0.107      344.486       21.337      861.987
08/14/2014  23:43:00     -158.135      -67.185       -3.291       90.454       57.839       38.972     8181.947     3345.391     1518.792        2.129        0.652      171.816       27.051        0.025      344.442       21.261      861.984
08/14/2014  23:44:00     -113.519      -72.043        1.348       96.010       84.533       44.454     9217.994     7145.897     1976.125        1.821        0.917      134.449       46.680        0.121      344.411       21.210      862.006
08/14/2014  23:45:00     -135.667      -61.905       -1.710       73.657       66.482       36.524     5425.407     4419.885     1334.003        1.671        0.559      149.123       31.637        0.045      344.429       21.240      862.016
08/14/2014  23:46:00     -149.578        5.308        3.810      140.980       84.913       41.394    19875.444     7210.253     1713.430        2.560        1.440      149.672       58.826        0.154      344.415       21.217      862.040
08/14/2014  23:47:00     -235.637      -51.810       -4.639       93.786       97.786       48.725     8795.888     9562.109     2374.109        3.948        1.037      241.266       39.385        0.027      344.448       21.269      862.051
08/14/2014  23:48:00     -110.372       -4.622       13.922       98.773       74.368       46.542     9756.052     5530.665     2166.132        1.492        0.873      110.468       51.956        0.221      344.337       21.082      862.064
08/14/2014  23:49:00     -143.962       -2.283       -8.573       78.895       67.727       38.271     6224.371     4586.884     1464.692        1.654        0.614      143.980       38.663        0.072      344.391       21.173      862.080
08/14/2014  23:50:00     -187.083     -115.873       -9.529       79.784       84.528       40.538     6365.466     7144.986     1643.330        3.183        0.758      220.061       24.464        0.012      344.463       21.297      862.077
08/14/2014  23:51:00      -73.325      -42.508       10.360       85.578       49.708       37.897     7323.517     2470.902     1436.169        0.926        0.562       84.756       47.599        0.315      344.400       21.191      862.072
08/14/2014  23:52:00     -138.084      -15.792        2.248       90.491       78.596       46.380     8188.642     6177.320     2151.104        1.792        0.826      138.985       47.892        0.119      344.362       21.125      862.063
08/14/2014  23:53:00     -111.729      -44.890       -1.445       98.982       51.970       29.923     9797.457     2700.856      895.416        1.394        0.670      120.410       43.532        0.131      344.406       21.200      862.058
08/14/2014  23:54:00     -233.211      -67.073        0.894       92.403       88.807       47.161     8538.322     7886.685     2224.149        3.876        0.932      242.664       44.002        0.033      344.387       21.166      862.085
08/14/2014  23:55:00     -126.865      -38.309       10.310      115.104       77.662       51.214    13248.988     6031.428     2622.886        1.978        1.095      132.523       56.689        0.183      344.377       21.152      862.083
08/14/2014  23:56:00     -164.409      -91.294        2.893      139.393      100.011       61.992    19430.275    10002.174     3843.050        3.432        1.664      188.056       63.872        0.115      344.432       21.244      862.085
08/14/2014  23:57:00     -173.914     -132.119       17.891      171.398      131.908       72.618    29377.187    17399.744     5273.345        5.003        2.603      218.407       92.831        0.181      344.444       21.265      862.074
08/14/2014  23:58:00     -168.108     -176.174        2.601      120.231      120.568       74.961    14455.450    14536.730     5619.183        4.695        1.731      243.511       75.553        0.096      344.459       21.288      862.067
08/14/2014  23:59:00     -170.989     -112.085       -6.608       68.349       74.917       52.398     4671.569     5612.561     2745.521        2.743        0.651      204.451       41.024        0.040      344.412       21.209      862.090
